<?xml version="1.0" encoding="UTF-8" standalone="no" ?><gpx xmlns="http://www.topografix.com/GPX/1/1" xmlns:gpxx="http://www.garmin.com/xmlschemas/GpxExtensions/v3" xmlns:wptx1="http://www.garmin.com/xmlschemas/WaypointExtension/v1" xmlns:gpxtpx="http://www.garmin.com/xmlschemas/TrackPointExtension/v1" creator="GuideVTT.com" version="1.1" xmlns:xsi="http://www.w3.org/2001/XMLSchema-instance" xsi:schemaLocation="http://www.topografix.com/GPX/1/1 http://www.topografix.com/GPX/1/1/gpx.xsd http://www.garmin.com/xmlschemas/GpxExtensions/v3 http://www8.garmin.com/xmlschemas/GpxExtensionsv3.xsd http://www.garmin.com/xmlschemas/WaypointExtension/v1 http://www8.garmin.com/xmlschemas/WaypointExtensionv1.xsd http://www.garmin.com/xmlschemas/TrackPointExtension/v1 http://www.garmin.com/xmlschemas/TrackPointExtensionv1.xsd">
<metadata><link href="http://www.garmin.com"><text>Garmin International</text></link><time>2013-06-22T15:13:50Z</time></metadata>
<trk><name>runtastic_20140916_1930_vtt.gpx</name><extensions><gpxx:TrackExtension><gpxx:DisplayColor>Cyan</gpxx:DisplayColor></gpxx:TrackExtension></extensions><trkseg>
<trkpt lat="46.0924339294433594" lon="7.2334585189819336"><ele></ele><time>2014-10-10T14:14:49Z</time></trkpt>
<trkpt lat="46.0924110412597656" lon="7.2334475517272949"><ele></ele><time>2014-10-10T14:14:52Z</time></trkpt>
<trkpt lat="46.0924110412597656" lon="7.2334222793579102"><ele></ele><time>2014-10-10T14:14:55Z</time></trkpt>
<trkpt lat="46.0923995971679688" lon="7.2334451675415039"><ele></ele><time>2014-10-10T14:14:58Z</time></trkpt>
<trkpt lat="46.0924377441406250" lon="7.2334504127502441"><ele></ele><time>2014-10-10T14:15:1Z</time></trkpt>
<trkpt lat="46.0924263000488281" lon="7.2334756851196289"><ele></ele><time>2014-10-10T14:15:4Z</time></trkpt>
<trkpt lat="46.0924530029296875" lon="7.2334570884704590"><ele></ele><time>2014-10-10T14:15:7Z</time></trkpt>
<trkpt lat="46.0924072265625000" lon="7.2334594726562500"><ele></ele><time>2014-10-10T14:15:10Z</time></trkpt>
<trkpt lat="46.0923957824707031" lon="7.2334847450256348"><ele></ele><time>2014-10-10T14:15:13Z</time></trkpt>
<trkpt lat="46.0924110412597656" lon="7.2334818840026855"><ele></ele><time>2014-10-10T14:15:16Z</time></trkpt>
<trkpt lat="46.0923995971679688" lon="7.2334966659545898"><ele></ele><time>2014-10-10T14:15:19Z</time></trkpt>
<trkpt lat="46.0926780700683594" lon="7.2334713935852051"><ele></ele><time>2014-10-10T14:15:22Z</time></trkpt>
<trkpt lat="46.0928153991699219" lon="7.2332844734191895"><ele></ele><time>2014-10-10T14:15:25Z</time></trkpt>
<trkpt lat="46.0933380126953125" lon="7.2331528663635254"><ele></ele><time>2014-10-10T14:15:28Z</time></trkpt>
<trkpt lat="46.0935554504394531" lon="7.2330346107482910"><ele></ele><time>2014-10-10T14:15:31Z</time></trkpt>
<trkpt lat="46.0938034057617188" lon="7.2326965332031250"><ele></ele><time>2014-10-10T14:15:34Z</time></trkpt>
<trkpt lat="46.0942916870117188" lon="7.2325305938720703"><ele></ele><time>2014-10-10T14:15:37Z</time></trkpt>
<trkpt lat="46.0947265625000000" lon="7.2323031425476074"><ele></ele><time>2014-10-10T14:15:40Z</time></trkpt>
<trkpt lat="46.0952110290527344" lon="7.2321224212646484"><ele></ele><time>2014-10-10T14:15:43Z</time></trkpt>
<trkpt lat="46.0955200195312500" lon="7.2320170402526855"><ele></ele><time>2014-10-10T14:15:46Z</time></trkpt>
<trkpt lat="46.0959968566894531" lon="7.2321929931640625"><ele></ele><time>2014-10-10T14:15:49Z</time></trkpt>
<trkpt lat="46.0964469909667969" lon="7.2324461936950684"><ele></ele><time>2014-10-10T14:15:52Z</time></trkpt>
<trkpt lat="46.0969161987304688" lon="7.2324399948120117"><ele></ele><time>2014-10-10T14:15:55Z</time></trkpt>
<trkpt lat="46.0973739624023438" lon="7.2323794364929199"><ele></ele><time>2014-10-10T14:15:58Z</time></trkpt>
<trkpt lat="46.0978469848632812" lon="7.2323722839355469"><ele></ele><time>2014-10-10T14:16:1Z</time></trkpt>
<trkpt lat="46.0979995727539062" lon="7.2323708534240723"><ele></ele><time>2014-10-10T14:16:4Z</time></trkpt>
<trkpt lat="46.0980033874511719" lon="7.2324280738830566"><ele></ele><time>2014-10-10T14:16:7Z</time></trkpt>
<trkpt lat="46.0976333618164062" lon="7.2328686714172363"><ele></ele><time>2014-10-10T14:16:10Z</time></trkpt>
<trkpt lat="46.0972328186035156" lon="7.2332057952880859"><ele></ele><time>2014-10-10T14:16:13Z</time></trkpt>
<trkpt lat="46.0968208312988281" lon="7.2335934638977051"><ele></ele><time>2014-10-10T14:16:16Z</time></trkpt>
<trkpt lat="46.0963935852050781" lon="7.2338905334472656"><ele></ele><time>2014-10-10T14:16:19Z</time></trkpt>
<trkpt lat="46.0962791442871094" lon="7.2339944839477539"><ele></ele><time>2014-10-10T14:16:22Z</time></trkpt>
<trkpt lat="46.0959930419921875" lon="7.2344946861267090"><ele></ele><time>2014-10-10T14:16:25Z</time></trkpt>
<trkpt lat="46.0957145690917969" lon="7.2350039482116699"><ele></ele><time>2014-10-10T14:16:28Z</time></trkpt>
<trkpt lat="46.0954627990722656" lon="7.2355699539184570"><ele></ele><time>2014-10-10T14:16:31Z</time></trkpt>
<trkpt lat="46.0950469970703125" lon="7.2358589172363281"><ele></ele><time>2014-10-10T14:16:34Z</time></trkpt>
<trkpt lat="46.0946922302246094" lon="7.2362947463989258"><ele></ele><time>2014-10-10T14:16:37Z</time></trkpt>
<trkpt lat="46.0942611694335938" lon="7.2365479469299316"><ele></ele><time>2014-10-10T14:16:40Z</time></trkpt>
<trkpt lat="46.0938072204589844" lon="7.2367010116577148"><ele></ele><time>2014-10-10T14:16:43Z</time></trkpt>
<trkpt lat="46.0933494567871094" lon="7.2366390228271484"><ele></ele><time>2014-10-10T14:16:46Z</time></trkpt>
<trkpt lat="46.0929107666015625" lon="7.2364826202392578"><ele></ele><time>2014-10-10T14:16:49Z</time></trkpt>
<trkpt lat="46.0924720764160156" lon="7.2366347312927246"><ele></ele><time>2014-10-10T14:16:52Z</time></trkpt>
<trkpt lat="46.0920448303222656" lon="7.2368726730346680"><ele></ele><time>2014-10-10T14:16:55Z</time></trkpt>
<trkpt lat="46.0915718078613281" lon="7.2368302345275879"><ele></ele><time>2014-10-10T14:16:58Z</time></trkpt>
<trkpt lat="46.0911445617675781" lon="7.2365479469299316"><ele></ele><time>2014-10-10T14:17:1Z</time></trkpt>
<trkpt lat="46.0906829833984375" lon="7.2364149093627930"><ele></ele><time>2014-10-10T14:17:4Z</time></trkpt>
<trkpt lat="46.0905456542968750" lon="7.2364411354064941"><ele></ele><time>2014-10-10T14:17:7Z</time></trkpt>
<trkpt lat="46.0905456542968750" lon="7.2365489006042480"><ele></ele><time>2014-10-10T14:17:10Z</time></trkpt>
<trkpt lat="46.0909538269042969" lon="7.2368903160095215"><ele></ele><time>2014-10-10T14:17:13Z</time></trkpt>
<trkpt lat="46.0912971496582031" lon="7.2373471260070801"><ele></ele><time>2014-10-10T14:17:16Z</time></trkpt>
<trkpt lat="46.0916824340820312" lon="7.2376880645751953"><ele></ele><time>2014-10-10T14:17:19Z</time></trkpt>
<trkpt lat="46.0920791625976562" lon="7.2380228042602539"><ele></ele><time>2014-10-10T14:17:22Z</time></trkpt>
<trkpt lat="46.0925178527832031" lon="7.2382125854492188"><ele></ele><time>2014-10-10T14:17:25Z</time></trkpt>
<trkpt lat="46.0929794311523438" lon="7.2381191253662109"><ele></ele><time>2014-10-10T14:17:28Z</time></trkpt>
<trkpt lat="46.0934104919433594" lon="7.2383413314819336"><ele></ele><time>2014-10-10T14:17:31Z</time></trkpt>
<trkpt lat="46.0938301086425781" lon="7.2386465072631836"><ele></ele><time>2014-10-10T14:17:34Z</time></trkpt>
<trkpt lat="46.0942306518554688" lon="7.2389731407165527"><ele></ele><time>2014-10-10T14:17:37Z</time></trkpt>
<trkpt lat="46.0946540832519531" lon="7.2392210960388184"><ele></ele><time>2014-10-10T14:17:40Z</time></trkpt>
<trkpt lat="46.0949668884277344" lon="7.2396941184997559"><ele></ele><time>2014-10-10T14:17:43Z</time></trkpt>
<trkpt lat="46.0954055786132812" lon="7.2399334907531738"><ele></ele><time>2014-10-10T14:17:46Z</time></trkpt>
<trkpt lat="46.0958518981933594" lon="7.2400665283203125"><ele></ele><time>2014-10-10T14:17:49Z</time></trkpt>
<trkpt lat="46.0962638854980469" lon="7.2403402328491211"><ele></ele><time>2014-10-10T14:17:52Z</time></trkpt>
<trkpt lat="46.0965995788574219" lon="7.2407083511352539"><ele></ele><time>2014-10-10T14:17:55Z</time></trkpt>
<trkpt lat="46.0970573425292969" lon="7.2407150268554688"><ele></ele><time>2014-10-10T14:17:58Z</time></trkpt>
<trkpt lat="46.0974082946777344" lon="7.2411160469055176"><ele></ele><time>2014-10-10T14:18:1Z</time></trkpt>
<trkpt lat="46.0978164672851562" lon="7.2414331436157227"><ele></ele><time>2014-10-10T14:18:4Z</time></trkpt>
<trkpt lat="46.0982551574707031" lon="7.2416067123413086"><ele></ele><time>2014-10-10T14:18:7Z</time></trkpt>
<trkpt lat="46.0986976623535156" lon="7.2417931556701660"><ele></ele><time>2014-10-10T14:18:10Z</time></trkpt>
<trkpt lat="46.0991020202636719" lon="7.2421202659606934"><ele></ele><time>2014-10-10T14:18:13Z</time></trkpt>
<trkpt lat="46.0993118286132812" lon="7.2423686981201172"><ele></ele><time>2014-10-10T14:18:16Z</time></trkpt>
<trkpt lat="46.0997772216796875" lon="7.2423276901245117"><ele></ele><time>2014-10-10T14:18:19Z</time></trkpt>
<trkpt lat="46.1002578735351562" lon="7.2423782348632812"><ele></ele><time>2014-10-10T14:18:22Z</time></trkpt>
<trkpt lat="46.1007270812988281" lon="7.2423310279846191"><ele></ele><time>2014-10-10T14:18:25Z</time></trkpt>
<trkpt lat="46.1012001037597656" lon="7.2422757148742676"><ele></ele><time>2014-10-10T14:18:28Z</time></trkpt>
<trkpt lat="46.1013946533203125" lon="7.2420854568481445"><ele></ele><time>2014-10-10T14:18:31Z</time></trkpt>
<trkpt lat="46.1014595031738281" lon="7.2421422004699707"><ele></ele><time>2014-10-10T14:18:34Z</time></trkpt>
<trkpt lat="46.1012268066406250" lon="7.2425999641418457"><ele></ele><time>2014-10-10T14:18:37Z</time></trkpt>
<trkpt lat="46.1009140014648438" lon="7.2427067756652832"><ele></ele><time>2014-10-10T14:18:40Z</time></trkpt>
<trkpt lat="46.1006469726562500" lon="7.2426719665527344"><ele></ele><time>2014-10-10T14:18:43Z</time></trkpt>
<trkpt lat="46.1004104614257812" lon="7.2428336143493652"><ele></ele><time>2014-10-10T14:18:46Z</time></trkpt>
<trkpt lat="46.1001968383789062" lon="7.2432150840759277"><ele></ele><time>2014-10-10T14:18:49Z</time></trkpt>
<trkpt lat="46.1000862121582031" lon="7.2432808876037598"><ele></ele><time>2014-10-10T14:18:52Z</time></trkpt>
<trkpt lat="46.0996284484863281" lon="7.2433290481567383"><ele></ele><time>2014-10-10T14:18:55Z</time></trkpt>
<trkpt lat="46.0991554260253906" lon="7.2433872222900391"><ele></ele><time>2014-10-10T14:18:58Z</time></trkpt>
<trkpt lat="46.0986862182617188" lon="7.2434391975402832"><ele></ele><time>2014-10-10T14:19:1Z</time></trkpt>
<trkpt lat="46.0982017517089844" lon="7.2434301376342773"><ele></ele><time>2014-10-10T14:19:4Z</time></trkpt>
<trkpt lat="46.0977554321289062" lon="7.2433199882507324"><ele></ele><time>2014-10-10T14:19:7Z</time></trkpt>
<trkpt lat="46.0973167419433594" lon="7.2430977821350098"><ele></ele><time>2014-10-10T14:19:10Z</time></trkpt>
<trkpt lat="46.0968513488769531" lon="7.2429962158203125"><ele></ele><time>2014-10-10T14:19:13Z</time></trkpt>
<trkpt lat="46.0963859558105469" lon="7.2429547309875488"><ele></ele><time>2014-10-10T14:19:16Z</time></trkpt>
<trkpt lat="46.0959091186523438" lon="7.2428846359252930"><ele></ele><time>2014-10-10T14:19:19Z</time></trkpt>
<trkpt lat="46.0954475402832031" lon="7.2429122924804688"><ele></ele><time>2014-10-10T14:19:22Z</time></trkpt>
<trkpt lat="46.0949935913085938" lon="7.2428054809570312"><ele></ele><time>2014-10-10T14:19:25Z</time></trkpt>
<trkpt lat="46.0945205688476562" lon="7.2428374290466309"><ele></ele><time>2014-10-10T14:19:28Z</time></trkpt>
<trkpt lat="46.0940666198730469" lon="7.2429814338684082"><ele></ele><time>2014-10-10T14:19:31Z</time></trkpt>
<trkpt lat="46.0936470031738281" lon="7.2432417869567871"><ele></ele><time>2014-10-10T14:19:34Z</time></trkpt>
<trkpt lat="46.0931968688964844" lon="7.2433366775512695"><ele></ele><time>2014-10-10T14:19:37Z</time></trkpt>
<trkpt lat="46.0927429199218750" lon="7.2433543205261230"><ele></ele><time>2014-10-10T14:19:40Z</time></trkpt>
<trkpt lat="46.0926856994628906" lon="7.2434148788452148"><ele></ele><time>2014-10-10T14:19:43Z</time></trkpt>
<trkpt lat="46.0927467346191406" lon="7.2435369491577148"><ele></ele><time>2014-10-10T14:19:46Z</time></trkpt>
<trkpt lat="46.0932083129882812" lon="7.2435698509216309"><ele></ele><time>2014-10-10T14:19:49Z</time></trkpt>
<trkpt lat="46.0936355590820312" lon="7.2437992095947266"><ele></ele><time>2014-10-10T14:19:52Z</time></trkpt>
<trkpt lat="46.0940742492675781" lon="7.2440514564514160"><ele></ele><time>2014-10-10T14:19:55Z</time></trkpt>
<trkpt lat="46.0945243835449219" lon="7.2441587448120117"><ele></ele><time>2014-10-10T14:19:58Z</time></trkpt>
<trkpt lat="46.0948295593261719" lon="7.2442502975463867"><ele></ele><time>2014-10-10T14:20:1Z</time></trkpt>
<trkpt lat="46.0952453613281250" lon="7.2445349693298340"><ele></ele><time>2014-10-10T14:20:4Z</time></trkpt>
<trkpt lat="46.0956268310546875" lon="7.2447347640991211"><ele></ele><time>2014-10-10T14:20:7Z</time></trkpt>
<trkpt lat="46.0959281921386719" lon="7.2452664375305176"><ele></ele><time>2014-10-10T14:20:10Z</time></trkpt>
<trkpt lat="46.0962066650390625" lon="7.2458252906799316"><ele></ele><time>2014-10-10T14:20:13Z</time></trkpt>
<trkpt lat="46.0965881347656250" lon="7.2461786270141602"><ele></ele><time>2014-10-10T14:20:16Z</time></trkpt>
<trkpt lat="46.0968818664550781" lon="7.2466783523559570"><ele></ele><time>2014-10-10T14:20:19Z</time></trkpt>
<trkpt lat="46.0969161987304688" lon="7.2473502159118652"><ele></ele><time>2014-10-10T14:20:22Z</time></trkpt>
<trkpt lat="46.0970344543457031" lon="7.2476525306701660"><ele></ele><time>2014-10-10T14:20:25Z</time></trkpt>
<trkpt lat="46.0975112915039062" lon="7.2476835250854492"><ele></ele><time>2014-10-10T14:20:28Z</time></trkpt>
<trkpt lat="46.0979728698730469" lon="7.2476916313171387"><ele></ele><time>2014-10-10T14:20:31Z</time></trkpt>
<trkpt lat="46.0984344482421875" lon="7.2478003501892090"><ele></ele><time>2014-10-10T14:20:34Z</time></trkpt>
<trkpt lat="46.0988845825195312" lon="7.2479157447814941"><ele></ele><time>2014-10-10T14:20:37Z</time></trkpt>
<trkpt lat="46.0992774963378906" lon="7.2479205131530762"><ele></ele><time>2014-10-10T14:20:40Z</time></trkpt>
<trkpt lat="46.0997009277343750" lon="7.2481637001037598"><ele></ele><time>2014-10-10T14:20:43Z</time></trkpt>
<trkpt lat="46.1001052856445312" lon="7.2484745979309082"><ele></ele><time>2014-10-10T14:20:46Z</time></trkpt>
<trkpt lat="46.1002922058105469" lon="7.2484893798828125"><ele></ele><time>2014-10-10T14:20:49Z</time></trkpt>
<trkpt lat="46.1007537841796875" lon="7.2485518455505371"><ele></ele><time>2014-10-10T14:20:52Z</time></trkpt>
<trkpt lat="46.1012077331542969" lon="7.2486333847045898"><ele></ele><time>2014-10-10T14:20:55Z</time></trkpt>
<trkpt lat="46.1016693115234375" lon="7.2485246658325195"><ele></ele><time>2014-10-10T14:20:58Z</time></trkpt>
<trkpt lat="46.1021270751953125" lon="7.2483801841735840"><ele></ele><time>2014-10-10T14:21:1Z</time></trkpt>
<trkpt lat="46.1025772094726562" lon="7.2483053207397461"><ele></ele><time>2014-10-10T14:21:4Z</time></trkpt>
<trkpt lat="46.1028060913085938" lon="7.2482228279113770"><ele></ele><time>2014-10-10T14:21:7Z</time></trkpt>
<trkpt lat="46.1032409667968750" lon="7.2484369277954102"><ele></ele><time>2014-10-10T14:21:10Z</time></trkpt>
<trkpt lat="46.1036071777343750" lon="7.2485694885253906"><ele></ele><time>2014-10-10T14:21:13Z</time></trkpt>
<trkpt lat="46.1037979125976562" lon="7.2484893798828125"><ele></ele><time>2014-10-10T14:21:16Z</time></trkpt>
<trkpt lat="46.1038208007812500" lon="7.2485780715942383"><ele></ele><time>2014-10-10T14:21:19Z</time></trkpt>
<trkpt lat="46.1036796569824219" lon="7.2487130165100098"><ele></ele><time>2014-10-10T14:21:22Z</time></trkpt>
<trkpt lat="46.1032295227050781" lon="7.2488341331481934"><ele></ele><time>2014-10-10T14:21:25Z</time></trkpt>
<trkpt lat="46.1029891967773438" lon="7.2490625381469727"><ele></ele><time>2014-10-10T14:21:28Z</time></trkpt>
<trkpt lat="46.1027946472167969" lon="7.2496709823608398"><ele></ele><time>2014-10-10T14:21:31Z</time></trkpt>
<trkpt lat="46.1024208068847656" lon="7.2500715255737305"><ele></ele><time>2014-10-10T14:21:34Z</time></trkpt>
<trkpt lat="46.1019744873046875" lon="7.2502017021179199"><ele></ele><time>2014-10-10T14:21:37Z</time></trkpt>
<trkpt lat="46.1015319824218750" lon="7.2503461837768555"><ele></ele><time>2014-10-10T14:21:40Z</time></trkpt>
<trkpt lat="46.1011085510253906" lon="7.2505807876586914"><ele></ele><time>2014-10-10T14:21:43Z</time></trkpt>
<trkpt lat="46.1006698608398438" lon="7.2507982254028320"><ele></ele><time>2014-10-10T14:21:46Z</time></trkpt>
<trkpt lat="46.1002464294433594" lon="7.2510538101196289"><ele></ele><time>2014-10-10T14:21:49Z</time></trkpt>
<trkpt lat="46.0998153686523438" lon="7.2512993812561035"><ele></ele><time>2014-10-10T14:21:52Z</time></trkpt>
<trkpt lat="46.0993461608886719" lon="7.2513494491577148"><ele></ele><time>2014-10-10T14:21:55Z</time></trkpt>
<trkpt lat="46.0988922119140625" lon="7.2513604164123535"><ele></ele><time>2014-10-10T14:21:58Z</time></trkpt>
<trkpt lat="46.0984497070312500" lon="7.2515692710876465"><ele></ele><time>2014-10-10T14:22:1Z</time></trkpt>
<trkpt lat="46.0979804992675781" lon="7.2516269683837891"><ele></ele><time>2014-10-10T14:22:4Z</time></trkpt>
<trkpt lat="46.0977516174316406" lon="7.2515912055969238"><ele></ele><time>2014-10-10T14:22:7Z</time></trkpt>
<trkpt lat="46.0975341796875000" lon="7.2521715164184570"><ele></ele><time>2014-10-10T14:22:10Z</time></trkpt>
<trkpt lat="46.0972938537597656" lon="7.2527332305908203"><ele></ele><time>2014-10-10T14:22:13Z</time></trkpt>
<trkpt lat="46.0969924926757812" lon="7.2532296180725098"><ele></ele><time>2014-10-10T14:22:16Z</time></trkpt>
<trkpt lat="46.0966682434082031" lon="7.2537121772766113"><ele></ele><time>2014-10-10T14:22:19Z</time></trkpt>
<trkpt lat="46.0964126586914062" lon="7.2542734146118164"><ele></ele><time>2014-10-10T14:22:22Z</time></trkpt>
<trkpt lat="46.0960617065429688" lon="7.2547063827514648"><ele></ele><time>2014-10-10T14:22:25Z</time></trkpt>
<trkpt lat="46.0955924987792969" lon="7.2547597885131836"><ele></ele><time>2014-10-10T14:22:28Z</time></trkpt>
<trkpt lat="46.0951652526855469" lon="7.2546095848083496"><ele></ele><time>2014-10-10T14:22:31Z</time></trkpt>
<trkpt lat="46.0950546264648438" lon="7.2540669441223145"><ele></ele><time>2014-10-10T14:22:34Z</time></trkpt>
<trkpt lat="46.0946006774902344" lon="7.2539105415344238"><ele></ele><time>2014-10-10T14:22:37Z</time></trkpt>
<trkpt lat="46.0941734313964844" lon="7.2536516189575195"><ele></ele><time>2014-10-10T14:22:40Z</time></trkpt>
<trkpt lat="46.0937271118164062" lon="7.2535247802734375"><ele></ele><time>2014-10-10T14:22:43Z</time></trkpt>
<trkpt lat="46.0933036804199219" lon="7.2532877922058105"><ele></ele><time>2014-10-10T14:22:46Z</time></trkpt>
<trkpt lat="46.0929412841796875" lon="7.2528958320617676"><ele></ele><time>2014-10-10T14:22:49Z</time></trkpt>
<trkpt lat="46.0926589965820312" lon="7.2523813247680664"><ele></ele><time>2014-10-10T14:22:52Z</time></trkpt>
<trkpt lat="46.0923805236816406" lon="7.2518658638000488"><ele></ele><time>2014-10-10T14:22:55Z</time></trkpt>
<trkpt lat="46.0922241210937500" lon="7.2512392997741699"><ele></ele><time>2014-10-10T14:22:58Z</time></trkpt>
<trkpt lat="46.0921211242675781" lon="7.2505989074707031"><ele></ele><time>2014-10-10T14:23:1Z</time></trkpt>
<trkpt lat="46.0920448303222656" lon="7.2501525878906250"><ele></ele><time>2014-10-10T14:23:4Z</time></trkpt>
<trkpt lat="46.0915756225585938" lon="7.2500977516174316"><ele></ele><time>2014-10-10T14:23:7Z</time></trkpt>
<trkpt lat="46.0911445617675781" lon="7.2502799034118652"><ele></ele><time>2014-10-10T14:23:10Z</time></trkpt>
<trkpt lat="46.0906867980957031" lon="7.2504463195800781"><ele></ele><time>2014-10-10T14:23:13Z</time></trkpt>
<trkpt lat="46.0902481079101562" lon="7.2506098747253418"><ele></ele><time>2014-10-10T14:23:16Z</time></trkpt>
<trkpt lat="46.0897941589355469" lon="7.2506408691406250"><ele></ele><time>2014-10-10T14:23:19Z</time></trkpt>
<trkpt lat="46.0893478393554688" lon="7.2505459785461426"><ele></ele><time>2014-10-10T14:23:22Z</time></trkpt>
<trkpt lat="46.0889244079589844" lon="7.2502479553222656"><ele></ele><time>2014-10-10T14:23:25Z</time></trkpt>
<trkpt lat="46.0885238647460938" lon="7.2501091957092285"><ele></ele><time>2014-10-10T14:23:28Z</time></trkpt>
<trkpt lat="46.0884704589843750" lon="7.2501840591430664"><ele></ele><time>2014-10-10T14:23:31Z</time></trkpt>
<trkpt lat="46.0885009765625000" lon="7.2502861022949219"><ele></ele><time>2014-10-10T14:23:34Z</time></trkpt>
<trkpt lat="46.0889167785644531" lon="7.2506103515625000"><ele></ele><time>2014-10-10T14:23:37Z</time></trkpt>
<trkpt lat="46.0892257690429688" lon="7.2511010169982910"><ele></ele><time>2014-10-10T14:23:40Z</time></trkpt>
<trkpt lat="46.0895118713378906" lon="7.2516112327575684"><ele></ele><time>2014-10-10T14:23:43Z</time></trkpt>
<trkpt lat="46.0899162292480469" lon="7.2519345283508301"><ele></ele><time>2014-10-10T14:23:46Z</time></trkpt>
<trkpt lat="46.0903358459472656" lon="7.2522192001342773"><ele></ele><time>2014-10-10T14:23:49Z</time></trkpt>
<trkpt lat="46.0907211303710938" lon="7.2523827552795410"><ele></ele><time>2014-10-10T14:23:52Z</time></trkpt>
<trkpt lat="46.0907554626464844" lon="7.2527737617492676"><ele></ele><time>2014-10-10T14:23:55Z</time></trkpt>
<trkpt lat="46.0910263061523438" lon="7.2525253295898438"><ele></ele><time>2014-10-10T14:23:58Z</time></trkpt>
<trkpt lat="46.0913352966308594" lon="7.2524971961975098"><ele></ele><time>2014-10-10T14:24:1Z</time></trkpt>
<trkpt lat="46.0914115905761719" lon="7.2525515556335449"><ele></ele><time>2014-10-10T14:24:4Z</time></trkpt>
<trkpt lat="46.0915260314941406" lon="7.2527618408203125"><ele></ele><time>2014-10-10T14:24:7Z</time></trkpt>
<trkpt lat="46.0916328430175781" lon="7.2534914016723633"><ele></ele><time>2014-10-10T14:24:10Z</time></trkpt>
<trkpt lat="46.0916099548339844" lon="7.2537889480590820"><ele></ele><time>2014-10-10T14:24:13Z</time></trkpt>
<trkpt lat="46.0918350219726562" lon="7.2543921470642090"><ele></ele><time>2014-10-10T14:24:16Z</time></trkpt>
<trkpt lat="46.0919723510742188" lon="7.2546043395996094"><ele></ele><time>2014-10-10T14:24:19Z</time></trkpt>
<trkpt lat="46.0923767089843750" lon="7.2549958229064941"><ele></ele><time>2014-10-10T14:24:22Z</time></trkpt>
<trkpt lat="46.0925292968750000" lon="7.2552475929260254"><ele></ele><time>2014-10-10T14:24:25Z</time></trkpt>
<trkpt lat="46.0926628112792969" lon="7.2557325363159180"><ele></ele><time>2014-10-10T14:24:28Z</time></trkpt>
<trkpt lat="46.0928497314453125" lon="7.2559304237365723"><ele></ele><time>2014-10-10T14:24:31Z</time></trkpt>
<trkpt lat="46.0930099487304688" lon="7.2560129165649414"><ele></ele><time>2014-10-10T14:24:34Z</time></trkpt>
<trkpt lat="46.0930709838867188" lon="7.2560811042785645"><ele></ele><time>2014-10-10T14:24:37Z</time></trkpt>
<trkpt lat="46.0930938720703125" lon="7.2561612129211426"><ele></ele><time>2014-10-10T14:24:40Z</time></trkpt>
<trkpt lat="46.0929336547851562" lon="7.2565598487854004"><ele></ele><time>2014-10-10T14:24:43Z</time></trkpt>
<trkpt lat="46.0929298400878906" lon="7.2566833496093750"><ele></ele><time>2014-10-10T14:24:46Z</time></trkpt>
<trkpt lat="46.0929756164550781" lon="7.2568836212158203"><ele></ele><time>2014-10-10T14:24:49Z</time></trkpt>
<trkpt lat="46.0931701660156250" lon="7.2571887969970703"><ele></ele><time>2014-10-10T14:24:52Z</time></trkpt>
<trkpt lat="46.0934448242187500" lon="7.2572727203369141"><ele></ele><time>2014-10-10T14:24:55Z</time></trkpt>
<trkpt lat="46.0935630798339844" lon="7.2574286460876465"><ele></ele><time>2014-10-10T14:24:58Z</time></trkpt>
<trkpt lat="46.0935363769531250" lon="7.2575087547302246"><ele></ele><time>2014-10-10T14:25:1Z</time></trkpt>
<trkpt lat="46.0935935974121094" lon="7.2576484680175781"><ele></ele><time>2014-10-10T14:25:4Z</time></trkpt>
<trkpt lat="46.0937347412109375" lon="7.2577137947082520"><ele></ele><time>2014-10-10T14:25:7Z</time></trkpt>
<trkpt lat="46.0938339233398438" lon="7.2578268051147461"><ele></ele><time>2014-10-10T14:25:10Z</time></trkpt>
<trkpt lat="46.0940284729003906" lon="7.2578730583190918"><ele></ele><time>2014-10-10T14:25:13Z</time></trkpt>
<trkpt lat="46.0944404602050781" lon="7.2581233978271484"><ele></ele><time>2014-10-10T14:25:16Z</time></trkpt>
<trkpt lat="46.0949440002441406" lon="7.2580299377441406"><ele></ele><time>2014-10-10T14:25:19Z</time></trkpt>
<trkpt lat="46.0953865051269531" lon="7.2579712867736816"><ele></ele><time>2014-10-10T14:25:22Z</time></trkpt>
<trkpt lat="46.0958709716796875" lon="7.2576913833618164"><ele></ele><time>2014-10-10T14:25:25Z</time></trkpt>
<trkpt lat="46.0962333679199219" lon="7.2572550773620605"><ele></ele><time>2014-10-10T14:25:28Z</time></trkpt>
<trkpt lat="46.0965080261230469" lon="7.2570705413818359"><ele></ele><time>2014-10-10T14:25:31Z</time></trkpt>
<trkpt lat="46.0967254638671875" lon="7.2570624351501465"><ele></ele><time>2014-10-10T14:25:34Z</time></trkpt>
<trkpt lat="46.0971183776855469" lon="7.2573843002319336"><ele></ele><time>2014-10-10T14:25:37Z</time></trkpt>
<trkpt lat="46.0973243713378906" lon="7.2575626373291016"><ele></ele><time>2014-10-10T14:25:40Z</time></trkpt>
<trkpt lat="46.0978469848632812" lon="7.2576284408569336"><ele></ele><time>2014-10-10T14:25:43Z</time></trkpt>
<trkpt lat="46.0983352661132812" lon="7.2575669288635254"><ele></ele><time>2014-10-10T14:25:46Z</time></trkpt>
<trkpt lat="46.0988159179687500" lon="7.2574167251586914"><ele></ele><time>2014-10-10T14:25:49Z</time></trkpt>
<trkpt lat="46.0992889404296875" lon="7.2572288513183594"><ele></ele><time>2014-10-10T14:25:52Z</time></trkpt>
<trkpt lat="46.0997276306152344" lon="7.2570576667785645"><ele></ele><time>2014-10-10T14:25:55Z</time></trkpt>
<trkpt lat="46.1001319885253906" lon="7.2567496299743652"><ele></ele><time>2014-10-10T14:25:58Z</time></trkpt>
<trkpt lat="46.1005249023437500" lon="7.2564244270324707"><ele></ele><time>2014-10-10T14:26:1Z</time></trkpt>
<trkpt lat="46.1009597778320312" lon="7.2560229301452637"><ele></ele><time>2014-10-10T14:26:4Z</time></trkpt>
<trkpt lat="46.1013679504394531" lon="7.2557516098022461"><ele></ele><time>2014-10-10T14:26:7Z</time></trkpt>
<trkpt lat="46.1017990112304688" lon="7.2555017471313477"><ele></ele><time>2014-10-10T14:26:10Z</time></trkpt>
<trkpt lat="46.1021080017089844" lon="7.2554450035095215"><ele></ele><time>2014-10-10T14:26:13Z</time></trkpt>
<trkpt lat="46.1025962829589844" lon="7.2555217742919922"><ele></ele><time>2014-10-10T14:26:16Z</time></trkpt>
<trkpt lat="46.1030921936035156" lon="7.2554059028625488"><ele></ele><time>2014-10-10T14:26:19Z</time></trkpt>
<trkpt lat="46.1035919189453125" lon="7.2553548812866211"><ele></ele><time>2014-10-10T14:26:22Z</time></trkpt>
<trkpt lat="46.1040039062500000" lon="7.2553100585937500"><ele></ele><time>2014-10-10T14:26:25Z</time></trkpt>
<trkpt lat="46.1044464111328125" lon="7.2550683021545410"><ele></ele><time>2014-10-10T14:26:28Z</time></trkpt>
<trkpt lat="46.1049041748046875" lon="7.2548666000366211"><ele></ele><time>2014-10-10T14:26:31Z</time></trkpt>
<trkpt lat="46.1051254272460938" lon="7.2547712326049805"><ele></ele><time>2014-10-10T14:26:34Z</time></trkpt>
<trkpt lat="46.1055641174316406" lon="7.2544865608215332"><ele></ele><time>2014-10-10T14:26:37Z</time></trkpt>
<trkpt lat="46.1059494018554688" lon="7.2543659210205078"><ele></ele><time>2014-10-10T14:26:40Z</time></trkpt>
<trkpt lat="46.1063613891601562" lon="7.2540583610534668"><ele></ele><time>2014-10-10T14:26:43Z</time></trkpt>
<trkpt lat="46.1067695617675781" lon="7.2537269592285156"><ele></ele><time>2014-10-10T14:26:46Z</time></trkpt>
<trkpt lat="46.1069908142089844" lon="7.2534041404724121"><ele></ele><time>2014-10-10T14:26:49Z</time></trkpt>
<trkpt lat="46.1071662902832031" lon="7.2527523040771484"><ele></ele><time>2014-10-10T14:26:52Z</time></trkpt>
<trkpt lat="46.1072769165039062" lon="7.2521672248840332"><ele></ele><time>2014-10-10T14:26:55Z</time></trkpt>
<trkpt lat="46.1073722839355469" lon="7.2520732879638672"><ele></ele><time>2014-10-10T14:26:58Z</time></trkpt>
<trkpt lat="46.1077117919921875" lon="7.2519307136535645"><ele></ele><time>2014-10-10T14:27:1Z</time></trkpt>
<trkpt lat="46.1078186035156250" lon="7.2518315315246582"><ele></ele><time>2014-10-10T14:27:4Z</time></trkpt>
<trkpt lat="46.1078796386718750" lon="7.2515106201171875"><ele></ele><time>2014-10-10T14:27:7Z</time></trkpt>
<trkpt lat="46.1081504821777344" lon="7.2512063980102539"><ele></ele><time>2014-10-10T14:27:10Z</time></trkpt>
<trkpt lat="46.1081390380859375" lon="7.2504391670227051"><ele></ele><time>2014-10-10T14:27:13Z</time></trkpt>
<trkpt lat="46.1082077026367188" lon="7.2497687339782715"><ele></ele><time>2014-10-10T14:27:16Z</time></trkpt>
<trkpt lat="46.1083793640136719" lon="7.2494382858276367"><ele></ele><time>2014-10-10T14:27:19Z</time></trkpt>
<trkpt lat="46.1084899902343750" lon="7.2493205070495605"><ele></ele><time>2014-10-10T14:27:22Z</time></trkpt>
<trkpt lat="46.1090049743652344" lon="7.2492017745971680"><ele></ele><time>2014-10-10T14:27:25Z</time></trkpt>
<trkpt lat="46.1094512939453125" lon="7.2491126060485840"><ele></ele><time>2014-10-10T14:27:28Z</time></trkpt>
<trkpt lat="46.1099128723144531" lon="7.2491102218627930"><ele></ele><time>2014-10-10T14:27:31Z</time></trkpt>
<trkpt lat="46.1102981567382812" lon="7.2490968704223633"><ele></ele><time>2014-10-10T14:27:34Z</time></trkpt>
<trkpt lat="46.1107330322265625" lon="7.2488741874694824"><ele></ele><time>2014-10-10T14:27:37Z</time></trkpt>
<trkpt lat="46.1111793518066406" lon="7.2486681938171387"><ele></ele><time>2014-10-10T14:27:40Z</time></trkpt>
<trkpt lat="46.1116485595703125" lon="7.2484507560729980"><ele></ele><time>2014-10-10T14:27:43Z</time></trkpt>
<trkpt lat="46.1120719909667969" lon="7.2481904029846191"><ele></ele><time>2014-10-10T14:27:46Z</time></trkpt>
<trkpt lat="46.1124763488769531" lon="7.2478036880493164"><ele></ele><time>2014-10-10T14:27:49Z</time></trkpt>
<trkpt lat="46.1128540039062500" lon="7.2474412918090820"><ele></ele><time>2014-10-10T14:27:52Z</time></trkpt>
<trkpt lat="46.1131706237792969" lon="7.2471680641174316"><ele></ele><time>2014-10-10T14:27:55Z</time></trkpt>
<trkpt lat="46.1133537292480469" lon="7.2467179298400879"><ele></ele><time>2014-10-10T14:27:58Z</time></trkpt>
<trkpt lat="46.1133995056152344" lon="7.2463045120239258"><ele></ele><time>2014-10-10T14:28:1Z</time></trkpt>
<trkpt lat="46.1133880615234375" lon="7.2459058761596680"><ele></ele><time>2014-10-10T14:28:4Z</time></trkpt>
<trkpt lat="46.1134567260742188" lon="7.2456598281860352"><ele></ele><time>2014-10-10T14:28:7Z</time></trkpt>
<trkpt lat="46.1144485473632812" lon="7.2433505058288574"><ele></ele><time>2014-10-10T14:28:10Z</time></trkpt>
<trkpt lat="46.1145210266113281" lon="7.2436580657958984"><ele></ele><time>2014-10-10T14:28:13Z</time></trkpt>
<trkpt lat="46.1145629882812500" lon="7.2435536384582520"><ele></ele><time>2014-10-10T14:28:16Z</time></trkpt>
<trkpt lat="46.1150054931640625" lon="7.2434053421020508"><ele></ele><time>2014-10-10T14:28:19Z</time></trkpt>
<trkpt lat="46.1154403686523438" lon="7.2431778907775879"><ele></ele><time>2014-10-10T14:28:22Z</time></trkpt>
<trkpt lat="46.1158752441406250" lon="7.2428936958312988"><ele></ele><time>2014-10-10T14:28:25Z</time></trkpt>
<trkpt lat="46.1162948608398438" lon="7.2426304817199707"><ele></ele><time>2014-10-10T14:28:28Z</time></trkpt>
<trkpt lat="46.1167030334472656" lon="7.2422990798950195"><ele></ele><time>2014-10-10T14:28:31Z</time></trkpt>
<trkpt lat="46.1171302795410156" lon="7.2418923377990723"><ele></ele><time>2014-10-10T14:28:34Z</time></trkpt>
<trkpt lat="46.1175422668457031" lon="7.2415666580200195"><ele></ele><time>2014-10-10T14:28:37Z</time></trkpt>
<trkpt lat="46.1178092956542969" lon="7.2413725852966309"><ele></ele><time>2014-10-10T14:28:40Z</time></trkpt>
<trkpt lat="46.1181411743164062" lon="7.2409262657165527"><ele></ele><time>2014-10-10T14:28:43Z</time></trkpt>
<trkpt lat="46.1185264587402344" lon="7.2405462265014648"><ele></ele><time>2014-10-10T14:28:46Z</time></trkpt>
<trkpt lat="46.1189041137695312" lon="7.2401647567749023"><ele></ele><time>2014-10-10T14:28:49Z</time></trkpt>
<trkpt lat="46.1192626953125000" lon="7.2397651672363281"><ele></ele><time>2014-10-10T14:28:52Z</time></trkpt>
<trkpt lat="46.1194610595703125" lon="7.2394299507141113"><ele></ele><time>2014-10-10T14:28:55Z</time></trkpt>
<trkpt lat="46.1195640563964844" lon="7.2391314506530762"><ele></ele><time>2014-10-10T14:28:58Z</time></trkpt>
<trkpt lat="46.1196861267089844" lon="7.2384419441223145"><ele></ele><time>2014-10-10T14:29:1Z</time></trkpt>
<trkpt lat="46.1197814941406250" lon="7.2377891540527344"><ele></ele><time>2014-10-10T14:29:4Z</time></trkpt>
<trkpt lat="46.1197929382324219" lon="7.2376723289489746"><ele></ele><time>2014-10-10T14:29:7Z</time></trkpt>
<trkpt lat="46.1199989318847656" lon="7.2370333671569824"><ele></ele><time>2014-10-10T14:29:10Z</time></trkpt>
<trkpt lat="46.1202659606933594" lon="7.2364177703857422"><ele></ele><time>2014-10-10T14:29:13Z</time></trkpt>
<trkpt lat="46.1203918457031250" lon="7.2357277870178223"><ele></ele><time>2014-10-10T14:29:16Z</time></trkpt>
<trkpt lat="46.1204338073730469" lon="7.2354946136474609"><ele></ele><time>2014-10-10T14:29:19Z</time></trkpt>
<trkpt lat="46.1206665039062500" lon="7.2348694801330566"><ele></ele><time>2014-10-10T14:29:22Z</time></trkpt>
<trkpt lat="46.1208801269531250" lon="7.2342767715454102"><ele></ele><time>2014-10-10T14:29:25Z</time></trkpt>
<trkpt lat="46.1211929321289062" lon="7.2337269783020020"><ele></ele><time>2014-10-10T14:29:28Z</time></trkpt>
<trkpt lat="46.1213302612304688" lon="7.2333188056945801"><ele></ele><time>2014-10-10T14:29:31Z</time></trkpt>
<trkpt lat="46.1214103698730469" lon="7.2327194213867188"><ele></ele><time>2014-10-10T14:29:34Z</time></trkpt>
<trkpt lat="46.1214866638183594" lon="7.2325816154479980"><ele></ele><time>2014-10-10T14:29:37Z</time></trkpt>
<trkpt lat="46.1219062805175781" lon="7.2322759628295898"><ele></ele><time>2014-10-10T14:29:40Z</time></trkpt>
<trkpt lat="46.1220321655273438" lon="7.2322416305541992"><ele></ele><time>2014-10-10T14:29:43Z</time></trkpt>
<trkpt lat="46.1222267150878906" lon="7.2323265075683594"><ele></ele><time>2014-10-10T14:29:46Z</time></trkpt>
<trkpt lat="46.1222991943359375" lon="7.2322816848754883"><ele></ele><time>2014-10-10T14:29:49Z</time></trkpt>
<trkpt lat="46.1227989196777344" lon="7.2323393821716309"><ele></ele><time>2014-10-10T14:29:52Z</time></trkpt>
<trkpt lat="46.1232795715332031" lon="7.2323098182678223"><ele></ele><time>2014-10-10T14:29:55Z</time></trkpt>
<trkpt lat="46.1236610412597656" lon="7.2321553230285645"><ele></ele><time>2014-10-10T14:29:58Z</time></trkpt>
<trkpt lat="46.1241683959960938" lon="7.2321934700012207"><ele></ele><time>2014-10-10T14:30:1Z</time></trkpt>
<trkpt lat="46.1243515014648438" lon="7.2320814132690430"><ele></ele><time>2014-10-10T14:30:4Z</time></trkpt>
<trkpt lat="46.1245384216308594" lon="7.2318778038024902"><ele></ele><time>2014-10-10T14:30:7Z</time></trkpt>
<trkpt lat="46.1247863769531250" lon="7.2318201065063477"><ele></ele><time>2014-10-10T14:30:10Z</time></trkpt>
<trkpt lat="46.1248703002929688" lon="7.2318935394287109"><ele></ele><time>2014-10-10T14:30:13Z</time></trkpt>
<trkpt lat="46.1249694824218750" lon="7.2319102287292480"><ele></ele><time>2014-10-10T14:30:16Z</time></trkpt>
<trkpt lat="46.1250724792480469" lon="7.2318959236145020"><ele></ele><time>2014-10-10T14:30:19Z</time></trkpt>
<trkpt lat="46.1253547668457031" lon="7.2322354316711426"><ele></ele><time>2014-10-10T14:30:22Z</time></trkpt>
<trkpt lat="46.1257247924804688" lon="7.2320795059204102"><ele></ele><time>2014-10-10T14:30:25Z</time></trkpt>
<trkpt lat="46.1260261535644531" lon="7.2321376800537109"><ele></ele><time>2014-10-10T14:30:28Z</time></trkpt>
<trkpt lat="46.1264991760253906" lon="7.2320899963378906"><ele></ele><time>2014-10-10T14:30:31Z</time></trkpt>
<trkpt lat="46.1267547607421875" lon="7.2320351600646973"><ele></ele><time>2014-10-10T14:30:34Z</time></trkpt>
<trkpt lat="46.1267967224121094" lon="7.2320642471313477"><ele></ele><time>2014-10-10T14:30:37Z</time></trkpt>
<trkpt lat="46.1268196105957031" lon="7.2321882247924805"><ele></ele><time>2014-10-10T14:30:40Z</time></trkpt>
<trkpt lat="46.1267433166503906" lon="7.2324438095092773"><ele></ele><time>2014-10-10T14:30:43Z</time></trkpt>
<trkpt lat="46.1267700195312500" lon="7.2325372695922852"><ele></ele><time>2014-10-10T14:30:46Z</time></trkpt>
<trkpt lat="46.1269035339355469" lon="7.2325477600097656"><ele></ele><time>2014-10-10T14:30:49Z</time></trkpt>
<trkpt lat="46.1271133422851562" lon="7.2324895858764648"><ele></ele><time>2014-10-10T14:30:52Z</time></trkpt>
<trkpt lat="46.1274833679199219" lon="7.2321786880493164"><ele></ele><time>2014-10-10T14:30:55Z</time></trkpt>
<trkpt lat="46.1276359558105469" lon="7.2321667671203613"><ele></ele><time>2014-10-10T14:30:58Z</time></trkpt>
<trkpt lat="46.1278495788574219" lon="7.2319827079772949"><ele></ele><time>2014-10-10T14:31:1Z</time></trkpt>
<trkpt lat="46.1281433105468750" lon="7.2320418357849121"><ele></ele><time>2014-10-10T14:31:4Z</time></trkpt>
<trkpt lat="46.1282691955566406" lon="7.2324328422546387"><ele></ele><time>2014-10-10T14:31:7Z</time></trkpt>
<trkpt lat="46.1282463073730469" lon="7.2328286170959473"><ele></ele><time>2014-10-10T14:31:10Z</time></trkpt>
<trkpt lat="46.1280708312988281" lon="7.2332715988159180"><ele></ele><time>2014-10-10T14:31:13Z</time></trkpt>
<trkpt lat="46.1277961730957031" lon="7.2335109710693359"><ele></ele><time>2014-10-10T14:31:16Z</time></trkpt>
<trkpt lat="46.1277656555175781" lon="7.2339782714843750"><ele></ele><time>2014-10-10T14:31:19Z</time></trkpt>
<trkpt lat="46.1275749206542969" lon="7.2342152595520020"><ele></ele><time>2014-10-10T14:31:22Z</time></trkpt>
<trkpt lat="46.1275634765625000" lon="7.2344527244567871"><ele></ele><time>2014-10-10T14:31:25Z</time></trkpt>
<trkpt lat="46.1276054382324219" lon="7.2346034049987793"><ele></ele><time>2014-10-10T14:31:28Z</time></trkpt>
<trkpt lat="46.1276969909667969" lon="7.2346768379211426"><ele></ele><time>2014-10-10T14:31:31Z</time></trkpt>
<trkpt lat="46.1279525756835938" lon="7.2347412109375000"><ele></ele><time>2014-10-10T14:31:34Z</time></trkpt>
<trkpt lat="46.1283798217773438" lon="7.2349390983581543"><ele></ele><time>2014-10-10T14:31:37Z</time></trkpt>
<trkpt lat="46.1284141540527344" lon="7.2350754737854004"><ele></ele><time>2014-10-10T14:31:40Z</time></trkpt>
<trkpt lat="46.1281394958496094" lon="7.2356543540954590"><ele></ele><time>2014-10-10T14:31:43Z</time></trkpt>
<trkpt lat="46.1281394958496094" lon="7.2357525825500488"><ele></ele><time>2014-10-10T14:31:46Z</time></trkpt>
<trkpt lat="46.1283607482910156" lon="7.2358536720275879"><ele></ele><time>2014-10-10T14:31:49Z</time></trkpt>
<trkpt lat="46.1282463073730469" lon="7.2360014915466309"><ele></ele><time>2014-10-10T14:31:52Z</time></trkpt>
<trkpt lat="46.1282348632812500" lon="7.2360515594482422"><ele></ele><time>2014-10-10T14:31:55Z</time></trkpt>
<trkpt lat="46.1283035278320312" lon="7.2361240386962891"><ele></ele><time>2014-10-10T14:31:58Z</time></trkpt>
<trkpt lat="46.1285476684570312" lon="7.2361135482788086"><ele></ele><time>2014-10-10T14:32:1Z</time></trkpt>
<trkpt lat="46.1290016174316406" lon="7.2359476089477539"><ele></ele><time>2014-10-10T14:32:4Z</time></trkpt>
<trkpt lat="46.1294555664062500" lon="7.2356324195861816"><ele></ele><time>2014-10-10T14:32:7Z</time></trkpt>
<trkpt lat="46.1298027038574219" lon="7.2354316711425781"><ele></ele><time>2014-10-10T14:32:10Z</time></trkpt>
<trkpt lat="46.1302642822265625" lon="7.2354788780212402"><ele></ele><time>2014-10-10T14:32:13Z</time></trkpt>
<trkpt lat="46.1304893493652344" lon="7.2354998588562012"><ele></ele><time>2014-10-10T14:32:16Z</time></trkpt>
<trkpt lat="46.1309165954589844" lon="7.2353596687316895"><ele></ele><time>2014-10-10T14:32:19Z</time></trkpt>
<trkpt lat="46.1314430236816406" lon="7.2354607582092285"><ele></ele><time>2014-10-10T14:32:22Z</time></trkpt>
<trkpt lat="46.1319427490234375" lon="7.2355566024780273"><ele></ele><time>2014-10-10T14:32:25Z</time></trkpt>
<trkpt lat="46.1320190429687500" lon="7.2356500625610352"><ele></ele><time>2014-10-10T14:32:28Z</time></trkpt>
<trkpt lat="46.1320648193359375" lon="7.2360873222351074"><ele></ele><time>2014-10-10T14:32:31Z</time></trkpt>
<trkpt lat="46.1318702697753906" lon="7.2367949485778809"><ele></ele><time>2014-10-10T14:32:34Z</time></trkpt>
<trkpt lat="46.1316871643066406" lon="7.2372341156005859"><ele></ele><time>2014-10-10T14:32:37Z</time></trkpt>
<trkpt lat="46.1316757202148438" lon="7.2374024391174316"><ele></ele><time>2014-10-10T14:32:40Z</time></trkpt>
<trkpt lat="46.1317329406738281" lon="7.2374296188354492"><ele></ele><time>2014-10-10T14:32:43Z</time></trkpt>
<trkpt lat="46.1318473815917969" lon="7.2375788688659668"><ele></ele><time>2014-10-10T14:32:46Z</time></trkpt>
<trkpt lat="46.1320610046386719" lon="7.2376894950866699"><ele></ele><time>2014-10-10T14:32:49Z</time></trkpt>
<trkpt lat="46.1325340270996094" lon="7.2376155853271484"><ele></ele><time>2014-10-10T14:32:52Z</time></trkpt>
<trkpt lat="46.1326522827148438" lon="7.2374176979064941"><ele></ele><time>2014-10-10T14:32:55Z</time></trkpt>
<trkpt lat="46.1326446533203125" lon="7.2373838424682617"><ele></ele><time>2014-10-10T14:32:58Z</time></trkpt>
<trkpt lat="46.1327972412109375" lon="7.2373132705688477"><ele></ele><time>2014-10-10T14:33:1Z</time></trkpt>
<trkpt lat="46.1328659057617188" lon="7.2371835708618164"><ele></ele><time>2014-10-10T14:33:4Z</time></trkpt>
<trkpt lat="46.1333351135253906" lon="7.2371411323547363"><ele></ele><time>2014-10-10T14:33:7Z</time></trkpt>
<trkpt lat="46.1333732604980469" lon="7.2371754646301270"><ele></ele><time>2014-10-10T14:33:10Z</time></trkpt>
<trkpt lat="46.1334304809570312" lon="7.2378740310668945"><ele></ele><time>2014-10-10T14:33:13Z</time></trkpt>
<trkpt lat="46.1334381103515625" lon="7.2379631996154785"><ele></ele><time>2014-10-10T14:33:16Z</time></trkpt>
<trkpt lat="46.1335029602050781" lon="7.2381358146667480"><ele></ele><time>2014-10-10T14:33:19Z</time></trkpt>
<trkpt lat="46.1337509155273438" lon="7.2384490966796875"><ele></ele><time>2014-10-10T14:33:22Z</time></trkpt>
<trkpt lat="46.1339302062988281" lon="7.2387218475341797"><ele></ele><time>2014-10-10T14:33:25Z</time></trkpt>
<trkpt lat="46.1340408325195312" lon="7.2387361526489258"><ele></ele><time>2014-10-10T14:33:28Z</time></trkpt>
<trkpt lat="46.1341247558593750" lon="7.2388334274291992"><ele></ele><time>2014-10-10T14:33:31Z</time></trkpt>
<trkpt lat="46.1341133117675781" lon="7.2390613555908203"><ele></ele><time>2014-10-10T14:33:34Z</time></trkpt>
<trkpt lat="46.1339950561523438" lon="7.2393140792846680"><ele></ele><time>2014-10-10T14:33:37Z</time></trkpt>
<trkpt lat="46.1336441040039062" lon="7.2396597862243652"><ele></ele><time>2014-10-10T14:33:40Z</time></trkpt>
<trkpt lat="46.1336097717285156" lon="7.2401342391967773"><ele></ele><time>2014-10-10T14:33:43Z</time></trkpt>
<trkpt lat="46.1339569091796875" lon="7.2403612136840820"><ele></ele><time>2014-10-10T14:33:46Z</time></trkpt>
<trkpt lat="46.1342048645019531" lon="7.2406678199768066"><ele></ele><time>2014-10-10T14:33:49Z</time></trkpt>
<trkpt lat="46.1343879699707031" lon="7.2413053512573242"><ele></ele><time>2014-10-10T14:33:52Z</time></trkpt>
<trkpt lat="46.1343612670898438" lon="7.2413821220397949"><ele></ele><time>2014-10-10T14:33:55Z</time></trkpt>
<trkpt lat="46.1338729858398438" lon="7.2415843009948730"><ele></ele><time>2014-10-10T14:33:58Z</time></trkpt>
<trkpt lat="46.1333694458007812" lon="7.2417788505554199"><ele></ele><time>2014-10-10T14:34:1Z</time></trkpt>
<trkpt lat="46.1332740783691406" lon="7.2417969703674316"><ele></ele><time>2014-10-10T14:34:4Z</time></trkpt>
<trkpt lat="46.1329765319824219" lon="7.2419795989990234"><ele></ele><time>2014-10-10T14:34:7Z</time></trkpt>
<trkpt lat="46.1326904296875000" lon="7.2422909736633301"><ele></ele><time>2014-10-10T14:34:10Z</time></trkpt>
<trkpt lat="46.1325378417968750" lon="7.2425122261047363"><ele></ele><time>2014-10-10T14:34:13Z</time></trkpt>
<trkpt lat="46.1321258544921875" lon="7.2427778244018555"><ele></ele><time>2014-10-10T14:34:16Z</time></trkpt>
<trkpt lat="46.1319236755371094" lon="7.2430033683776855"><ele></ele><time>2014-10-10T14:34:19Z</time></trkpt>
<trkpt lat="46.1319885253906250" lon="7.2431163787841797"><ele></ele><time>2014-10-10T14:34:22Z</time></trkpt>
<trkpt lat="46.1322212219238281" lon="7.2438158988952637"><ele></ele><time>2014-10-10T14:34:25Z</time></trkpt>
<trkpt lat="46.1323204040527344" lon="7.2446169853210449"><ele></ele><time>2014-10-10T14:34:28Z</time></trkpt>
<trkpt lat="46.1322822570800781" lon="7.2453141212463379"><ele></ele><time>2014-10-10T14:34:31Z</time></trkpt>
<trkpt lat="46.1321525573730469" lon="7.2456855773925781"><ele></ele><time>2014-10-10T14:34:34Z</time></trkpt>
<trkpt lat="46.1320571899414062" lon="7.2460570335388184"><ele></ele><time>2014-10-10T14:34:37Z</time></trkpt>
<trkpt lat="46.1319046020507812" lon="7.2463898658752441"><ele></ele><time>2014-10-10T14:34:40Z</time></trkpt>
<trkpt lat="46.1316261291503906" lon="7.2468080520629883"><ele></ele><time>2014-10-10T14:34:43Z</time></trkpt>
<trkpt lat="46.1315536499023438" lon="7.2471346855163574"><ele></ele><time>2014-10-10T14:34:46Z</time></trkpt>
<trkpt lat="46.1315650939941406" lon="7.2472515106201172"><ele></ele><time>2014-10-10T14:34:49Z</time></trkpt>
<trkpt lat="46.1316680908203125" lon="7.2474555969238281"><ele></ele><time>2014-10-10T14:34:52Z</time></trkpt>
<trkpt lat="46.1318054199218750" lon="7.2474851608276367"><ele></ele><time>2014-10-10T14:34:55Z</time></trkpt>
<trkpt lat="46.1318702697753906" lon="7.2474479675292969"><ele></ele><time>2014-10-10T14:34:58Z</time></trkpt>
<trkpt lat="46.1319084167480469" lon="7.2473716735839844"><ele></ele><time>2014-10-10T14:35:1Z</time></trkpt>
<trkpt lat="46.1319923400878906" lon="7.2470002174377441"><ele></ele><time>2014-10-10T14:35:4Z</time></trkpt>
<trkpt lat="46.1323165893554688" lon="7.2464332580566406"><ele></ele><time>2014-10-10T14:35:7Z</time></trkpt>
<trkpt lat="46.1325569152832031" lon="7.2461876869201660"><ele></ele><time>2014-10-10T14:35:10Z</time></trkpt>
<trkpt lat="46.1326675415039062" lon="7.2459449768066406"><ele></ele><time>2014-10-10T14:35:13Z</time></trkpt>
<trkpt lat="46.1327323913574219" lon="7.2456727027893066"><ele></ele><time>2014-10-10T14:35:16Z</time></trkpt>
<trkpt lat="46.1327705383300781" lon="7.2450737953186035"><ele></ele><time>2014-10-10T14:35:19Z</time></trkpt>
<trkpt lat="46.1327629089355469" lon="7.2447943687438965"><ele></ele><time>2014-10-10T14:35:22Z</time></trkpt>
<trkpt lat="46.1328277587890625" lon="7.2446045875549316"><ele></ele><time>2014-10-10T14:35:25Z</time></trkpt>
<trkpt lat="46.1331520080566406" lon="7.2444276809692383"><ele></ele><time>2014-10-10T14:35:28Z</time></trkpt>
<trkpt lat="46.1335296630859375" lon="7.2440471649169922"><ele></ele><time>2014-10-10T14:35:31Z</time></trkpt>
<trkpt lat="46.1336860656738281" lon="7.2439208030700684"><ele></ele><time>2014-10-10T14:35:34Z</time></trkpt>
<trkpt lat="46.1338729858398438" lon="7.2438921928405762"><ele></ele><time>2014-10-10T14:35:37Z</time></trkpt>
<trkpt lat="46.1343421936035156" lon="7.2441129684448242"><ele></ele><time>2014-10-10T14:35:40Z</time></trkpt>
<trkpt lat="46.1345367431640625" lon="7.2440910339355469"><ele></ele><time>2014-10-10T14:35:43Z</time></trkpt>
<trkpt lat="46.1349639892578125" lon="7.2439789772033691"><ele></ele><time>2014-10-10T14:35:46Z</time></trkpt>
<trkpt lat="46.1355171203613281" lon="7.2437481880187988"><ele></ele><time>2014-10-10T14:35:49Z</time></trkpt>
<trkpt lat="46.1358337402343750" lon="7.2436246871948242"><ele></ele><time>2014-10-10T14:35:52Z</time></trkpt>
<trkpt lat="46.1361503601074219" lon="7.2433090209960938"><ele></ele><time>2014-10-10T14:35:55Z</time></trkpt>
<trkpt lat="46.1363067626953125" lon="7.2430539131164551"><ele></ele><time>2014-10-10T14:35:58Z</time></trkpt>
<trkpt lat="46.1367225646972656" lon="7.2426633834838867"><ele></ele><time>2014-10-10T14:36:1Z</time></trkpt>
<trkpt lat="46.1368598937988281" lon="7.2424716949462891"><ele></ele><time>2014-10-10T14:36:4Z</time></trkpt>
<trkpt lat="46.1371498107910156" lon="7.2419772148132324"><ele></ele><time>2014-10-10T14:36:7Z</time></trkpt>
<trkpt lat="46.1375198364257812" lon="7.2415428161621094"><ele></ele><time>2014-10-10T14:36:10Z</time></trkpt>
<trkpt lat="46.1377716064453125" lon="7.2411904335021973"><ele></ele><time>2014-10-10T14:36:13Z</time></trkpt>
<trkpt lat="46.1379737854003906" lon="7.2407398223876953"><ele></ele><time>2014-10-10T14:36:16Z</time></trkpt>
<trkpt lat="46.1381607055664062" lon="7.2406020164489746"><ele></ele><time>2014-10-10T14:36:19Z</time></trkpt>
<trkpt lat="46.1384696960449219" lon="7.2409634590148926"><ele></ele><time>2014-10-10T14:36:22Z</time></trkpt>
<trkpt lat="46.1384506225585938" lon="7.2412738800048828"><ele></ele><time>2014-10-10T14:36:25Z</time></trkpt>
<trkpt lat="46.1383819580078125" lon="7.2413687705993652"><ele></ele><time>2014-10-10T14:36:28Z</time></trkpt>
<trkpt lat="46.1383781433105469" lon="7.2415070533752441"><ele></ele><time>2014-10-10T14:36:31Z</time></trkpt>
<trkpt lat="46.1382102966308594" lon="7.2421431541442871"><ele></ele><time>2014-10-10T14:36:34Z</time></trkpt>
<trkpt lat="46.1379814147949219" lon="7.2427759170532227"><ele></ele><time>2014-10-10T14:36:37Z</time></trkpt>
<trkpt lat="46.1377868652343750" lon="7.2431125640869141"><ele></ele><time>2014-10-10T14:36:40Z</time></trkpt>
<trkpt lat="46.1375617980957031" lon="7.2436633110046387"><ele></ele><time>2014-10-10T14:36:43Z</time></trkpt>
<trkpt lat="46.1372222900390625" lon="7.2440838813781738"><ele></ele><time>2014-10-10T14:36:46Z</time></trkpt>
<trkpt lat="46.1369361877441406" lon="7.2444486618041992"><ele></ele><time>2014-10-10T14:36:49Z</time></trkpt>
<trkpt lat="46.1366844177246094" lon="7.2449932098388672"><ele></ele><time>2014-10-10T14:36:52Z</time></trkpt>
<trkpt lat="46.1365737915039062" lon="7.2451725006103516"><ele></ele><time>2014-10-10T14:36:55Z</time></trkpt>
<trkpt lat="46.1361579895019531" lon="7.2455363273620605"><ele></ele><time>2014-10-10T14:36:58Z</time></trkpt>
<trkpt lat="46.1359901428222656" lon="7.2458786964416504"><ele></ele><time>2014-10-10T14:37:1Z</time></trkpt>
<trkpt lat="46.1355361938476562" lon="7.2460861206054688"><ele></ele><time>2014-10-10T14:37:4Z</time></trkpt>
<trkpt lat="46.1352233886718750" lon="7.2465538978576660"><ele></ele><time>2014-10-10T14:37:7Z</time></trkpt>
<trkpt lat="46.1351242065429688" lon="7.2466878890991211"><ele></ele><time>2014-10-10T14:37:10Z</time></trkpt>
<trkpt lat="46.1347465515136719" lon="7.2468404769897461"><ele></ele><time>2014-10-10T14:37:13Z</time></trkpt>
<trkpt lat="46.1346893310546875" lon="7.2468214035034180"><ele></ele><time>2014-10-10T14:37:16Z</time></trkpt>
<trkpt lat="46.1345939636230469" lon="7.2469034194946289"><ele></ele><time>2014-10-10T14:37:19Z</time></trkpt>
<trkpt lat="46.1345901489257812" lon="7.2469744682312012"><ele></ele><time>2014-10-10T14:37:22Z</time></trkpt>
<trkpt lat="46.1346397399902344" lon="7.2470226287841797"><ele></ele><time>2014-10-10T14:37:25Z</time></trkpt>
<trkpt lat="46.1346740722656250" lon="7.2472391128540039"><ele></ele><time>2014-10-10T14:37:28Z</time></trkpt>
<trkpt lat="46.1347351074218750" lon="7.2473492622375488"><ele></ele><time>2014-10-10T14:37:31Z</time></trkpt>
<trkpt lat="46.1351280212402344" lon="7.2474598884582520"><ele></ele><time>2014-10-10T14:37:34Z</time></trkpt>
<trkpt lat="46.1351852416992188" lon="7.2474231719970703"><ele></ele><time>2014-10-10T14:37:37Z</time></trkpt>
<trkpt lat="46.1352920532226562" lon="7.2474322319030762"><ele></ele><time>2014-10-10T14:37:40Z</time></trkpt>
<trkpt lat="46.1353378295898438" lon="7.2473883628845215"><ele></ele><time>2014-10-10T14:37:43Z</time></trkpt>
<trkpt lat="46.1357727050781250" lon="7.2473402023315430"><ele></ele><time>2014-10-10T14:37:46Z</time></trkpt>
<trkpt lat="46.1357955932617188" lon="7.2474064826965332"><ele></ele><time>2014-10-10T14:37:49Z</time></trkpt>
<trkpt lat="46.1354598999023438" lon="7.2476420402526855"><ele></ele><time>2014-10-10T14:37:52Z</time></trkpt>
<trkpt lat="46.1353836059570312" lon="7.2477312088012695"><ele></ele><time>2014-10-10T14:37:55Z</time></trkpt>
<trkpt lat="46.1353569030761719" lon="7.2478551864624023"><ele></ele><time>2014-10-10T14:37:58Z</time></trkpt>
<trkpt lat="46.1355171203613281" lon="7.2478852272033691"><ele></ele><time>2014-10-10T14:38:1Z</time></trkpt>
<trkpt lat="46.1359138488769531" lon="7.2475976943969727"><ele></ele><time>2014-10-10T14:38:4Z</time></trkpt>
<trkpt lat="46.1363372802734375" lon="7.2470860481262207"><ele></ele><time>2014-10-10T14:38:7Z</time></trkpt>
<trkpt lat="46.1364974975585938" lon="7.2469463348388672"><ele></ele><time>2014-10-10T14:38:10Z</time></trkpt>
<trkpt lat="46.1366920471191406" lon="7.2469120025634766"><ele></ele><time>2014-10-10T14:38:13Z</time></trkpt>
<trkpt lat="46.1371116638183594" lon="7.2469382286071777"><ele></ele><time>2014-10-10T14:38:16Z</time></trkpt>
<trkpt lat="46.1375083923339844" lon="7.2466411590576172"><ele></ele><time>2014-10-10T14:38:19Z</time></trkpt>
<trkpt lat="46.1377487182617188" lon="7.2465286254882812"><ele></ele><time>2014-10-10T14:38:22Z</time></trkpt>
<trkpt lat="46.1382637023925781" lon="7.2464284896850586"><ele></ele><time>2014-10-10T14:38:25Z</time></trkpt>
<trkpt lat="46.1383590698242188" lon="7.2464036941528320"><ele></ele><time>2014-10-10T14:38:28Z</time></trkpt>
<trkpt lat="46.1384429931640625" lon="7.2463364601135254"><ele></ele><time>2014-10-10T14:38:31Z</time></trkpt>
<trkpt lat="46.1387634277343750" lon="7.2458033561706543"><ele></ele><time>2014-10-10T14:38:34Z</time></trkpt>
<trkpt lat="46.1390571594238281" lon="7.2452888488769531"><ele></ele><time>2014-10-10T14:38:37Z</time></trkpt>
<trkpt lat="46.1393966674804688" lon="7.2448444366455078"><ele></ele><time>2014-10-10T14:38:40Z</time></trkpt>
<trkpt lat="46.1397514343261719" lon="7.2443437576293945"><ele></ele><time>2014-10-10T14:38:43Z</time></trkpt>
<trkpt lat="46.1400032043457031" lon="7.2437772750854492"><ele></ele><time>2014-10-10T14:38:46Z</time></trkpt>
<trkpt lat="46.1402816772460938" lon="7.2431917190551758"><ele></ele><time>2014-10-10T14:38:49Z</time></trkpt>
<trkpt lat="46.1406631469726562" lon="7.2427186965942383"><ele></ele><time>2014-10-10T14:38:52Z</time></trkpt>
<trkpt lat="46.1407623291015625" lon="7.2425079345703125"><ele></ele><time>2014-10-10T14:38:55Z</time></trkpt>
<trkpt lat="46.1409149169921875" lon="7.2423133850097656"><ele></ele><time>2014-10-10T14:38:58Z</time></trkpt>
<trkpt lat="46.1410789489746094" lon="7.2419900894165039"><ele></ele><time>2014-10-10T14:39:1Z</time></trkpt>
<trkpt lat="46.1412620544433594" lon="7.2418332099914551"><ele></ele><time>2014-10-10T14:39:4Z</time></trkpt>
<trkpt lat="46.1413650512695312" lon="7.2416386604309082"><ele></ele><time>2014-10-10T14:39:7Z</time></trkpt>
<trkpt lat="46.1415214538574219" lon="7.2415847778320312"><ele></ele><time>2014-10-10T14:39:10Z</time></trkpt>
<trkpt lat="46.1417236328125000" lon="7.2417240142822266"><ele></ele><time>2014-10-10T14:39:13Z</time></trkpt>
<trkpt lat="46.1417808532714844" lon="7.2418951988220215"><ele></ele><time>2014-10-10T14:39:16Z</time></trkpt>
<trkpt lat="46.1417808532714844" lon="7.2420082092285156"><ele></ele><time>2014-10-10T14:39:19Z</time></trkpt>
<trkpt lat="46.1414871215820312" lon="7.2426033020019531"><ele></ele><time>2014-10-10T14:39:22Z</time></trkpt>
<trkpt lat="46.1412010192871094" lon="7.2431521415710449"><ele></ele><time>2014-10-10T14:39:25Z</time></trkpt>
<trkpt lat="46.1410942077636719" lon="7.2434344291687012"><ele></ele><time>2014-10-10T14:39:28Z</time></trkpt>
<trkpt lat="46.1410598754882812" lon="7.2436647415161133"><ele></ele><time>2014-10-10T14:39:31Z</time></trkpt>
<trkpt lat="46.1410064697265625" lon="7.2437925338745117"><ele></ele><time>2014-10-10T14:39:34Z</time></trkpt>
<trkpt lat="46.1409759521484375" lon="7.2442135810852051"><ele></ele><time>2014-10-10T14:39:37Z</time></trkpt>
<trkpt lat="46.1410179138183594" lon="7.2446618080139160"><ele></ele><time>2014-10-10T14:39:40Z</time></trkpt>
<trkpt lat="46.1410140991210938" lon="7.2447671890258789"><ele></ele><time>2014-10-10T14:39:43Z</time></trkpt>
<trkpt lat="46.1410713195800781" lon="7.2448182106018066"><ele></ele><time>2014-10-10T14:39:46Z</time></trkpt>
<trkpt lat="46.1412391662597656" lon="7.2447175979614258"><ele></ele><time>2014-10-10T14:39:49Z</time></trkpt>
<trkpt lat="46.1414527893066406" lon="7.2444243431091309"><ele></ele><time>2014-10-10T14:39:52Z</time></trkpt>
<trkpt lat="46.1415710449218750" lon="7.2443656921386719"><ele></ele><time>2014-10-10T14:39:55Z</time></trkpt>
<trkpt lat="46.1417503356933594" lon="7.2445187568664551"><ele></ele><time>2014-10-10T14:39:58Z</time></trkpt>
<trkpt lat="46.1417503356933594" lon="7.2446517944335938"><ele></ele><time>2014-10-10T14:40:1Z</time></trkpt>
<trkpt lat="46.1414833068847656" lon="7.2452268600463867"><ele></ele><time>2014-10-10T14:40:4Z</time></trkpt>
<trkpt lat="46.1412315368652344" lon="7.2458596229553223"><ele></ele><time>2014-10-10T14:40:7Z</time></trkpt>
<trkpt lat="46.1409454345703125" lon="7.2463974952697754"><ele></ele><time>2014-10-10T14:40:10Z</time></trkpt>
<trkpt lat="46.1404914855957031" lon="7.2466711997985840"><ele></ele><time>2014-10-10T14:40:13Z</time></trkpt>
<trkpt lat="46.1400260925292969" lon="7.2467927932739258"><ele></ele><time>2014-10-10T14:40:16Z</time></trkpt>
<trkpt lat="46.1396636962890625" lon="7.2471203804016113"><ele></ele><time>2014-10-10T14:40:19Z</time></trkpt>
<trkpt lat="46.1394348144531250" lon="7.2477378845214844"><ele></ele><time>2014-10-10T14:40:22Z</time></trkpt>
<trkpt lat="46.1391525268554688" lon="7.2480297088623047"><ele></ele><time>2014-10-10T14:40:25Z</time></trkpt>
<trkpt lat="46.1389427185058594" lon="7.2480940818786621"><ele></ele><time>2014-10-10T14:40:28Z</time></trkpt>
<trkpt lat="46.1385040283203125" lon="7.2484345436096191"><ele></ele><time>2014-10-10T14:40:31Z</time></trkpt>
<trkpt lat="46.1381263732910156" lon="7.2485284805297852"><ele></ele><time>2014-10-10T14:40:34Z</time></trkpt>
<trkpt lat="46.1379585266113281" lon="7.2487583160400391"><ele></ele><time>2014-10-10T14:40:37Z</time></trkpt>
<trkpt lat="46.1377296447753906" lon="7.2492361068725586"><ele></ele><time>2014-10-10T14:40:40Z</time></trkpt>
<trkpt lat="46.1372756958007812" lon="7.2496089935302734"><ele></ele><time>2014-10-10T14:40:43Z</time></trkpt>
<trkpt lat="46.1368560791015625" lon="7.2498817443847656"><ele></ele><time>2014-10-10T14:40:46Z</time></trkpt>
<trkpt lat="46.1364898681640625" lon="7.2500271797180176"><ele></ele><time>2014-10-10T14:40:49Z</time></trkpt>
<trkpt lat="46.1364631652832031" lon="7.2501740455627441"><ele></ele><time>2014-10-10T14:40:52Z</time></trkpt>
<trkpt lat="46.1365242004394531" lon="7.2503123283386230"><ele></ele><time>2014-10-10T14:40:55Z</time></trkpt>
<trkpt lat="46.1369934082031250" lon="7.2504153251647949"><ele></ele><time>2014-10-10T14:40:58Z</time></trkpt>
<trkpt lat="46.1373710632324219" lon="7.2504477500915527"><ele></ele><time>2014-10-10T14:41:1Z</time></trkpt>
<trkpt lat="46.1377792358398438" lon="7.2507290840148926"><ele></ele><time>2014-10-10T14:41:4Z</time></trkpt>
<trkpt lat="46.1381072998046875" lon="7.2510538101196289"><ele></ele><time>2014-10-10T14:41:7Z</time></trkpt>
<trkpt lat="46.1384124755859375" lon="7.2511978149414062"><ele></ele><time>2014-10-10T14:41:10Z</time></trkpt>
<trkpt lat="46.1387519836425781" lon="7.2512631416320801"><ele></ele><time>2014-10-10T14:41:13Z</time></trkpt>
<trkpt lat="46.1389656066894531" lon="7.2513709068298340"><ele></ele><time>2014-10-10T14:41:16Z</time></trkpt>
<trkpt lat="46.1395301818847656" lon="7.2514147758483887"><ele></ele><time>2014-10-10T14:41:19Z</time></trkpt>
<trkpt lat="46.1399917602539062" lon="7.2515387535095215"><ele></ele><time>2014-10-10T14:41:22Z</time></trkpt>
<trkpt lat="46.1401901245117188" lon="7.2516884803771973"><ele></ele><time>2014-10-10T14:41:25Z</time></trkpt>
<trkpt lat="46.1403846740722656" lon="7.2517271041870117"><ele></ele><time>2014-10-10T14:41:28Z</time></trkpt>
<trkpt lat="46.1408882141113281" lon="7.2516384124755859"><ele></ele><time>2014-10-10T14:41:31Z</time></trkpt>
<trkpt lat="46.1413078308105469" lon="7.2516841888427734"><ele></ele><time>2014-10-10T14:41:34Z</time></trkpt>
<trkpt lat="46.1416816711425781" lon="7.2519211769104004"><ele></ele><time>2014-10-10T14:41:37Z</time></trkpt>
<trkpt lat="46.1420936584472656" lon="7.2519168853759766"><ele></ele><time>2014-10-10T14:41:40Z</time></trkpt>
<trkpt lat="46.1422958374023438" lon="7.2517504692077637"><ele></ele><time>2014-10-10T14:41:43Z</time></trkpt>
<trkpt lat="46.1425056457519531" lon="7.2516865730285645"><ele></ele><time>2014-10-10T14:41:46Z</time></trkpt>
<trkpt lat="46.1427764892578125" lon="7.2516632080078125"><ele></ele><time>2014-10-10T14:41:49Z</time></trkpt>
<trkpt lat="46.1428680419921875" lon="7.2516975402832031"><ele></ele><time>2014-10-10T14:41:52Z</time></trkpt>
<trkpt lat="46.1430206298828125" lon="7.2518167495727539"><ele></ele><time>2014-10-10T14:41:55Z</time></trkpt>
<trkpt lat="46.1432037353515625" lon="7.2518520355224609"><ele></ele><time>2014-10-10T14:41:58Z</time></trkpt>
<trkpt lat="46.1434898376464844" lon="7.2517313957214355"><ele></ele><time>2014-10-10T14:42:1Z</time></trkpt>
<trkpt lat="46.1440277099609375" lon="7.2518916130065918"><ele></ele><time>2014-10-10T14:42:4Z</time></trkpt>
<trkpt lat="46.1442489624023438" lon="7.2519598007202148"><ele></ele><time>2014-10-10T14:42:7Z</time></trkpt>
<trkpt lat="46.1446800231933594" lon="7.2522106170654297"><ele></ele><time>2014-10-10T14:42:10Z</time></trkpt>
<trkpt lat="46.1449966430664062" lon="7.2524757385253906"><ele></ele><time>2014-10-10T14:42:13Z</time></trkpt>
<trkpt lat="46.1450500488281250" lon="7.2525911331176758"><ele></ele><time>2014-10-10T14:42:16Z</time></trkpt>
<trkpt lat="46.1452751159667969" lon="7.2527966499328613"><ele></ele><time>2014-10-10T14:42:19Z</time></trkpt>
<trkpt lat="46.1454772949218750" lon="7.2529029846191406"><ele></ele><time>2014-10-10T14:42:22Z</time></trkpt>
<trkpt lat="46.1455650329589844" lon="7.2529182434082031"><ele></ele><time>2014-10-10T14:42:25Z</time></trkpt>
<trkpt lat="46.1458435058593750" lon="7.2527422904968262"><ele></ele><time>2014-10-10T14:42:28Z</time></trkpt>
<trkpt lat="46.1461334228515625" lon="7.2528095245361328"><ele></ele><time>2014-10-10T14:42:31Z</time></trkpt>
<trkpt lat="46.1466064453125000" lon="7.2525882720947266"><ele></ele><time>2014-10-10T14:42:34Z</time></trkpt>
<trkpt lat="46.1467857360839844" lon="7.2525553703308105"><ele></ele><time>2014-10-10T14:42:37Z</time></trkpt>
<trkpt lat="46.1469383239746094" lon="7.2526459693908691"><ele></ele><time>2014-10-10T14:42:40Z</time></trkpt>
<trkpt lat="46.1470413208007812" lon="7.2528142929077148"><ele></ele><time>2014-10-10T14:42:43Z</time></trkpt>
<trkpt lat="46.1470222473144531" lon="7.2535619735717773"><ele></ele><time>2014-10-10T14:42:46Z</time></trkpt>
<trkpt lat="46.1470565795898438" lon="7.2541022300720215"><ele></ele><time>2014-10-10T14:42:49Z</time></trkpt>
<trkpt lat="46.1471672058105469" lon="7.2546281814575195"><ele></ele><time>2014-10-10T14:42:52Z</time></trkpt>
<trkpt lat="46.1472969055175781" lon="7.2550082206726074"><ele></ele><time>2014-10-10T14:42:55Z</time></trkpt>
<trkpt lat="46.1473236083984375" lon="7.2552275657653809"><ele></ele><time>2014-10-10T14:42:58Z</time></trkpt>
<trkpt lat="46.1472549438476562" lon="7.2556328773498535"><ele></ele><time>2014-10-10T14:43:1Z</time></trkpt>
<trkpt lat="46.1472663879394531" lon="7.2557921409606934"><ele></ele><time>2014-10-10T14:43:4Z</time></trkpt>
<trkpt lat="46.1472473144531250" lon="7.2559247016906738"><ele></ele><time>2014-10-10T14:43:7Z</time></trkpt>
<trkpt lat="46.1473655700683594" lon="7.2565970420837402"><ele></ele><time>2014-10-10T14:43:10Z</time></trkpt>
<trkpt lat="46.1474037170410156" lon="7.2568569183349609"><ele></ele><time>2014-10-10T14:43:13Z</time></trkpt>
<trkpt lat="46.1474075317382812" lon="7.2570509910583496"><ele></ele><time>2014-10-10T14:43:16Z</time></trkpt>
<trkpt lat="46.1473655700683594" lon="7.2572059631347656"><ele></ele><time>2014-10-10T14:43:19Z</time></trkpt>
<trkpt lat="46.1474037170410156" lon="7.2574601173400879"><ele></ele><time>2014-10-10T14:43:22Z</time></trkpt>
<trkpt lat="46.1475753784179688" lon="7.2582392692565918"><ele></ele><time>2014-10-10T14:43:25Z</time></trkpt>
<trkpt lat="46.1478424072265625" lon="7.2588992118835449"><ele></ele><time>2014-10-10T14:43:28Z</time></trkpt>
<trkpt lat="46.1480178833007812" lon="7.2595076560974121"><ele></ele><time>2014-10-10T14:43:31Z</time></trkpt>
<trkpt lat="46.1480903625488281" lon="7.2600922584533691"><ele></ele><time>2014-10-10T14:43:34Z</time></trkpt>
<trkpt lat="46.1481170654296875" lon="7.2606482505798340"><ele></ele><time>2014-10-10T14:43:37Z</time></trkpt>
<trkpt lat="46.1478767395019531" lon="7.2610993385314941"><ele></ele><time>2014-10-10T14:43:40Z</time></trkpt>
<trkpt lat="46.1477203369140625" lon="7.2612886428833008"><ele></ele><time>2014-10-10T14:43:43Z</time></trkpt>
<trkpt lat="46.1476058959960938" lon="7.2615423202514648"><ele></ele><time>2014-10-10T14:43:46Z</time></trkpt>
<trkpt lat="46.1474227905273438" lon="7.2620882987976074"><ele></ele><time>2014-10-10T14:43:49Z</time></trkpt>
<trkpt lat="46.1472663879394531" lon="7.2623195648193359"><ele></ele><time>2014-10-10T14:43:52Z</time></trkpt>
<trkpt lat="46.1470985412597656" lon="7.2624564170837402"><ele></ele><time>2014-10-10T14:43:55Z</time></trkpt>
<trkpt lat="46.1466598510742188" lon="7.2626352310180664"><ele></ele><time>2014-10-10T14:43:58Z</time></trkpt>
<trkpt lat="46.1462440490722656" lon="7.2629408836364746"><ele></ele><time>2014-10-10T14:44:1Z</time></trkpt>
<trkpt lat="46.1459274291992188" lon="7.2634773254394531"><ele></ele><time>2014-10-10T14:44:4Z</time></trkpt>
<trkpt lat="46.1455497741699219" lon="7.2638368606567383"><ele></ele><time>2014-10-10T14:44:7Z</time></trkpt>
<trkpt lat="46.1452598571777344" lon="7.2643628120422363"><ele></ele><time>2014-10-10T14:44:10Z</time></trkpt>
<trkpt lat="46.1450881958007812" lon="7.2646608352661133"><ele></ele><time>2014-10-10T14:44:13Z</time></trkpt>
<trkpt lat="46.1450920104980469" lon="7.2647228240966797"><ele></ele><time>2014-10-10T14:44:16Z</time></trkpt>
<trkpt lat="46.1451454162597656" lon="7.2650785446166992"><ele></ele><time>2014-10-10T14:44:19Z</time></trkpt>
<trkpt lat="46.1450767517089844" lon="7.2654004096984863"><ele></ele><time>2014-10-10T14:44:22Z</time></trkpt>
<trkpt lat="46.1454200744628906" lon="7.2658238410949707"><ele></ele><time>2014-10-10T14:44:25Z</time></trkpt>
<trkpt lat="46.1455459594726562" lon="7.2658782005310059"><ele></ele><time>2014-10-10T14:44:28Z</time></trkpt>
<trkpt lat="46.1456451416015625" lon="7.2658386230468750"><ele></ele><time>2014-10-10T14:44:31Z</time></trkpt>
<trkpt lat="46.1457061767578125" lon="7.2657198905944824"><ele></ele><time>2014-10-10T14:44:34Z</time></trkpt>
<trkpt lat="46.1458206176757812" lon="7.2649927139282227"><ele></ele><time>2014-10-10T14:44:37Z</time></trkpt>
<trkpt lat="46.1458473205566406" lon="7.2648983001708984"><ele></ele><time>2014-10-10T14:44:40Z</time></trkpt>
<trkpt lat="46.1461524963378906" lon="7.2644853591918945"><ele></ele><time>2014-10-10T14:44:43Z</time></trkpt>
<trkpt lat="46.1461906433105469" lon="7.2643847465515137"><ele></ele><time>2014-10-10T14:44:46Z</time></trkpt>
<trkpt lat="46.1464958190917969" lon="7.2643342018127441"><ele></ele><time>2014-10-10T14:44:49Z</time></trkpt>
<trkpt lat="46.1465339660644531" lon="7.2644062042236328"><ele></ele><time>2014-10-10T14:44:52Z</time></trkpt>
<trkpt lat="46.1462898254394531" lon="7.2646398544311523"><ele></ele><time>2014-10-10T14:44:55Z</time></trkpt>
<trkpt lat="46.1463203430175781" lon="7.2647390365600586"><ele></ele><time>2014-10-10T14:44:58Z</time></trkpt>
<trkpt lat="46.1466865539550781" lon="7.2645797729492188"><ele></ele><time>2014-10-10T14:45:1Z</time></trkpt>
<trkpt lat="46.1466636657714844" lon="7.2647418975830078"><ele></ele><time>2014-10-10T14:45:4Z</time></trkpt>
<trkpt lat="46.1463203430175781" lon="7.2651972770690918"><ele></ele><time>2014-10-10T14:45:7Z</time></trkpt>
<trkpt lat="46.1462326049804688" lon="7.2655968666076660"><ele></ele><time>2014-10-10T14:45:10Z</time></trkpt>
<trkpt lat="46.1462593078613281" lon="7.2656226158142090"><ele></ele><time>2014-10-10T14:45:13Z</time></trkpt>
<trkpt lat="46.1464996337890625" lon="7.2654380798339844"><ele></ele><time>2014-10-10T14:45:16Z</time></trkpt>
<trkpt lat="46.1465721130371094" lon="7.2655200958251953"><ele></ele><time>2014-10-10T14:45:19Z</time></trkpt>
<trkpt lat="46.1465339660644531" lon="7.2656693458557129"><ele></ele><time>2014-10-10T14:45:22Z</time></trkpt>
<trkpt lat="46.1461715698242188" lon="7.2658939361572266"><ele></ele><time>2014-10-10T14:45:25Z</time></trkpt>
<trkpt lat="46.1461524963378906" lon="7.2663307189941406"><ele></ele><time>2014-10-10T14:45:28Z</time></trkpt>
<trkpt lat="46.1461715698242188" lon="7.2669801712036133"><ele></ele><time>2014-10-10T14:45:31Z</time></trkpt>
<trkpt lat="46.1461524963378906" lon="7.2671937942504883"><ele></ele><time>2014-10-10T14:45:34Z</time></trkpt>
<trkpt lat="46.1462440490722656" lon="7.2671985626220703"><ele></ele><time>2014-10-10T14:45:37Z</time></trkpt>
<trkpt lat="46.1462898254394531" lon="7.2665114402770996"><ele></ele><time>2014-10-10T14:45:40Z</time></trkpt>
<trkpt lat="46.1463088989257812" lon="7.2663888931274414"><ele></ele><time>2014-10-10T14:45:43Z</time></trkpt>
<trkpt lat="46.1464157104492188" lon="7.2663149833679199"><ele></ele><time>2014-10-10T14:45:46Z</time></trkpt>
<trkpt lat="46.1467704772949219" lon="7.2664775848388672"><ele></ele><time>2014-10-10T14:45:49Z</time></trkpt>
<trkpt lat="46.1470146179199219" lon="7.2659354209899902"><ele></ele><time>2014-10-10T14:45:52Z</time></trkpt>
<trkpt lat="46.1471252441406250" lon="7.2656397819519043"><ele></ele><time>2014-10-10T14:45:55Z</time></trkpt>
<trkpt lat="46.1475715637207031" lon="7.2658128738403320"><ele></ele><time>2014-10-10T14:45:58Z</time></trkpt>
<trkpt lat="46.1480255126953125" lon="7.2658991813659668"><ele></ele><time>2014-10-10T14:46:1Z</time></trkpt>
<trkpt lat="46.1484718322753906" lon="7.2656583786010742"><ele></ele><time>2014-10-10T14:46:4Z</time></trkpt>
<trkpt lat="46.1488189697265625" lon="7.2652101516723633"><ele></ele><time>2014-10-10T14:46:7Z</time></trkpt>
<trkpt lat="46.1489486694335938" lon="7.2650313377380371"><ele></ele><time>2014-10-10T14:46:10Z</time></trkpt>
<trkpt lat="46.1490631103515625" lon="7.2648606300354004"><ele></ele><time>2014-10-10T14:46:13Z</time></trkpt>
<trkpt lat="46.1495323181152344" lon="7.2649459838867188"><ele></ele><time>2014-10-10T14:46:16Z</time></trkpt>
<trkpt lat="46.1497726440429688" lon="7.2648539543151855"><ele></ele><time>2014-10-10T14:46:19Z</time></trkpt>
<trkpt lat="46.1497993469238281" lon="7.2647557258605957"><ele></ele><time>2014-10-10T14:46:22Z</time></trkpt>
<trkpt lat="46.1502609252929688" lon="7.2647480964660645"><ele></ele><time>2014-10-10T14:46:25Z</time></trkpt>
<trkpt lat="46.1507301330566406" lon="7.2646398544311523"><ele></ele><time>2014-10-10T14:46:28Z</time></trkpt>
<trkpt lat="46.1511039733886719" lon="7.2647800445556641"><ele></ele><time>2014-10-10T14:46:31Z</time></trkpt>
<trkpt lat="46.1511154174804688" lon="7.2648720741271973"><ele></ele><time>2014-10-10T14:46:34Z</time></trkpt>
<trkpt lat="46.1506843566894531" lon="7.2650899887084961"><ele></ele><time>2014-10-10T14:46:37Z</time></trkpt>
<trkpt lat="46.1505241394042969" lon="7.2653098106384277"><ele></ele><time>2014-10-10T14:46:40Z</time></trkpt>
<trkpt lat="46.1505622863769531" lon="7.2653264999389648"><ele></ele><time>2014-10-10T14:46:43Z</time></trkpt>
<trkpt lat="46.1510162353515625" lon="7.2653145790100098"><ele></ele><time>2014-10-10T14:46:46Z</time></trkpt>
<trkpt lat="46.1513366699218750" lon="7.2651267051696777"><ele></ele><time>2014-10-10T14:46:49Z</time></trkpt>
<trkpt lat="46.1514778137207031" lon="7.2648882865905762"><ele></ele><time>2014-10-10T14:46:52Z</time></trkpt>
<trkpt lat="46.1518440246582031" lon="7.2645006179809570"><ele></ele><time>2014-10-10T14:46:55Z</time></trkpt>
<trkpt lat="46.1522941589355469" lon="7.2643694877624512"><ele></ele><time>2014-10-10T14:46:58Z</time></trkpt>
<trkpt lat="46.1526641845703125" lon="7.2647590637207031"><ele></ele><time>2014-10-10T14:47:1Z</time></trkpt>
<trkpt lat="46.1530761718750000" lon="7.2650556564331055"><ele></ele><time>2014-10-10T14:47:4Z</time></trkpt>
<trkpt lat="46.1534919738769531" lon="7.2653341293334961"><ele></ele><time>2014-10-10T14:47:7Z</time></trkpt>
<trkpt lat="46.1539230346679688" lon="7.2655496597290039"><ele></ele><time>2014-10-10T14:47:10Z</time></trkpt>
<trkpt lat="46.1543769836425781" lon="7.2655358314514160"><ele></ele><time>2014-10-10T14:47:13Z</time></trkpt>
<trkpt lat="46.1548500061035156" lon="7.2654666900634766"><ele></ele><time>2014-10-10T14:47:16Z</time></trkpt>
<trkpt lat="46.1552886962890625" lon="7.2656159400939941"><ele></ele><time>2014-10-10T14:47:19Z</time></trkpt>
<trkpt lat="46.1556053161621094" lon="7.2657923698425293"><ele></ele><time>2014-10-10T14:47:22Z</time></trkpt>
<trkpt lat="46.1555976867675781" lon="7.2658576965332031"><ele></ele><time>2014-10-10T14:47:25Z</time></trkpt>
<trkpt lat="46.1551475524902344" lon="7.2658281326293945"><ele></ele><time>2014-10-10T14:47:28Z</time></trkpt>
<trkpt lat="46.1547164916992188" lon="7.2661023139953613"><ele></ele><time>2014-10-10T14:47:31Z</time></trkpt>
<trkpt lat="46.1542663574218750" lon="7.2662777900695801"><ele></ele><time>2014-10-10T14:47:34Z</time></trkpt>
<trkpt lat="46.1539649963378906" lon="7.2662382125854492"><ele></ele><time>2014-10-10T14:47:37Z</time></trkpt>
<trkpt lat="46.1538047790527344" lon="7.2661647796630859"><ele></ele><time>2014-10-10T14:47:40Z</time></trkpt>
<trkpt lat="46.1533584594726562" lon="7.2662997245788574"><ele></ele><time>2014-10-10T14:47:43Z</time></trkpt>
<trkpt lat="46.1531105041503906" lon="7.2662887573242188"><ele></ele><time>2014-10-10T14:47:46Z</time></trkpt>
<trkpt lat="46.1526603698730469" lon="7.2661900520324707"><ele></ele><time>2014-10-10T14:47:49Z</time></trkpt>
<trkpt lat="46.1525726318359375" lon="7.2661762237548828"><ele></ele><time>2014-10-10T14:47:52Z</time></trkpt>
<trkpt lat="46.1525535583496094" lon="7.2662334442138672"><ele></ele><time>2014-10-10T14:47:55Z</time></trkpt>
<trkpt lat="46.1530113220214844" lon="7.2664279937744141"><ele></ele><time>2014-10-10T14:47:58Z</time></trkpt>
<trkpt lat="46.1535263061523438" lon="7.2665066719055176"><ele></ele><time>2014-10-10T14:48:1Z</time></trkpt>
<trkpt lat="46.1537780761718750" lon="7.2665305137634277"><ele></ele><time>2014-10-10T14:48:4Z</time></trkpt>
<trkpt lat="46.1541748046875000" lon="7.2667336463928223"><ele></ele><time>2014-10-10T14:48:7Z</time></trkpt>
<trkpt lat="46.1546516418457031" lon="7.2668094635009766"><ele></ele><time>2014-10-10T14:48:10Z</time></trkpt>
<trkpt lat="46.1551551818847656" lon="7.2667465209960938"><ele></ele><time>2014-10-10T14:48:13Z</time></trkpt>
<trkpt lat="46.1554679870605469" lon="7.2666873931884766"><ele></ele><time>2014-10-10T14:48:16Z</time></trkpt>
<trkpt lat="46.1556091308593750" lon="7.2667336463928223"><ele></ele><time>2014-10-10T14:48:19Z</time></trkpt>
<trkpt lat="46.1559333801269531" lon="7.2670073509216309"><ele></ele><time>2014-10-10T14:48:22Z</time></trkpt>
<trkpt lat="46.1561622619628906" lon="7.2671852111816406"><ele></ele><time>2014-10-10T14:48:25Z</time></trkpt>
<trkpt lat="46.1563339233398438" lon="7.2673773765563965"><ele></ele><time>2014-10-10T14:48:28Z</time></trkpt>
<trkpt lat="46.1566047668457031" lon="7.2675209045410156"><ele></ele><time>2014-10-10T14:48:31Z</time></trkpt>
<trkpt lat="46.1566696166992188" lon="7.2675313949584961"><ele></ele><time>2014-10-10T14:48:34Z</time></trkpt>
<trkpt lat="46.1567306518554688" lon="7.2674999237060547"><ele></ele><time>2014-10-10T14:48:37Z</time></trkpt>
<trkpt lat="46.1567916870117188" lon="7.2673687934875488"><ele></ele><time>2014-10-10T14:48:40Z</time></trkpt>
<trkpt lat="46.1568069458007812" lon="7.2666897773742676"><ele></ele><time>2014-10-10T14:48:43Z</time></trkpt>
<trkpt lat="46.1567726135253906" lon="7.2659220695495605"><ele></ele><time>2014-10-10T14:48:46Z</time></trkpt>
<trkpt lat="46.1567687988281250" lon="7.2652540206909180"><ele></ele><time>2014-10-10T14:48:49Z</time></trkpt>
<trkpt lat="46.1567306518554688" lon="7.2645459175109863"><ele></ele><time>2014-10-10T14:48:52Z</time></trkpt>
<trkpt lat="46.1565971374511719" lon="7.2638645172119141"><ele></ele><time>2014-10-10T14:48:55Z</time></trkpt>
<trkpt lat="46.1564674377441406" lon="7.2633872032165527"><ele></ele><time>2014-10-10T14:48:58Z</time></trkpt>
<trkpt lat="46.1564598083496094" lon="7.2632756233215332"><ele></ele><time>2014-10-10T14:49:1Z</time></trkpt>
<trkpt lat="46.1564865112304688" lon="7.2632036209106445"><ele></ele><time>2014-10-10T14:49:4Z</time></trkpt>
<trkpt lat="46.1569213867187500" lon="7.2628231048583984"><ele></ele><time>2014-10-10T14:49:7Z</time></trkpt>
<trkpt lat="46.1570472717285156" lon="7.2627158164978027"><ele></ele><time>2014-10-10T14:49:10Z</time></trkpt>
<trkpt lat="46.1574440002441406" lon="7.2626156806945801"><ele></ele><time>2014-10-10T14:49:13Z</time></trkpt>
<trkpt lat="46.1577606201171875" lon="7.2624192237854004"><ele></ele><time>2014-10-10T14:49:16Z</time></trkpt>
<trkpt lat="46.1578102111816406" lon="7.2623300552368164"><ele></ele><time>2014-10-10T14:49:19Z</time></trkpt>
<trkpt lat="46.1578330993652344" lon="7.2622098922729492"><ele></ele><time>2014-10-10T14:49:22Z</time></trkpt>
<trkpt lat="46.1578102111816406" lon="7.2619709968566895"><ele></ele><time>2014-10-10T14:49:25Z</time></trkpt>
<trkpt lat="46.1579627990722656" lon="7.2613077163696289"><ele></ele><time>2014-10-10T14:49:28Z</time></trkpt>
<trkpt lat="46.1580276489257812" lon="7.2609467506408691"><ele></ele><time>2014-10-10T14:49:31Z</time></trkpt>
<trkpt lat="46.1582679748535156" lon="7.2604994773864746"><ele></ele><time>2014-10-10T14:49:34Z</time></trkpt>
<trkpt lat="46.1583213806152344" lon="7.2601790428161621"><ele></ele><time>2014-10-10T14:49:37Z</time></trkpt>
<trkpt lat="46.1582260131835938" lon="7.2595157623291016"><ele></ele><time>2014-10-10T14:49:40Z</time></trkpt>
<trkpt lat="46.1582107543945312" lon="7.2591004371643066"><ele></ele><time>2014-10-10T14:49:43Z</time></trkpt>
<trkpt lat="46.1583175659179688" lon="7.2585568428039551"><ele></ele><time>2014-10-10T14:49:46Z</time></trkpt>
<trkpt lat="46.1585083007812500" lon="7.2581562995910645"><ele></ele><time>2014-10-10T14:49:49Z</time></trkpt>
<trkpt lat="46.1586761474609375" lon="7.2579846382141113"><ele></ele><time>2014-10-10T14:49:52Z</time></trkpt>
<trkpt lat="46.1587066650390625" lon="7.2579231262207031"><ele></ele><time>2014-10-10T14:49:55Z</time></trkpt>
<trkpt lat="46.1589660644531250" lon="7.2576799392700195"><ele></ele><time>2014-10-10T14:49:58Z</time></trkpt>
<trkpt lat="46.1589889526367188" lon="7.2576069831848145"><ele></ele><time>2014-10-10T14:50:1Z</time></trkpt>
<trkpt lat="46.1590576171875000" lon="7.2575139999389648"><ele></ele><time>2014-10-10T14:50:4Z</time></trkpt>
<trkpt lat="46.1591758728027344" lon="7.2572035789489746"><ele></ele><time>2014-10-10T14:50:7Z</time></trkpt>
<trkpt lat="46.1592636108398438" lon="7.2570457458496094"><ele></ele><time>2014-10-10T14:50:10Z</time></trkpt>
<trkpt lat="46.1595649719238281" lon="7.2569336891174316"><ele></ele><time>2014-10-10T14:50:13Z</time></trkpt>
<trkpt lat="46.1599273681640625" lon="7.2564806938171387"><ele></ele><time>2014-10-10T14:50:16Z</time></trkpt>
<trkpt lat="46.1603202819824219" lon="7.2561421394348145"><ele></ele><time>2014-10-10T14:50:19Z</time></trkpt>
<trkpt lat="46.1607398986816406" lon="7.2558298110961914"><ele></ele><time>2014-10-10T14:50:22Z</time></trkpt>
<trkpt lat="46.1611595153808594" lon="7.2553954124450684"><ele></ele><time>2014-10-10T14:50:25Z</time></trkpt>
<trkpt lat="46.1615791320800781" lon="7.2550535202026367"><ele></ele><time>2014-10-10T14:50:28Z</time></trkpt>
<trkpt lat="46.1619758605957031" lon="7.2547326087951660"><ele></ele><time>2014-10-10T14:50:31Z</time></trkpt>
<trkpt lat="46.1621856689453125" lon="7.2544946670532227"><ele></ele><time>2014-10-10T14:50:34Z</time></trkpt>
<trkpt lat="46.1626396179199219" lon="7.2542586326599121"><ele></ele><time>2014-10-10T14:50:37Z</time></trkpt>
<trkpt lat="46.1631088256835938" lon="7.2541441917419434"><ele></ele><time>2014-10-10T14:50:40Z</time></trkpt>
<trkpt lat="46.1636161804199219" lon="7.2539873123168945"><ele></ele><time>2014-10-10T14:50:43Z</time></trkpt>
<trkpt lat="46.1640739440917969" lon="7.2538399696350098"><ele></ele><time>2014-10-10T14:50:46Z</time></trkpt>
<trkpt lat="46.1644935607910156" lon="7.2536478042602539"><ele></ele><time>2014-10-10T14:50:49Z</time></trkpt>
<trkpt lat="46.1648979187011719" lon="7.2535448074340820"><ele></ele><time>2014-10-10T14:50:52Z</time></trkpt>
<trkpt lat="46.1650390625000000" lon="7.2533411979675293"><ele></ele><time>2014-10-10T14:50:55Z</time></trkpt>
<trkpt lat="46.1651420593261719" lon="7.2530741691589355"><ele></ele><time>2014-10-10T14:50:58Z</time></trkpt>
<trkpt lat="46.1652145385742188" lon="7.2529621124267578"><ele></ele><time>2014-10-10T14:51:1Z</time></trkpt>
<trkpt lat="46.1653976440429688" lon="7.2528605461120605"><ele></ele><time>2014-10-10T14:51:4Z</time></trkpt>
<trkpt lat="46.1655921936035156" lon="7.2528390884399414"><ele></ele><time>2014-10-10T14:51:7Z</time></trkpt>
<trkpt lat="46.1660385131835938" lon="7.2530908584594727"><ele></ele><time>2014-10-10T14:51:10Z</time></trkpt>
<trkpt lat="46.1661949157714844" lon="7.2532243728637695"><ele></ele><time>2014-10-10T14:51:13Z</time></trkpt>
<trkpt lat="46.1666603088378906" lon="7.2534103393554688"><ele></ele><time>2014-10-10T14:51:16Z</time></trkpt>
<trkpt lat="46.1671295166015625" lon="7.2537994384765625"><ele></ele><time>2014-10-10T14:51:19Z</time></trkpt>
<trkpt lat="46.1675720214843750" lon="7.2542219161987305"><ele></ele><time>2014-10-10T14:51:22Z</time></trkpt>
<trkpt lat="46.1679916381835938" lon="7.2547340393066406"><ele></ele><time>2014-10-10T14:51:25Z</time></trkpt>
<trkpt lat="46.1683311462402344" lon="7.2551922798156738"><ele></ele><time>2014-10-10T14:51:28Z</time></trkpt>
<trkpt lat="46.1686058044433594" lon="7.2555255889892578"><ele></ele><time>2014-10-10T14:51:31Z</time></trkpt>
<trkpt lat="46.1687088012695312" lon="7.2555913925170898"><ele></ele><time>2014-10-10T14:51:34Z</time></trkpt>
<trkpt lat="46.1688728332519531" lon="7.2558336257934570"><ele></ele><time>2014-10-10T14:51:37Z</time></trkpt>
<trkpt lat="46.1691589355468750" lon="7.2563905715942383"><ele></ele><time>2014-10-10T14:51:40Z</time></trkpt>
<trkpt lat="46.1695022583007812" lon="7.2569813728332520"><ele></ele><time>2014-10-10T14:51:43Z</time></trkpt>
<trkpt lat="46.1696739196777344" lon="7.2572879791259766"><ele></ele><time>2014-10-10T14:51:46Z</time></trkpt>
<trkpt lat="46.1699790954589844" lon="7.2579898834228516"><ele></ele><time>2014-10-10T14:51:49Z</time></trkpt>
<trkpt lat="46.1702575683593750" lon="7.2586860656738281"><ele></ele><time>2014-10-10T14:51:52Z</time></trkpt>
<trkpt lat="46.1704902648925781" lon="7.2594103813171387"><ele></ele><time>2014-10-10T14:51:55Z</time></trkpt>
<trkpt lat="46.1706085205078125" lon="7.2600665092468262"><ele></ele><time>2014-10-10T14:51:58Z</time></trkpt>
<trkpt lat="46.1706886291503906" lon="7.2603635787963867"><ele></ele><time>2014-10-10T14:52:1Z</time></trkpt>
<trkpt lat="46.1707916259765625" lon="7.2610363960266113"><ele></ele><time>2014-10-10T14:52:4Z</time></trkpt>
<trkpt lat="46.1709747314453125" lon="7.2616629600524902"><ele></ele><time>2014-10-10T14:52:7Z</time></trkpt>
<trkpt lat="46.1710891723632812" lon="7.2620000839233398"><ele></ele><time>2014-10-10T14:52:10Z</time></trkpt>
<trkpt lat="46.1712341308593750" lon="7.2622585296630859"><ele></ele><time>2014-10-10T14:52:13Z</time></trkpt>
<trkpt lat="46.1714820861816406" lon="7.2628669738769531"><ele></ele><time>2014-10-10T14:52:16Z</time></trkpt>
<trkpt lat="46.1716232299804688" lon="7.2632184028625488"><ele></ele><time>2014-10-10T14:52:19Z</time></trkpt>
<trkpt lat="46.1718215942382812" lon="7.2635111808776855"><ele></ele><time>2014-10-10T14:52:22Z</time></trkpt>
<trkpt lat="46.1719818115234375" lon="7.2641620635986328"><ele></ele><time>2014-10-10T14:52:25Z</time></trkpt>
<trkpt lat="46.1722450256347656" lon="7.2647457122802734"><ele></ele><time>2014-10-10T14:52:28Z</time></trkpt>
<trkpt lat="46.1724395751953125" lon="7.2653198242187500"><ele></ele><time>2014-10-10T14:52:31Z</time></trkpt>
<trkpt lat="46.1724624633789062" lon="7.2655749320983887"><ele></ele><time>2014-10-10T14:52:34Z</time></trkpt>
<trkpt lat="46.1726722717285156" lon="7.2658591270446777"><ele></ele><time>2014-10-10T14:52:37Z</time></trkpt>
<trkpt lat="46.1726150512695312" lon="7.2665028572082520"><ele></ele><time>2014-10-10T14:52:40Z</time></trkpt>
<trkpt lat="46.1726264953613281" lon="7.2671957015991211"><ele></ele><time>2014-10-10T14:52:43Z</time></trkpt>
<trkpt lat="46.1727256774902344" lon="7.2678632736206055"><ele></ele><time>2014-10-10T14:52:46Z</time></trkpt>
<trkpt lat="46.1727256774902344" lon="7.2685360908508301"><ele></ele><time>2014-10-10T14:52:49Z</time></trkpt>
<trkpt lat="46.1728057861328125" lon="7.2691926956176758"><ele></ele><time>2014-10-10T14:52:52Z</time></trkpt>
<trkpt lat="46.1726417541503906" lon="7.2698245048522949"><ele></ele><time>2014-10-10T14:52:55Z</time></trkpt>
<trkpt lat="46.1725006103515625" lon="7.2701349258422852"><ele></ele><time>2014-10-10T14:52:58Z</time></trkpt>
<trkpt lat="46.1726417541503906" lon="7.2707843780517578"><ele></ele><time>2014-10-10T14:53:1Z</time></trkpt>
<trkpt lat="46.1725959777832031" lon="7.2714295387268066"><ele></ele><time>2014-10-10T14:53:4Z</time></trkpt>
<trkpt lat="46.1725387573242188" lon="7.2721037864685059"><ele></ele><time>2014-10-10T14:53:7Z</time></trkpt>
<trkpt lat="46.1726036071777344" lon="7.2727460861206055"><ele></ele><time>2014-10-10T14:53:10Z</time></trkpt>
<trkpt lat="46.1726760864257812" lon="7.2734103202819824"><ele></ele><time>2014-10-10T14:53:13Z</time></trkpt>
<trkpt lat="46.1726646423339844" lon="7.2740578651428223"><ele></ele><time>2014-10-10T14:53:16Z</time></trkpt>
<trkpt lat="46.1727981567382812" lon="7.2746987342834473"><ele></ele><time>2014-10-10T14:53:19Z</time></trkpt>
<trkpt lat="46.1729316711425781" lon="7.2753210067749023"><ele></ele><time>2014-10-10T14:53:22Z</time></trkpt>
<trkpt lat="46.1730270385742188" lon="7.2759532928466797"><ele></ele><time>2014-10-10T14:53:25Z</time></trkpt>
<trkpt lat="46.1728782653808594" lon="7.2765922546386719"><ele></ele><time>2014-10-10T14:53:28Z</time></trkpt>
<trkpt lat="46.1728172302246094" lon="7.2772350311279297"><ele></ele><time>2014-10-10T14:53:31Z</time></trkpt>
<trkpt lat="46.1730003356933594" lon="7.2778415679931641"><ele></ele><time>2014-10-10T14:53:34Z</time></trkpt>
<trkpt lat="46.1730651855468750" lon="7.2783703804016113"><ele></ele><time>2014-10-10T14:53:37Z</time></trkpt>
<trkpt lat="46.1728439331054688" lon="7.2789530754089355"><ele></ele><time>2014-10-10T14:53:40Z</time></trkpt>
<trkpt lat="46.1728363037109375" lon="7.2796378135681152"><ele></ele><time>2014-10-10T14:53:43Z</time></trkpt>
<trkpt lat="46.1726875305175781" lon="7.2802782058715820"><ele></ele><time>2014-10-10T14:53:46Z</time></trkpt>
<trkpt lat="46.1727714538574219" lon="7.2809476852416992"><ele></ele><time>2014-10-10T14:53:49Z</time></trkpt>
<trkpt lat="46.1729049682617188" lon="7.2815976142883301"><ele></ele><time>2014-10-10T14:53:52Z</time></trkpt>
<trkpt lat="46.1725807189941406" lon="7.2820992469787598"><ele></ele><time>2014-10-10T14:53:55Z</time></trkpt>
<trkpt lat="46.1721916198730469" lon="7.2824697494506836"><ele></ele><time>2014-10-10T14:53:58Z</time></trkpt>
<trkpt lat="46.1718978881835938" lon="7.2829670906066895"><ele></ele><time>2014-10-10T14:54:1Z</time></trkpt>
<trkpt lat="46.1716918945312500" lon="7.2835655212402344"><ele></ele><time>2014-10-10T14:54:4Z</time></trkpt>
<trkpt lat="46.1716079711914062" lon="7.2842035293579102"><ele></ele><time>2014-10-10T14:54:7Z</time></trkpt>
<trkpt lat="46.1717071533203125" lon="7.2848415374755859"><ele></ele><time>2014-10-10T14:54:10Z</time></trkpt>
<trkpt lat="46.1718330383300781" lon="7.2854814529418945"><ele></ele><time>2014-10-10T14:54:13Z</time></trkpt>
<trkpt lat="46.1717910766601562" lon="7.2861433029174805"><ele></ele><time>2014-10-10T14:54:16Z</time></trkpt>
<trkpt lat="46.1716270446777344" lon="7.2867836952209473"><ele></ele><time>2014-10-10T14:54:19Z</time></trkpt>
<trkpt lat="46.1716423034667969" lon="7.2874493598937988"><ele></ele><time>2014-10-10T14:54:22Z</time></trkpt>
<trkpt lat="46.1714973449707031" lon="7.2880673408508301"><ele></ele><time>2014-10-10T14:54:25Z</time></trkpt>
<trkpt lat="46.1713371276855469" lon="7.2884140014648438"><ele></ele><time>2014-10-10T14:54:28Z</time></trkpt>
<trkpt lat="46.1713676452636719" lon="7.2890605926513672"><ele></ele><time>2014-10-10T14:54:31Z</time></trkpt>
<trkpt lat="46.1715011596679688" lon="7.2897033691406250"><ele></ele><time>2014-10-10T14:54:34Z</time></trkpt>
<trkpt lat="46.1716461181640625" lon="7.2903223037719727"><ele></ele><time>2014-10-10T14:54:37Z</time></trkpt>
<trkpt lat="46.1717338562011719" lon="7.2909669876098633"><ele></ele><time>2014-10-10T14:54:40Z</time></trkpt>
<trkpt lat="46.1719017028808594" lon="7.2915911674499512"><ele></ele><time>2014-10-10T14:54:43Z</time></trkpt>
<trkpt lat="46.1719474792480469" lon="7.2919611930847168"><ele></ele><time>2014-10-10T14:54:46Z</time></trkpt>
<trkpt lat="46.1720046997070312" lon="7.2921795845031738"><ele></ele><time>2014-10-10T14:54:49Z</time></trkpt>
<trkpt lat="46.1722297668457031" lon="7.2925400733947754"><ele></ele><time>2014-10-10T14:54:52Z</time></trkpt>
<trkpt lat="46.1724662780761719" lon="7.2932085990905762"><ele></ele><time>2014-10-10T14:54:55Z</time></trkpt>
<trkpt lat="46.1726303100585938" lon="7.2938365936279297"><ele></ele><time>2014-10-10T14:54:58Z</time></trkpt>
<trkpt lat="46.1727180480957031" lon="7.2943649291992188"><ele></ele><time>2014-10-10T14:55:1Z</time></trkpt>
<trkpt lat="46.1727905273437500" lon="7.2950501441955566"><ele></ele><time>2014-10-10T14:55:4Z</time></trkpt>
<trkpt lat="46.1728248596191406" lon="7.2952237129211426"><ele></ele><time>2014-10-10T14:55:7Z</time></trkpt>
<trkpt lat="46.1729507446289062" lon="7.2955565452575684"><ele></ele><time>2014-10-10T14:55:10Z</time></trkpt>
<trkpt lat="46.1730232238769531" lon="7.2959046363830566"><ele></ele><time>2014-10-10T14:55:13Z</time></trkpt>
<trkpt lat="46.1730155944824219" lon="7.2966327667236328"><ele></ele><time>2014-10-10T14:55:16Z</time></trkpt>
<trkpt lat="46.1729888916015625" lon="7.2973427772521973"><ele></ele><time>2014-10-10T14:55:19Z</time></trkpt>
<trkpt lat="46.1729087829589844" lon="7.2980356216430664"><ele></ele><time>2014-10-10T14:55:22Z</time></trkpt>
<trkpt lat="46.1728897094726562" lon="7.2984647750854492"><ele></ele><time>2014-10-10T14:55:25Z</time></trkpt>
<trkpt lat="46.1729011535644531" lon="7.2986803054809570"><ele></ele><time>2014-10-10T14:55:28Z</time></trkpt>
<trkpt lat="46.1728477478027344" lon="7.2989311218261719"><ele></ele><time>2014-10-10T14:55:31Z</time></trkpt>
<trkpt lat="46.1725425720214844" lon="7.2995004653930664"><ele></ele><time>2014-10-10T14:55:34Z</time></trkpt>
<trkpt lat="46.1721534729003906" lon="7.2998671531677246"><ele></ele><time>2014-10-10T14:55:37Z</time></trkpt>
<trkpt lat="46.1717414855957031" lon="7.3003683090209961"><ele></ele><time>2014-10-10T14:55:40Z</time></trkpt>
<trkpt lat="46.1716194152832031" lon="7.3006172180175781"><ele></ele><time>2014-10-10T14:55:43Z</time></trkpt>
<trkpt lat="46.1715583801269531" lon="7.3013792037963867"><ele></ele><time>2014-10-10T14:55:46Z</time></trkpt>
<trkpt lat="46.1715393066406250" lon="7.3016529083251953"><ele></ele><time>2014-10-10T14:55:49Z</time></trkpt>
<trkpt lat="46.1714363098144531" lon="7.3019952774047852"><ele></ele><time>2014-10-10T14:55:52Z</time></trkpt>
<trkpt lat="46.1711578369140625" lon="7.3026094436645508"><ele></ele><time>2014-10-10T14:55:55Z</time></trkpt>
<trkpt lat="46.1709442138671875" lon="7.3032984733581543"><ele></ele><time>2014-10-10T14:55:58Z</time></trkpt>
<trkpt lat="46.1706542968750000" lon="7.3039026260375977"><ele></ele><time>2014-10-10T14:56:1Z</time></trkpt>
<trkpt lat="46.1703720092773438" lon="7.3043899536132812"><ele></ele><time>2014-10-10T14:56:4Z</time></trkpt>
<trkpt lat="46.1703071594238281" lon="7.3045730590820312"><ele></ele><time>2014-10-10T14:56:7Z</time></trkpt>
<trkpt lat="46.1700172424316406" lon="7.3050222396850586"><ele></ele><time>2014-10-10T14:56:10Z</time></trkpt>
<trkpt lat="46.1698989868164062" lon="7.3051357269287109"><ele></ele><time>2014-10-10T14:56:13Z</time></trkpt>
<trkpt lat="46.1697387695312500" lon="7.3054199218750000"><ele></ele><time>2014-10-10T14:56:16Z</time></trkpt>
<trkpt lat="46.1696434020996094" lon="7.3055377006530762"><ele></ele><time>2014-10-10T14:56:19Z</time></trkpt>
<trkpt lat="46.1694183349609375" lon="7.3056607246398926"><ele></ele><time>2014-10-10T14:56:22Z</time></trkpt>
<trkpt lat="46.1693077087402344" lon="7.3056883811950684"><ele></ele><time>2014-10-10T14:56:25Z</time></trkpt>
<trkpt lat="46.1689643859863281" lon="7.3056874275207520"><ele></ele><time>2014-10-10T14:56:28Z</time></trkpt>
<trkpt lat="46.1688270568847656" lon="7.3058390617370605"><ele></ele><time>2014-10-10T14:56:31Z</time></trkpt>
<trkpt lat="46.1686973571777344" lon="7.3059549331665039"><ele></ele><time>2014-10-10T14:56:34Z</time></trkpt>
<trkpt lat="46.1686286926269531" lon="7.3060731887817383"><ele></ele><time>2014-10-10T14:56:37Z</time></trkpt>
<trkpt lat="46.1681747436523438" lon="7.3062481880187988"><ele></ele><time>2014-10-10T14:56:40Z</time></trkpt>
<trkpt lat="46.1679801940917969" lon="7.3063206672668457"><ele></ele><time>2014-10-10T14:56:43Z</time></trkpt>
<trkpt lat="46.1678352355957031" lon="7.3064579963684082"><ele></ele><time>2014-10-10T14:56:46Z</time></trkpt>
<trkpt lat="46.1676406860351562" lon="7.3067426681518555"><ele></ele><time>2014-10-10T14:56:49Z</time></trkpt>
<trkpt lat="46.1675643920898438" lon="7.3069677352905273"><ele></ele><time>2014-10-10T14:56:52Z</time></trkpt>
<trkpt lat="46.1672325134277344" lon="7.3075003623962402"><ele></ele><time>2014-10-10T14:56:55Z</time></trkpt>
<trkpt lat="46.1669425964355469" lon="7.3077678680419922"><ele></ele><time>2014-10-10T14:56:58Z</time></trkpt>
<trkpt lat="46.1668548583984375" lon="7.3080253601074219"><ele></ele><time>2014-10-10T14:57:1Z</time></trkpt>
<trkpt lat="46.1668014526367188" lon="7.3083963394165039"><ele></ele><time>2014-10-10T14:57:4Z</time></trkpt>
<trkpt lat="46.1664543151855469" lon="7.3088674545288086"><ele></ele><time>2014-10-10T14:57:7Z</time></trkpt>
<trkpt lat="46.1660041809082031" lon="7.3091731071472168"><ele></ele><time>2014-10-10T14:57:10Z</time></trkpt>
<trkpt lat="46.1657218933105469" lon="7.3093276023864746"><ele></ele><time>2014-10-10T14:57:13Z</time></trkpt>
<trkpt lat="46.1652717590332031" lon="7.3092813491821289"><ele></ele><time>2014-10-10T14:57:16Z</time></trkpt>
<trkpt lat="46.1650238037109375" lon="7.3093461990356445"><ele></ele><time>2014-10-10T14:57:19Z</time></trkpt>
<trkpt lat="46.1646614074707031" lon="7.3097229003906250"><ele></ele><time>2014-10-10T14:57:22Z</time></trkpt>
<trkpt lat="46.1642036437988281" lon="7.3096303939819336"><ele></ele><time>2014-10-10T14:57:25Z</time></trkpt>
<trkpt lat="46.1639747619628906" lon="7.3095054626464844"><ele></ele><time>2014-10-10T14:57:28Z</time></trkpt>
<trkpt lat="46.1636695861816406" lon="7.3094949722290039"><ele></ele><time>2014-10-10T14:57:31Z</time></trkpt>
<trkpt lat="46.1633796691894531" lon="7.3093719482421875"><ele></ele><time>2014-10-10T14:57:34Z</time></trkpt>
<trkpt lat="46.1629524230957031" lon="7.3094239234924316"><ele></ele><time>2014-10-10T14:57:37Z</time></trkpt>
<trkpt lat="46.1626167297363281" lon="7.3092851638793945"><ele></ele><time>2014-10-10T14:57:40Z</time></trkpt>
<trkpt lat="46.1624984741210938" lon="7.3092870712280273"><ele></ele><time>2014-10-10T14:57:43Z</time></trkpt>
<trkpt lat="46.1622772216796875" lon="7.3093996047973633"><ele></ele><time>2014-10-10T14:57:46Z</time></trkpt>
<trkpt lat="46.1618270874023438" lon="7.3097715377807617"><ele></ele><time>2014-10-10T14:57:49Z</time></trkpt>
<trkpt lat="46.1616554260253906" lon="7.3099408149719238"><ele></ele><time>2014-10-10T14:57:52Z</time></trkpt>
<trkpt lat="46.1614875793457031" lon="7.3101472854614258"><ele></ele><time>2014-10-10T14:57:55Z</time></trkpt>
<trkpt lat="46.1610603332519531" lon="7.3104109764099121"><ele></ele><time>2014-10-10T14:57:58Z</time></trkpt>
<trkpt lat="46.1605873107910156" lon="7.3106737136840820"><ele></ele><time>2014-10-10T14:58:1Z</time></trkpt>
<trkpt lat="46.1603622436523438" lon="7.3108072280883789"><ele></ele><time>2014-10-10T14:58:4Z</time></trkpt>
<trkpt lat="46.1599006652832031" lon="7.3112516403198242"><ele></ele><time>2014-10-10T14:58:7Z</time></trkpt>
<trkpt lat="46.1594696044921875" lon="7.3117947578430176"><ele></ele><time>2014-10-10T14:58:10Z</time></trkpt>
<trkpt lat="46.1592750549316406" lon="7.3120059967041016"><ele></ele><time>2014-10-10T14:58:13Z</time></trkpt>
<trkpt lat="46.1589164733886719" lon="7.3121571540832520"><ele></ele><time>2014-10-10T14:58:16Z</time></trkpt>
<trkpt lat="46.1583557128906250" lon="7.3122119903564453"><ele></ele><time>2014-10-10T14:58:19Z</time></trkpt>
<trkpt lat="46.1580924987792969" lon="7.3123536109924316"><ele></ele><time>2014-10-10T14:58:22Z</time></trkpt>
<trkpt lat="46.1577339172363281" lon="7.3127140998840332"><ele></ele><time>2014-10-10T14:58:25Z</time></trkpt>
<trkpt lat="46.1573600769042969" lon="7.3132691383361816"><ele></ele><time>2014-10-10T14:58:28Z</time></trkpt>
<trkpt lat="46.1571884155273438" lon="7.3134732246398926"><ele></ele><time>2014-10-10T14:58:31Z</time></trkpt>
<trkpt lat="46.1568794250488281" lon="7.3136901855468750"><ele></ele><time>2014-10-10T14:58:34Z</time></trkpt>
<trkpt lat="46.1563682556152344" lon="7.3138465881347656"><ele></ele><time>2014-10-10T14:58:37Z</time></trkpt>
<trkpt lat="46.1558837890625000" lon="7.3141012191772461"><ele></ele><time>2014-10-10T14:58:40Z</time></trkpt>
<trkpt lat="46.1553993225097656" lon="7.3144187927246094"><ele></ele><time>2014-10-10T14:58:43Z</time></trkpt>
<trkpt lat="46.1549911499023438" lon="7.3147106170654297"><ele></ele><time>2014-10-10T14:58:46Z</time></trkpt>
<trkpt lat="46.1546897888183594" lon="7.3148245811462402"><ele></ele><time>2014-10-10T14:58:49Z</time></trkpt>
<trkpt lat="46.1542053222656250" lon="7.3146429061889648"><ele></ele><time>2014-10-10T14:58:52Z</time></trkpt>
<trkpt lat="46.1537284851074219" lon="7.3147196769714355"><ele></ele><time>2014-10-10T14:58:55Z</time></trkpt>
<trkpt lat="46.1534957885742188" lon="7.3148159980773926"><ele></ele><time>2014-10-10T14:58:58Z</time></trkpt>
<trkpt lat="46.1531753540039062" lon="7.3148055076599121"><ele></ele><time>2014-10-10T14:59:1Z</time></trkpt>
<trkpt lat="46.1527404785156250" lon="7.3150939941406250"><ele></ele><time>2014-10-10T14:59:4Z</time></trkpt>
<trkpt lat="46.1523971557617188" lon="7.3153028488159180"><ele></ele><time>2014-10-10T14:59:7Z</time></trkpt>
<trkpt lat="46.1519470214843750" lon="7.3153014183044434"><ele></ele><time>2014-10-10T14:59:10Z</time></trkpt>
<trkpt lat="46.1515541076660156" lon="7.3152623176574707"><ele></ele><time>2014-10-10T14:59:13Z</time></trkpt>
<trkpt lat="46.1515159606933594" lon="7.3152284622192383"><ele></ele><time>2014-10-10T14:59:16Z</time></trkpt>
<trkpt lat="46.1510696411132812" lon="7.3151359558105469"><ele></ele><time>2014-10-10T14:59:19Z</time></trkpt>
<trkpt lat="46.1505889892578125" lon="7.3151450157165527"><ele></ele><time>2014-10-10T14:59:22Z</time></trkpt>
<trkpt lat="46.1501693725585938" lon="7.3154492378234863"><ele></ele><time>2014-10-10T14:59:25Z</time></trkpt>
<trkpt lat="46.1498184204101562" lon="7.3158693313598633"><ele></ele><time>2014-10-10T14:59:28Z</time></trkpt>
<trkpt lat="46.1496658325195312" lon="7.3160929679870605"><ele></ele><time>2014-10-10T14:59:31Z</time></trkpt>
<trkpt lat="46.1491699218750000" lon="7.3163628578186035"><ele></ele><time>2014-10-10T14:59:34Z</time></trkpt>
<trkpt lat="46.1486740112304688" lon="7.3165936470031738"><ele></ele><time>2014-10-10T14:59:37Z</time></trkpt>
<trkpt lat="46.1481552124023438" lon="7.3168354034423828"><ele></ele><time>2014-10-10T14:59:40Z</time></trkpt>
<trkpt lat="46.1478691101074219" lon="7.3169627189636230"><ele></ele><time>2014-10-10T14:59:43Z</time></trkpt>
<trkpt lat="46.1473960876464844" lon="7.3170733451843262"><ele></ele><time>2014-10-10T14:59:46Z</time></trkpt>
<trkpt lat="46.1472015380859375" lon="7.3171420097351074"><ele></ele><time>2014-10-10T14:59:49Z</time></trkpt>
<trkpt lat="46.1471710205078125" lon="7.3172760009765625"><ele></ele><time>2014-10-10T14:59:52Z</time></trkpt>
<trkpt lat="46.1471214294433594" lon="7.3173694610595703"><ele></ele><time>2014-10-10T14:59:55Z</time></trkpt>
<trkpt lat="46.1471328735351562" lon="7.3174762725830078"><ele></ele><time>2014-10-10T14:59:58Z</time></trkpt>
<trkpt lat="46.1471176147460938" lon="7.3175764083862305"><ele></ele><time>2014-10-10T15:0:1Z</time></trkpt>
<trkpt lat="46.1472549438476562" lon="7.3176102638244629"><ele></ele><time>2014-10-10T15:0:4Z</time></trkpt>
<trkpt lat="46.1477470397949219" lon="7.3178811073303223"><ele></ele><time>2014-10-10T15:0:7Z</time></trkpt>
<trkpt lat="46.1482086181640625" lon="7.3180656433105469"><ele></ele><time>2014-10-10T15:0:10Z</time></trkpt>
<trkpt lat="46.1486663818359375" lon="7.3181996345520020"><ele></ele><time>2014-10-10T15:0:13Z</time></trkpt>
<trkpt lat="46.1490974426269531" lon="7.3184914588928223"><ele></ele><time>2014-10-10T15:0:16Z</time></trkpt>
<trkpt lat="46.1492729187011719" lon="7.3185915946960449"><ele></ele><time>2014-10-10T15:0:19Z</time></trkpt>
<trkpt lat="46.1494560241699219" lon="7.3186135292053223"><ele></ele><time>2014-10-10T15:0:22Z</time></trkpt>
<trkpt lat="46.1499404907226562" lon="7.3183364868164062"><ele></ele><time>2014-10-10T15:0:25Z</time></trkpt>
<trkpt lat="46.1503829956054688" lon="7.3181304931640625"><ele></ele><time>2014-10-10T15:0:28Z</time></trkpt>
<trkpt lat="46.1508331298828125" lon="7.3179459571838379"><ele></ele><time>2014-10-10T15:0:31Z</time></trkpt>
<trkpt lat="46.1511154174804688" lon="7.3178887367248535"><ele></ele><time>2014-10-10T15:0:34Z</time></trkpt>
<trkpt lat="46.1515579223632812" lon="7.3181467056274414"><ele></ele><time>2014-10-10T15:0:37Z</time></trkpt>
<trkpt lat="46.1519508361816406" lon="7.3185076713562012"><ele></ele><time>2014-10-10T15:0:40Z</time></trkpt>
<trkpt lat="46.1519660949707031" lon="7.3186168670654297"><ele></ele><time>2014-10-10T15:0:43Z</time></trkpt>
<trkpt lat="46.1520118713378906" lon="7.3187084197998047"><ele></ele><time>2014-10-10T15:0:46Z</time></trkpt>
<trkpt lat="46.1524772644042969" lon="7.3187279701232910"><ele></ele><time>2014-10-10T15:0:49Z</time></trkpt>
<trkpt lat="46.1529006958007812" lon="7.3188314437866211"><ele></ele><time>2014-10-10T15:0:52Z</time></trkpt>
<trkpt lat="46.1530799865722656" lon="7.3188271522521973"><ele></ele><time>2014-10-10T15:0:55Z</time></trkpt>
<trkpt lat="46.1534576416015625" lon="7.3186516761779785"><ele></ele><time>2014-10-10T15:0:58Z</time></trkpt>
<trkpt lat="46.1538963317871094" lon="7.3183827400207520"><ele></ele><time>2014-10-10T15:1:1Z</time></trkpt>
<trkpt lat="46.1542282104492188" lon="7.3182764053344727"><ele></ele><time>2014-10-10T15:1:4Z</time></trkpt>
<trkpt lat="46.1547660827636719" lon="7.3183293342590332"><ele></ele><time>2014-10-10T15:1:7Z</time></trkpt>
<trkpt lat="46.1549644470214844" lon="7.3183555603027344"><ele></ele><time>2014-10-10T15:1:10Z</time></trkpt>
<trkpt lat="46.1554183959960938" lon="7.3185482025146484"><ele></ele><time>2014-10-10T15:1:13Z</time></trkpt>
<trkpt lat="46.1556358337402344" lon="7.3186388015747070"><ele></ele><time>2014-10-10T15:1:16Z</time></trkpt>
<trkpt lat="46.1557655334472656" lon="7.3186578750610352"><ele></ele><time>2014-10-10T15:1:19Z</time></trkpt>
<trkpt lat="46.1561126708984375" lon="7.3188214302062988"><ele></ele><time>2014-10-10T15:1:22Z</time></trkpt>
<trkpt lat="46.1565666198730469" lon="7.3188385963439941"><ele></ele><time>2014-10-10T15:1:25Z</time></trkpt>
<trkpt lat="46.1570777893066406" lon="7.3190722465515137"><ele></ele><time>2014-10-10T15:1:28Z</time></trkpt>
<trkpt lat="46.1576042175292969" lon="7.3193068504333496"><ele></ele><time>2014-10-10T15:1:31Z</time></trkpt>
<trkpt lat="46.1580963134765625" lon="7.3196196556091309"><ele></ele><time>2014-10-10T15:1:34Z</time></trkpt>
<trkpt lat="46.1583175659179688" lon="7.3196377754211426"><ele></ele><time>2014-10-10T15:1:37Z</time></trkpt>
<trkpt lat="46.1584930419921875" lon="7.3197555541992188"><ele></ele><time>2014-10-10T15:1:40Z</time></trkpt>
<trkpt lat="46.1586074829101562" lon="7.3196244239807129"><ele></ele><time>2014-10-10T15:1:43Z</time></trkpt>
<trkpt lat="46.1587104797363281" lon="7.3196206092834473"><ele></ele><time>2014-10-10T15:1:46Z</time></trkpt>
<trkpt lat="46.1589279174804688" lon="7.3198552131652832"><ele></ele><time>2014-10-10T15:1:49Z</time></trkpt>
<trkpt lat="46.1589660644531250" lon="7.3199429512023926"><ele></ele><time>2014-10-10T15:1:52Z</time></trkpt>
<trkpt lat="46.1591720581054688" lon="7.3201599121093750"><ele></ele><time>2014-10-10T15:1:55Z</time></trkpt>
<trkpt lat="46.1592903137207031" lon="7.3203678131103516"><ele></ele><time>2014-10-10T15:1:58Z</time></trkpt>
<trkpt lat="46.1593666076660156" lon="7.3203468322753906"><ele></ele><time>2014-10-10T15:2:1Z</time></trkpt>
<trkpt lat="46.1594734191894531" lon="7.3203678131103516"><ele></ele><time>2014-10-10T15:2:4Z</time></trkpt>
<trkpt lat="46.1595726013183594" lon="7.3203253746032715"><ele></ele><time>2014-10-10T15:2:7Z</time></trkpt>
<trkpt lat="46.1597099304199219" lon="7.3201761245727539"><ele></ele><time>2014-10-10T15:2:10Z</time></trkpt>
<trkpt lat="46.1598892211914062" lon="7.3201160430908203"><ele></ele><time>2014-10-10T15:2:13Z</time></trkpt>
<trkpt lat="46.1601562500000000" lon="7.3201594352722168"><ele></ele><time>2014-10-10T15:2:16Z</time></trkpt>
<trkpt lat="46.1606559753417969" lon="7.3204483985900879"><ele></ele><time>2014-10-10T15:2:19Z</time></trkpt>
<trkpt lat="46.1610908508300781" lon="7.3206877708435059"><ele></ele><time>2014-10-10T15:2:22Z</time></trkpt>
<trkpt lat="46.1614074707031250" lon="7.3207817077636719"><ele></ele><time>2014-10-10T15:2:25Z</time></trkpt>
<trkpt lat="46.1616210937500000" lon="7.3208823204040527"><ele></ele><time>2014-10-10T15:2:28Z</time></trkpt>
<trkpt lat="46.1618499755859375" lon="7.3209371566772461"><ele></ele><time>2014-10-10T15:2:31Z</time></trkpt>
<trkpt lat="46.1621093750000000" lon="7.3210930824279785"><ele></ele><time>2014-10-10T15:2:34Z</time></trkpt>
<trkpt lat="46.1622619628906250" lon="7.3212428092956543"><ele></ele><time>2014-10-10T15:2:37Z</time></trkpt>
<trkpt lat="46.1627502441406250" lon="7.3214125633239746"><ele></ele><time>2014-10-10T15:2:40Z</time></trkpt>
<trkpt lat="46.1629409790039062" lon="7.3214492797851562"><ele></ele><time>2014-10-10T15:2:43Z</time></trkpt>
<trkpt lat="46.1634788513183594" lon="7.3213658332824707"><ele></ele><time>2014-10-10T15:2:46Z</time></trkpt>
<trkpt lat="46.1636123657226562" lon="7.3213334083557129"><ele></ele><time>2014-10-10T15:2:49Z</time></trkpt>
<trkpt lat="46.1636390686035156" lon="7.3212485313415527"><ele></ele><time>2014-10-10T15:2:52Z</time></trkpt>
<trkpt lat="46.1635742187500000" lon="7.3211030960083008"><ele></ele><time>2014-10-10T15:2:55Z</time></trkpt>
<trkpt lat="46.1636314392089844" lon="7.3210234642028809"><ele></ele><time>2014-10-10T15:2:58Z</time></trkpt>
<trkpt lat="46.1637306213378906" lon="7.3209848403930664"><ele></ele><time>2014-10-10T15:3:1Z</time></trkpt>
<trkpt lat="46.1637229919433594" lon="7.3209218978881836"><ele></ele><time>2014-10-10T15:3:4Z</time></trkpt>
<trkpt lat="46.1634178161621094" lon="7.3208823204040527"><ele></ele><time>2014-10-10T15:3:7Z</time></trkpt>
<trkpt lat="46.1632499694824219" lon="7.3208961486816406"><ele></ele><time>2014-10-10T15:3:10Z</time></trkpt>
<trkpt lat="46.1630592346191406" lon="7.3208026885986328"><ele></ele><time>2014-10-10T15:3:13Z</time></trkpt>
<trkpt lat="46.1630020141601562" lon="7.3206753730773926"><ele></ele><time>2014-10-10T15:3:16Z</time></trkpt>
<trkpt lat="46.1627426147460938" lon="7.3204779624938965"><ele></ele><time>2014-10-10T15:3:19Z</time></trkpt>
<trkpt lat="46.1626472473144531" lon="7.3203387260437012"><ele></ele><time>2014-10-10T15:3:22Z</time></trkpt>
<trkpt lat="46.1626396179199219" lon="7.3202528953552246"><ele></ele><time>2014-10-10T15:3:25Z</time></trkpt>
<trkpt lat="46.1626930236816406" lon="7.3201956748962402"><ele></ele><time>2014-10-10T15:3:28Z</time></trkpt>
<trkpt lat="46.1631622314453125" lon="7.3203196525573730"><ele></ele><time>2014-10-10T15:3:31Z</time></trkpt>
<trkpt lat="46.1633987426757812" lon="7.3203392028808594"><ele></ele><time>2014-10-10T15:3:34Z</time></trkpt>
<trkpt lat="46.1637077331542969" lon="7.3201036453247070"><ele></ele><time>2014-10-10T15:3:37Z</time></trkpt>
<trkpt lat="46.1637725830078125" lon="7.3201098442077637"><ele></ele><time>2014-10-10T15:3:40Z</time></trkpt>
<trkpt lat="46.1642227172851562" lon="7.3199138641357422"><ele></ele><time>2014-10-10T15:3:43Z</time></trkpt>
<trkpt lat="46.1645393371582031" lon="7.3197817802429199"><ele></ele><time>2014-10-10T15:3:46Z</time></trkpt>
<trkpt lat="46.1646270751953125" lon="7.3197817802429199"><ele></ele><time>2014-10-10T15:3:49Z</time></trkpt>
<trkpt lat="46.1650657653808594" lon="7.3201012611389160"><ele></ele><time>2014-10-10T15:3:52Z</time></trkpt>
<trkpt lat="46.1653747558593750" lon="7.3201580047607422"><ele></ele><time>2014-10-10T15:3:55Z</time></trkpt>
<trkpt lat="46.1655387878417969" lon="7.3202886581420898"><ele></ele><time>2014-10-10T15:3:58Z</time></trkpt>
<trkpt lat="46.1655540466308594" lon="7.3202061653137207"><ele></ele><time>2014-10-10T15:4:1Z</time></trkpt>
<trkpt lat="46.1652259826660156" lon="7.3199644088745117"><ele></ele><time>2014-10-10T15:4:4Z</time></trkpt>
<trkpt lat="46.1652832031250000" lon="7.3198599815368652"><ele></ele><time>2014-10-10T15:4:7Z</time></trkpt>
<trkpt lat="46.1655502319335938" lon="7.3199415206909180"><ele></ele><time>2014-10-10T15:4:10Z</time></trkpt>
<trkpt lat="46.1655654907226562" lon="7.3199253082275391"><ele></ele><time>2014-10-10T15:4:13Z</time></trkpt>
<trkpt lat="46.1652221679687500" lon="7.3195986747741699"><ele></ele><time>2014-10-10T15:4:16Z</time></trkpt>
<trkpt lat="46.1648941040039062" lon="7.3191308975219727"><ele></ele><time>2014-10-10T15:4:19Z</time></trkpt>
<trkpt lat="46.1651725769042969" lon="7.3192691802978516"><ele></ele><time>2014-10-10T15:4:22Z</time></trkpt>
<trkpt lat="46.1653289794921875" lon="7.3191175460815430"><ele></ele><time>2014-10-10T15:4:25Z</time></trkpt>
<trkpt lat="46.1658172607421875" lon="7.3193650245666504"><ele></ele><time>2014-10-10T15:4:28Z</time></trkpt>
<trkpt lat="46.1660614013671875" lon="7.3194489479064941"><ele></ele><time>2014-10-10T15:4:31Z</time></trkpt>
<trkpt lat="46.1663131713867188" lon="7.3196411132812500"><ele></ele><time>2014-10-10T15:4:34Z</time></trkpt>
<trkpt lat="46.1664123535156250" lon="7.3197908401489258"><ele></ele><time>2014-10-10T15:4:37Z</time></trkpt>
<trkpt lat="46.1666107177734375" lon="7.3199577331542969"><ele></ele><time>2014-10-10T15:4:40Z</time></trkpt>
<trkpt lat="46.1668510437011719" lon="7.3200445175170898"><ele></ele><time>2014-10-10T15:4:43Z</time></trkpt>
<trkpt lat="46.1672172546386719" lon="7.3200545310974121"><ele></ele><time>2014-10-10T15:4:46Z</time></trkpt>
<trkpt lat="46.1673583984375000" lon="7.3199930191040039"><ele></ele><time>2014-10-10T15:4:49Z</time></trkpt>
<trkpt lat="46.1678314208984375" lon="7.3196558952331543"><ele></ele><time>2014-10-10T15:4:52Z</time></trkpt>
<trkpt lat="46.1678886413574219" lon="7.3196334838867188"><ele></ele><time>2014-10-10T15:4:55Z</time></trkpt>
<trkpt lat="46.1679878234863281" lon="7.3196578025817871"><ele></ele><time>2014-10-10T15:4:58Z</time></trkpt>
<trkpt lat="46.1683998107910156" lon="7.3200254440307617"><ele></ele><time>2014-10-10T15:5:1Z</time></trkpt>
<trkpt lat="46.1687049865722656" lon="7.3204011917114258"><ele></ele><time>2014-10-10T15:5:4Z</time></trkpt>
<trkpt lat="46.1689872741699219" lon="7.3208918571472168"><ele></ele><time>2014-10-10T15:5:7Z</time></trkpt>
<trkpt lat="46.1692352294921875" lon="7.3211770057678223"><ele></ele><time>2014-10-10T15:5:10Z</time></trkpt>
<trkpt lat="46.1696586608886719" lon="7.3215365409851074"><ele></ele><time>2014-10-10T15:5:13Z</time></trkpt>
<trkpt lat="46.1698265075683594" lon="7.3216209411621094"><ele></ele><time>2014-10-10T15:5:16Z</time></trkpt>
<trkpt lat="46.1701774597167969" lon="7.3217034339904785"><ele></ele><time>2014-10-10T15:5:19Z</time></trkpt>
<trkpt lat="46.1706581115722656" lon="7.3216671943664551"><ele></ele><time>2014-10-10T15:5:22Z</time></trkpt>
<trkpt lat="46.1707916259765625" lon="7.3217029571533203"><ele></ele><time>2014-10-10T15:5:25Z</time></trkpt>
<trkpt lat="46.1712188720703125" lon="7.3219890594482422"><ele></ele><time>2014-10-10T15:5:28Z</time></trkpt>
<trkpt lat="46.1716613769531250" lon="7.3221740722656250"><ele></ele><time>2014-10-10T15:5:31Z</time></trkpt>
<trkpt lat="46.1718215942382812" lon="7.3222250938415527"><ele></ele><time>2014-10-10T15:5:34Z</time></trkpt>
<trkpt lat="46.1721115112304688" lon="7.3224554061889648"><ele></ele><time>2014-10-10T15:5:37Z</time></trkpt>
<trkpt lat="46.1723632812500000" lon="7.3227696418762207"><ele></ele><time>2014-10-10T15:5:40Z</time></trkpt>
<trkpt lat="46.1726531982421875" lon="7.3233585357666016"><ele></ele><time>2014-10-10T15:5:43Z</time></trkpt>
<trkpt lat="46.1729888916015625" lon="7.3239536285400391"><ele></ele><time>2014-10-10T15:5:46Z</time></trkpt>
<trkpt lat="46.1733360290527344" lon="7.3245248794555664"><ele></ele><time>2014-10-10T15:5:49Z</time></trkpt>
<trkpt lat="46.1736869812011719" lon="7.3251008987426758"><ele></ele><time>2014-10-10T15:5:52Z</time></trkpt>
<trkpt lat="46.1740875244140625" lon="7.3255453109741211"><ele></ele><time>2014-10-10T15:5:55Z</time></trkpt>
<trkpt lat="46.1745262145996094" lon="7.3260145187377930"><ele></ele><time>2014-10-10T15:5:58Z</time></trkpt>
<trkpt lat="46.1749992370605469" lon="7.3263959884643555"><ele></ele><time>2014-10-10T15:6:1Z</time></trkpt>
<trkpt lat="46.1755523681640625" lon="7.3265051841735840"><ele></ele><time>2014-10-10T15:6:4Z</time></trkpt>
<trkpt lat="46.1760139465332031" lon="7.3266129493713379"><ele></ele><time>2014-10-10T15:6:7Z</time></trkpt>
<trkpt lat="46.1762008666992188" lon="7.3266553878784180"><ele></ele><time>2014-10-10T15:6:10Z</time></trkpt>
<trkpt lat="46.1762619018554688" lon="7.3266224861145020"><ele></ele><time>2014-10-10T15:6:13Z</time></trkpt>
<trkpt lat="46.1762847900390625" lon="7.3265595436096191"><ele></ele><time>2014-10-10T15:6:16Z</time></trkpt>
<trkpt lat="46.1762733459472656" lon="7.3264799118041992"><ele></ele><time>2014-10-10T15:6:19Z</time></trkpt>
<trkpt lat="46.1761512756347656" lon="7.3264083862304688"><ele></ele><time>2014-10-10T15:6:22Z</time></trkpt>
<trkpt lat="46.1759033203125000" lon="7.3263506889343262"><ele></ele><time>2014-10-10T15:6:25Z</time></trkpt>
<trkpt lat="46.1756973266601562" lon="7.3262104988098145"><ele></ele><time>2014-10-10T15:6:28Z</time></trkpt>
<trkpt lat="46.1756134033203125" lon="7.3261165618896484"><ele></ele><time>2014-10-10T15:6:31Z</time></trkpt>
<trkpt lat="46.1755332946777344" lon="7.3258199691772461"><ele></ele><time>2014-10-10T15:6:34Z</time></trkpt>
<trkpt lat="46.1756744384765625" lon="7.3251953125000000"><ele></ele><time>2014-10-10T15:6:37Z</time></trkpt>
<trkpt lat="46.1756858825683594" lon="7.3248462677001953"><ele></ele><time>2014-10-10T15:6:40Z</time></trkpt>
<trkpt lat="46.1756172180175781" lon="7.3241024017333984"><ele></ele><time>2014-10-10T15:6:43Z</time></trkpt>
<trkpt lat="46.1755638122558594" lon="7.3235549926757812"><ele></ele><time>2014-10-10T15:6:46Z</time></trkpt>
<trkpt lat="46.1753768920898438" lon="7.3230357170104980"><ele></ele><time>2014-10-10T15:6:49Z</time></trkpt>
<trkpt lat="46.1753921508789062" lon="7.3229613304138184"><ele></ele><time>2014-10-10T15:6:52Z</time></trkpt>
<trkpt lat="46.1754455566406250" lon="7.3229193687438965"><ele></ele><time>2014-10-10T15:6:55Z</time></trkpt>
<trkpt lat="46.1755943298339844" lon="7.3229665756225586"><ele></ele><time>2014-10-10T15:6:58Z</time></trkpt>
<trkpt lat="46.1761131286621094" lon="7.3232870101928711"><ele></ele><time>2014-10-10T15:7:1Z</time></trkpt>
<trkpt lat="46.1765708923339844" lon="7.3237299919128418"><ele></ele><time>2014-10-10T15:7:4Z</time></trkpt>
<trkpt lat="46.1769523620605469" lon="7.3239936828613281"><ele></ele><time>2014-10-10T15:7:7Z</time></trkpt>
<trkpt lat="46.1771125793457031" lon="7.3243436813354492"><ele></ele><time>2014-10-10T15:7:10Z</time></trkpt>
<trkpt lat="46.1772117614746094" lon="7.3244743347167969"><ele></ele><time>2014-10-10T15:7:13Z</time></trkpt>
<trkpt lat="46.1776237487792969" lon="7.3247227668762207"><ele></ele><time>2014-10-10T15:7:16Z</time></trkpt>
<trkpt lat="46.1780014038085938" lon="7.3251104354858398"><ele></ele><time>2014-10-10T15:7:19Z</time></trkpt>
<trkpt lat="46.1782608032226562" lon="7.3253564834594727"><ele></ele><time>2014-10-10T15:7:22Z</time></trkpt>
<trkpt lat="46.1785736083984375" lon="7.3255152702331543"><ele></ele><time>2014-10-10T15:7:25Z</time></trkpt>
<trkpt lat="46.1790695190429688" lon="7.3257274627685547"><ele></ele><time>2014-10-10T15:7:28Z</time></trkpt>
<trkpt lat="46.1795616149902344" lon="7.3259429931640625"><ele></ele><time>2014-10-10T15:7:31Z</time></trkpt>
<trkpt lat="46.1800689697265625" lon="7.3261733055114746"><ele></ele><time>2014-10-10T15:7:34Z</time></trkpt>
<trkpt lat="46.1805229187011719" lon="7.3264107704162598"><ele></ele><time>2014-10-10T15:7:37Z</time></trkpt>
<trkpt lat="46.1807212829589844" lon="7.3265147209167480"><ele></ele><time>2014-10-10T15:7:40Z</time></trkpt>
<trkpt lat="46.1807785034179688" lon="7.3266201019287109"><ele></ele><time>2014-10-10T15:7:43Z</time></trkpt>
<trkpt lat="46.1808433532714844" lon="7.3273811340332031"><ele></ele><time>2014-10-10T15:7:46Z</time></trkpt>
<trkpt lat="46.1808815002441406" lon="7.3275403976440430"><ele></ele><time>2014-10-10T15:7:49Z</time></trkpt>
<trkpt lat="46.1812095642089844" lon="7.3280777931213379"><ele></ele><time>2014-10-10T15:7:52Z</time></trkpt>
<trkpt lat="46.1812286376953125" lon="7.3282070159912109"><ele></ele><time>2014-10-10T15:7:55Z</time></trkpt>
<trkpt lat="46.1813507080078125" lon="7.3284006118774414"><ele></ele><time>2014-10-10T15:7:58Z</time></trkpt>
<trkpt lat="46.1814537048339844" lon="7.3283891677856445"><ele></ele><time>2014-10-10T15:8:1Z</time></trkpt>
<trkpt lat="46.1816101074218750" lon="7.3282032012939453"><ele></ele><time>2014-10-10T15:8:4Z</time></trkpt>
<trkpt lat="46.1817855834960938" lon="7.3275794982910156"><ele></ele><time>2014-10-10T15:8:7Z</time></trkpt>
<trkpt lat="46.1818885803222656" lon="7.3272686004638672"><ele></ele><time>2014-10-10T15:8:10Z</time></trkpt>
<trkpt lat="46.1822204589843750" lon="7.3266816139221191"><ele></ele><time>2014-10-10T15:8:13Z</time></trkpt>
<trkpt lat="46.1825828552246094" lon="7.3260755538940430"><ele></ele><time>2014-10-10T15:8:16Z</time></trkpt>
<trkpt lat="46.1826820373535156" lon="7.3259162902832031"><ele></ele><time>2014-10-10T15:8:19Z</time></trkpt>
<trkpt lat="46.1830215454101562" lon="7.3256516456604004"><ele></ele><time>2014-10-10T15:8:22Z</time></trkpt>
<trkpt lat="46.1832733154296875" lon="7.3257131576538086"><ele></ele><time>2014-10-10T15:8:25Z</time></trkpt>
<trkpt lat="46.1834907531738281" lon="7.3257021903991699"><ele></ele><time>2014-10-10T15:8:28Z</time></trkpt>
<trkpt lat="46.1839599609375000" lon="7.3259005546569824"><ele></ele><time>2014-10-10T15:8:31Z</time></trkpt>
<trkpt lat="46.1843605041503906" lon="7.3262410163879395"><ele></ele><time>2014-10-10T15:8:34Z</time></trkpt>
<trkpt lat="46.1848068237304688" lon="7.3263225555419922"><ele></ele><time>2014-10-10T15:8:37Z</time></trkpt>
<trkpt lat="46.1850852966308594" lon="7.3263387680053711"><ele></ele><time>2014-10-10T15:8:40Z</time></trkpt>
<trkpt lat="46.1854324340820312" lon="7.3265872001647949"><ele></ele><time>2014-10-10T15:8:43Z</time></trkpt>
<trkpt lat="46.1857719421386719" lon="7.3266043663024902"><ele></ele><time>2014-10-10T15:8:46Z</time></trkpt>
<trkpt lat="46.1861686706542969" lon="7.3269867897033691"><ele></ele><time>2014-10-10T15:8:49Z</time></trkpt>
<trkpt lat="46.1863021850585938" lon="7.3273425102233887"><ele></ele><time>2014-10-10T15:8:52Z</time></trkpt>
<trkpt lat="46.1860580444335938" lon="7.3279056549072266"><ele></ele><time>2014-10-10T15:8:55Z</time></trkpt>
<trkpt lat="46.1859512329101562" lon="7.3285484313964844"><ele></ele><time>2014-10-10T15:8:58Z</time></trkpt>
<trkpt lat="46.1859054565429688" lon="7.3292160034179688"><ele></ele><time>2014-10-10T15:9:1Z</time></trkpt>
<trkpt lat="46.1859321594238281" lon="7.3295693397521973"><ele></ele><time>2014-10-10T15:9:4Z</time></trkpt>
<trkpt lat="46.1863212585449219" lon="7.3298501968383789"><ele></ele><time>2014-10-10T15:9:7Z</time></trkpt>
<trkpt lat="46.1867790222167969" lon="7.3299202919006348"><ele></ele><time>2014-10-10T15:9:10Z</time></trkpt>
<trkpt lat="46.1871986389160156" lon="7.3302035331726074"><ele></ele><time>2014-10-10T15:9:13Z</time></trkpt>
<trkpt lat="46.1876487731933594" lon="7.3302998542785645"><ele></ele><time>2014-10-10T15:9:16Z</time></trkpt>
<trkpt lat="46.1880836486816406" lon="7.3305373191833496"><ele></ele><time>2014-10-10T15:9:19Z</time></trkpt>
<trkpt lat="46.1885070800781250" lon="7.3307948112487793"><ele></ele><time>2014-10-10T15:9:22Z</time></trkpt>
<trkpt lat="46.1889572143554688" lon="7.3305940628051758"><ele></ele><time>2014-10-10T15:9:25Z</time></trkpt>
<trkpt lat="46.1893844604492188" lon="7.3303670883178711"><ele></ele><time>2014-10-10T15:9:28Z</time></trkpt>
<trkpt lat="46.1897583007812500" lon="7.3306455612182617"><ele></ele><time>2014-10-10T15:9:31Z</time></trkpt>
<trkpt lat="46.1899070739746094" lon="7.3309078216552734"><ele></ele><time>2014-10-10T15:9:34Z</time></trkpt>
<trkpt lat="46.1904106140136719" lon="7.3309264183044434"><ele></ele><time>2014-10-10T15:9:37Z</time></trkpt>
<trkpt lat="46.1908798217773438" lon="7.3309478759765625"><ele></ele><time>2014-10-10T15:9:40Z</time></trkpt>
<trkpt lat="46.1912498474121094" lon="7.3313221931457520"><ele></ele><time>2014-10-10T15:9:43Z</time></trkpt>
<trkpt lat="46.1917190551757812" lon="7.3314132690429688"><ele></ele><time>2014-10-10T15:9:46Z</time></trkpt>
<trkpt lat="46.1921882629394531" lon="7.3313703536987305"><ele></ele><time>2014-10-10T15:9:49Z</time></trkpt>
<trkpt lat="46.1925735473632812" lon="7.3312835693359375"><ele></ele><time>2014-10-10T15:9:52Z</time></trkpt>
<trkpt lat="46.1928863525390625" lon="7.3314342498779297"><ele></ele><time>2014-10-10T15:9:55Z</time></trkpt>
<trkpt lat="46.1929435729980469" lon="7.3314933776855469"><ele></ele><time>2014-10-10T15:9:58Z</time></trkpt>
<trkpt lat="46.1934013366699219" lon="7.3313446044921875"><ele></ele><time>2014-10-10T15:10:1Z</time></trkpt>
<trkpt lat="46.1938438415527344" lon="7.3311867713928223"><ele></ele><time>2014-10-10T15:10:4Z</time></trkpt>
<trkpt lat="46.1941680908203125" lon="7.3310637474060059"><ele></ele><time>2014-10-10T15:10:7Z</time></trkpt>
<trkpt lat="46.1943397521972656" lon="7.3309354782104492"><ele></ele><time>2014-10-10T15:10:10Z</time></trkpt>
<trkpt lat="46.1944618225097656" lon="7.3309378623962402"><ele></ele><time>2014-10-10T15:10:13Z</time></trkpt>
<trkpt lat="46.1949501037597656" lon="7.3311414718627930"><ele></ele><time>2014-10-10T15:10:16Z</time></trkpt>
<trkpt lat="46.1953773498535156" lon="7.3312692642211914"><ele></ele><time>2014-10-10T15:10:19Z</time></trkpt>
<trkpt lat="46.1958122253417969" lon="7.3310537338256836"><ele></ele><time>2014-10-10T15:10:22Z</time></trkpt>
<trkpt lat="46.1962509155273438" lon="7.3308730125427246"><ele></ele><time>2014-10-10T15:10:25Z</time></trkpt>
<trkpt lat="46.1963539123535156" lon="7.3307971954345703"><ele></ele><time>2014-10-10T15:10:28Z</time></trkpt>
<trkpt lat="46.1968383789062500" lon="7.3306922912597656"><ele></ele><time>2014-10-10T15:10:31Z</time></trkpt>
<trkpt lat="46.1972923278808594" lon="7.3307991027832031"><ele></ele><time>2014-10-10T15:10:34Z</time></trkpt>
<trkpt lat="46.1977119445800781" lon="7.3311963081359863"><ele></ele><time>2014-10-10T15:10:37Z</time></trkpt>
<trkpt lat="46.1979179382324219" lon="7.3313412666320801"><ele></ele><time>2014-10-10T15:10:40Z</time></trkpt>
<trkpt lat="46.1982879638671875" lon="7.3317093849182129"><ele></ele><time>2014-10-10T15:10:43Z</time></trkpt>
<trkpt lat="46.1986236572265625" lon="7.3321943283081055"><ele></ele><time>2014-10-10T15:10:46Z</time></trkpt>
<trkpt lat="46.1988983154296875" lon="7.3327512741088867"><ele></ele><time>2014-10-10T15:10:49Z</time></trkpt>
<trkpt lat="46.1991577148437500" lon="7.3333692550659180"><ele></ele><time>2014-10-10T15:10:52Z</time></trkpt>
<trkpt lat="46.1993484497070312" lon="7.3337745666503906"><ele></ele><time>2014-10-10T15:10:55Z</time></trkpt>
<trkpt lat="46.1995735168457031" lon="7.3344092369079590"><ele></ele><time>2014-10-10T15:10:58Z</time></trkpt>
<trkpt lat="46.1997337341308594" lon="7.3350934982299805"><ele></ele><time>2014-10-10T15:11:1Z</time></trkpt>
<trkpt lat="46.1997261047363281" lon="7.3355016708374023"><ele></ele><time>2014-10-10T15:11:4Z</time></trkpt>
<trkpt lat="46.2000007629394531" lon="7.3360152244567871"><ele></ele><time>2014-10-10T15:11:7Z</time></trkpt>
<trkpt lat="46.2001152038574219" lon="7.3365654945373535"><ele></ele><time>2014-10-10T15:11:10Z</time></trkpt>
<trkpt lat="46.2000694274902344" lon="7.3372530937194824"><ele></ele><time>2014-10-10T15:11:13Z</time></trkpt>
<trkpt lat="46.2001152038574219" lon="7.3375225067138672"><ele></ele><time>2014-10-10T15:11:16Z</time></trkpt>
<trkpt lat="46.2002487182617188" lon="7.3377356529235840"><ele></ele><time>2014-10-10T15:11:19Z</time></trkpt>
<trkpt lat="46.2003211975097656" lon="7.3381161689758301"><ele></ele><time>2014-10-10T15:11:22Z</time></trkpt>
<trkpt lat="46.2003898620605469" lon="7.3387594223022461"><ele></ele><time>2014-10-10T15:11:25Z</time></trkpt>
<trkpt lat="46.2005500793457031" lon="7.3394188880920410"><ele></ele><time>2014-10-10T15:11:28Z</time></trkpt>
<trkpt lat="46.2005767822265625" lon="7.3400616645812988"><ele></ele><time>2014-10-10T15:11:31Z</time></trkpt>
<trkpt lat="46.2008094787597656" lon="7.3405737876892090"><ele></ele><time>2014-10-10T15:11:34Z</time></trkpt>
<trkpt lat="46.2008819580078125" lon="7.3409762382507324"><ele></ele><time>2014-10-10T15:11:37Z</time></trkpt>
<trkpt lat="46.2009620666503906" lon="7.3410882949829102"><ele></ele><time>2014-10-10T15:11:40Z</time></trkpt>
<trkpt lat="46.2010536193847656" lon="7.3411502838134766"><ele></ele><time>2014-10-10T15:11:43Z</time></trkpt>
<trkpt lat="46.2010879516601562" lon="7.3410806655883789"><ele></ele><time>2014-10-10T15:11:46Z</time></trkpt>
<trkpt lat="46.2012596130371094" lon="7.3411827087402344"><ele></ele><time>2014-10-10T15:11:49Z</time></trkpt>
<trkpt lat="46.2013740539550781" lon="7.3417706489562988"><ele></ele><time>2014-10-10T15:11:52Z</time></trkpt>
<trkpt lat="46.2014007568359375" lon="7.3422966003417969"><ele></ele><time>2014-10-10T15:11:55Z</time></trkpt>
<trkpt lat="46.2013320922851562" lon="7.3427634239196777"><ele></ele><time>2014-10-10T15:11:58Z</time></trkpt>
<trkpt lat="46.2015113830566406" lon="7.3434333801269531"><ele></ele><time>2014-10-10T15:12:1Z</time></trkpt>
<trkpt lat="46.2017250061035156" lon="7.3440165519714355"><ele></ele><time>2014-10-10T15:12:4Z</time></trkpt>
<trkpt lat="46.2018928527832031" lon="7.3443207740783691"><ele></ele><time>2014-10-10T15:12:7Z</time></trkpt>
<trkpt lat="46.2019348144531250" lon="7.3446078300476074"><ele></ele><time>2014-10-10T15:12:10Z</time></trkpt>
<trkpt lat="46.2021636962890625" lon="7.3452281951904297"><ele></ele><time>2014-10-10T15:12:13Z</time></trkpt>
<trkpt lat="46.2023887634277344" lon="7.3458847999572754"><ele></ele><time>2014-10-10T15:12:16Z</time></trkpt>
<trkpt lat="46.2024803161621094" lon="7.3462953567504883"><ele></ele><time>2014-10-10T15:12:19Z</time></trkpt>
<trkpt lat="46.2024078369140625" lon="7.3467993736267090"><ele></ele><time>2014-10-10T15:12:22Z</time></trkpt>
<trkpt lat="46.2023582458496094" lon="7.3470854759216309"><ele></ele><time>2014-10-10T15:12:25Z</time></trkpt>
<trkpt lat="46.2025375366210938" lon="7.3476834297180176"><ele></ele><time>2014-10-10T15:12:28Z</time></trkpt>
<trkpt lat="46.2025985717773438" lon="7.3479743003845215"><ele></ele><time>2014-10-10T15:12:31Z</time></trkpt>
<trkpt lat="46.2027854919433594" lon="7.3483490943908691"><ele></ele><time>2014-10-10T15:12:34Z</time></trkpt>
<trkpt lat="46.2028388977050781" lon="7.3483862876892090"><ele></ele><time>2014-10-10T15:12:37Z</time></trkpt>
<trkpt lat="46.2030372619628906" lon="7.3488674163818359"><ele></ele><time>2014-10-10T15:12:40Z</time></trkpt>
<trkpt lat="46.2030258178710938" lon="7.3490219116210938"><ele></ele><time>2014-10-10T15:12:43Z</time></trkpt>
<trkpt lat="46.2031669616699219" lon="7.3495020866394043"><ele></ele><time>2014-10-10T15:12:46Z</time></trkpt>
<trkpt lat="46.2032432556152344" lon="7.3499126434326172"><ele></ele><time>2014-10-10T15:12:49Z</time></trkpt>
<trkpt lat="46.2034416198730469" lon="7.3504209518432617"><ele></ele><time>2014-10-10T15:12:52Z</time></trkpt>
<trkpt lat="46.2034988403320312" lon="7.3510794639587402"><ele></ele><time>2014-10-10T15:12:55Z</time></trkpt>
<trkpt lat="46.2035369873046875" lon="7.3514795303344727"><ele></ele><time>2014-10-10T15:12:58Z</time></trkpt>
<trkpt lat="46.2034873962402344" lon="7.3518843650817871"><ele></ele><time>2014-10-10T15:13:1Z</time></trkpt>
<trkpt lat="46.2035293579101562" lon="7.3521161079406738"><ele></ele><time>2014-10-10T15:13:4Z</time></trkpt>
<trkpt lat="46.2037086486816406" lon="7.3524379730224609"><ele></ele><time>2014-10-10T15:13:7Z</time></trkpt>
<trkpt lat="46.2037811279296875" lon="7.3524708747863770"><ele></ele><time>2014-10-10T15:13:10Z</time></trkpt>
<trkpt lat="46.2041664123535156" lon="7.3528656959533691"><ele></ele><time>2014-10-10T15:13:13Z</time></trkpt>
<trkpt lat="46.2043342590332031" lon="7.3532266616821289"><ele></ele><time>2014-10-10T15:13:16Z</time></trkpt>
<trkpt lat="46.2044601440429688" lon="7.3536024093627930"><ele></ele><time>2014-10-10T15:13:19Z</time></trkpt>
<trkpt lat="46.2045326232910156" lon="7.3542509078979492"><ele></ele><time>2014-10-10T15:13:22Z</time></trkpt>
<trkpt lat="46.2045059204101562" lon="7.3545217514038086"><ele></ele><time>2014-10-10T15:13:25Z</time></trkpt>
<trkpt lat="46.2045211791992188" lon="7.3545656204223633"><ele></ele><time>2014-10-10T15:13:28Z</time></trkpt>
<trkpt lat="46.2045326232910156" lon="7.3548073768615723"><ele></ele><time>2014-10-10T15:13:31Z</time></trkpt>
<trkpt lat="46.2045936584472656" lon="7.3550519943237305"><ele></ele><time>2014-10-10T15:13:34Z</time></trkpt>
<trkpt lat="46.2045516967773438" lon="7.3554735183715820"><ele></ele><time>2014-10-10T15:13:37Z</time></trkpt>
<trkpt lat="46.2045097351074219" lon="7.3555259704589844"><ele></ele><time>2014-10-10T15:13:40Z</time></trkpt>
<trkpt lat="46.2045249938964844" lon="7.3557071685791016"><ele></ele><time>2014-10-10T15:13:43Z</time></trkpt>
<trkpt lat="46.2044830322265625" lon="7.3559336662292480"><ele></ele><time>2014-10-10T15:13:46Z</time></trkpt>
<trkpt lat="46.2045974731445312" lon="7.3560385704040527"><ele></ele><time>2014-10-10T15:13:49Z</time></trkpt>
<trkpt lat="46.2050590515136719" lon="7.3560771942138672"><ele></ele><time>2014-10-10T15:13:52Z</time></trkpt>
<trkpt lat="46.2051124572753906" lon="7.3561100959777832"><ele></ele><time>2014-10-10T15:13:55Z</time></trkpt>
<trkpt lat="46.2053260803222656" lon="7.3564248085021973"><ele></ele><time>2014-10-10T15:13:58Z</time></trkpt>
<trkpt lat="46.2054405212402344" lon="7.3565931320190430"><ele></ele><time>2014-10-10T15:14:1Z</time></trkpt>
<trkpt lat="46.2055816650390625" lon="7.3569965362548828"><ele></ele><time>2014-10-10T15:14:4Z</time></trkpt>
<trkpt lat="46.2059020996093750" lon="7.3573150634765625"><ele></ele><time>2014-10-10T15:14:7Z</time></trkpt>
<trkpt lat="46.2060852050781250" lon="7.3576693534851074"><ele></ele><time>2014-10-10T15:14:10Z</time></trkpt>
<trkpt lat="46.2062149047851562" lon="7.3577423095703125"><ele></ele><time>2014-10-10T15:14:13Z</time></trkpt>
<trkpt lat="46.2063827514648438" lon="7.3579974174499512"><ele></ele><time>2014-10-10T15:14:16Z</time></trkpt>
<trkpt lat="46.2065048217773438" lon="7.3586816787719727"><ele></ele><time>2014-10-10T15:14:19Z</time></trkpt>
<trkpt lat="46.2066078186035156" lon="7.3593378067016602"><ele></ele><time>2014-10-10T15:14:22Z</time></trkpt>
<trkpt lat="46.2066497802734375" lon="7.3593935966491699"><ele></ele><time>2014-10-10T15:14:25Z</time></trkpt>
<trkpt lat="46.2068519592285156" lon="7.3594222068786621"><ele></ele><time>2014-10-10T15:14:28Z</time></trkpt>
<trkpt lat="46.2068939208984375" lon="7.3594899177551270"><ele></ele><time>2014-10-10T15:14:31Z</time></trkpt>
<trkpt lat="46.2069549560546875" lon="7.3595266342163086"><ele></ele><time>2014-10-10T15:14:34Z</time></trkpt>
<trkpt lat="46.2069053649902344" lon="7.3598484992980957"><ele></ele><time>2014-10-10T15:14:37Z</time></trkpt>
<trkpt lat="46.2070045471191406" lon="7.3602046966552734"><ele></ele><time>2014-10-10T15:14:40Z</time></trkpt>
<trkpt lat="46.2072410583496094" lon="7.3604936599731445"><ele></ele><time>2014-10-10T15:14:43Z</time></trkpt>
<trkpt lat="46.2074165344238281" lon="7.3611445426940918"><ele></ele><time>2014-10-10T15:14:46Z</time></trkpt>
<trkpt lat="46.2074279785156250" lon="7.3613858222961426"><ele></ele><time>2014-10-10T15:14:49Z</time></trkpt>
<trkpt lat="46.2076034545898438" lon="7.3620257377624512"><ele></ele><time>2014-10-10T15:14:52Z</time></trkpt>
<trkpt lat="46.2076911926269531" lon="7.3621897697448730"><ele></ele><time>2014-10-10T15:14:55Z</time></trkpt>
<trkpt lat="46.2078208923339844" lon="7.3623266220092773"><ele></ele><time>2014-10-10T15:14:58Z</time></trkpt>
<trkpt lat="46.2079772949218750" lon="7.3627843856811523"><ele></ele><time>2014-10-10T15:15:1Z</time></trkpt>
<trkpt lat="46.2081489562988281" lon="7.3631629943847656"><ele></ele><time>2014-10-10T15:15:4Z</time></trkpt>
<trkpt lat="46.2081565856933594" lon="7.3632621765136719"><ele></ele><time>2014-10-10T15:15:7Z</time></trkpt>
<trkpt lat="46.2082366943359375" lon="7.3633918762207031"><ele></ele><time>2014-10-10T15:15:10Z</time></trkpt>
<trkpt lat="46.2083778381347656" lon="7.3635029792785645"><ele></ele><time>2014-10-10T15:15:13Z</time></trkpt>
<trkpt lat="46.2084846496582031" lon="7.3637170791625977"><ele></ele><time>2014-10-10T15:15:16Z</time></trkpt>
<trkpt lat="46.2084312438964844" lon="7.3640685081481934"><ele></ele><time>2014-10-10T15:15:19Z</time></trkpt>
<trkpt lat="46.2082557678222656" lon="7.3645000457763672"><ele></ele><time>2014-10-10T15:15:22Z</time></trkpt>
<trkpt lat="46.2082405090332031" lon="7.3646316528320312"><ele></ele><time>2014-10-10T15:15:25Z</time></trkpt>
<trkpt lat="46.2084732055664062" lon="7.3651895523071289"><ele></ele><time>2014-10-10T15:15:28Z</time></trkpt>
<trkpt lat="46.2085113525390625" lon="7.3658299446105957"><ele></ele><time>2014-10-10T15:15:31Z</time></trkpt>
<trkpt lat="46.2084846496582031" lon="7.3659124374389648"><ele></ele><time>2014-10-10T15:15:34Z</time></trkpt>
<trkpt lat="46.2086105346679688" lon="7.3664541244506836"><ele></ele><time>2014-10-10T15:15:37Z</time></trkpt>
<trkpt lat="46.2087554931640625" lon="7.3667812347412109"><ele></ele><time>2014-10-10T15:15:40Z</time></trkpt>
<trkpt lat="46.2088851928710938" lon="7.3674335479736328"><ele></ele><time>2014-10-10T15:15:43Z</time></trkpt>
<trkpt lat="46.2092056274414062" lon="7.3679432868957520"><ele></ele><time>2014-10-10T15:15:46Z</time></trkpt>
<trkpt lat="46.2095031738281250" lon="7.3684935569763184"><ele></ele><time>2014-10-10T15:15:49Z</time></trkpt>
<trkpt lat="46.2097663879394531" lon="7.3690190315246582"><ele></ele><time>2014-10-10T15:15:52Z</time></trkpt>
<trkpt lat="46.2098922729492188" lon="7.3694567680358887"><ele></ele><time>2014-10-10T15:15:55Z</time></trkpt>
<trkpt lat="46.2100296020507812" lon="7.3700947761535645"><ele></ele><time>2014-10-10T15:15:58Z</time></trkpt>
<trkpt lat="46.2100830078125000" lon="7.3707852363586426"><ele></ele><time>2014-10-10T15:16:1Z</time></trkpt>
<trkpt lat="46.2102661132812500" lon="7.3714141845703125"><ele></ele><time>2014-10-10T15:16:4Z</time></trkpt>
<trkpt lat="46.2103691101074219" lon="7.3717012405395508"><ele></ele><time>2014-10-10T15:16:7Z</time></trkpt>
<trkpt lat="46.2104034423828125" lon="7.3720583915710449"><ele></ele><time>2014-10-10T15:16:10Z</time></trkpt>
<trkpt lat="46.2104988098144531" lon="7.3725137710571289"><ele></ele><time>2014-10-10T15:16:13Z</time></trkpt>
<trkpt lat="46.2105522155761719" lon="7.3724818229675293"><ele></ele><time>2014-10-10T15:16:16Z</time></trkpt>
<trkpt lat="46.2105827331542969" lon="7.3721427917480469"><ele></ele><time>2014-10-10T15:16:19Z</time></trkpt>
<trkpt lat="46.2106094360351562" lon="7.3720746040344238"><ele></ele><time>2014-10-10T15:16:22Z</time></trkpt>
<trkpt lat="46.2106513977050781" lon="7.3720469474792480"><ele></ele><time>2014-10-10T15:16:25Z</time></trkpt>
<trkpt lat="46.2107315063476562" lon="7.3721566200256348"><ele></ele><time>2014-10-10T15:16:28Z</time></trkpt>
<trkpt lat="46.2107467651367188" lon="7.3724226951599121"><ele></ele><time>2014-10-10T15:16:31Z</time></trkpt>
<trkpt lat="46.2110061645507812" lon="7.3730759620666504"><ele></ele><time>2014-10-10T15:16:34Z</time></trkpt>
<trkpt lat="46.2111740112304688" lon="7.3737511634826660"><ele></ele><time>2014-10-10T15:16:37Z</time></trkpt>
<trkpt lat="46.2112808227539062" lon="7.3740239143371582"><ele></ele><time>2014-10-10T15:16:40Z</time></trkpt>
<trkpt lat="46.2116241455078125" lon="7.3746209144592285"><ele></ele><time>2014-10-10T15:16:43Z</time></trkpt>
<trkpt lat="46.2119369506835938" lon="7.3751602172851562"><ele></ele><time>2014-10-10T15:16:46Z</time></trkpt>
<trkpt lat="46.2122535705566406" lon="7.3757262229919434"><ele></ele><time>2014-10-10T15:16:49Z</time></trkpt>
<trkpt lat="46.2125892639160156" lon="7.3763175010681152"><ele></ele><time>2014-10-10T15:16:52Z</time></trkpt>
<trkpt lat="46.2127876281738281" lon="7.3766045570373535"><ele></ele><time>2014-10-10T15:16:55Z</time></trkpt>
<trkpt lat="46.2132225036621094" lon="7.3769774436950684"><ele></ele><time>2014-10-10T15:16:58Z</time></trkpt>
<trkpt lat="46.2135200500488281" lon="7.3772392272949219"><ele></ele><time>2014-10-10T15:17:1Z</time></trkpt>
<trkpt lat="46.2136344909667969" lon="7.3776121139526367"><ele></ele><time>2014-10-10T15:17:4Z</time></trkpt>
<trkpt lat="46.2139358520507812" lon="7.3780455589294434"><ele></ele><time>2014-10-10T15:17:7Z</time></trkpt>
<trkpt lat="46.2140769958496094" lon="7.3781957626342773"><ele></ele><time>2014-10-10T15:17:10Z</time></trkpt>
<trkpt lat="46.2141799926757812" lon="7.3782505989074707"><ele></ele><time>2014-10-10T15:17:13Z</time></trkpt>
<trkpt lat="46.2145919799804688" lon="7.3787055015563965"><ele></ele><time>2014-10-10T15:17:16Z</time></trkpt>
<trkpt lat="46.2146873474121094" lon="7.3794007301330566"><ele></ele><time>2014-10-10T15:17:19Z</time></trkpt>
<trkpt lat="46.2146301269531250" lon="7.3795676231384277"><ele></ele><time>2014-10-10T15:17:22Z</time></trkpt>
<trkpt lat="46.2147560119628906" lon="7.3798627853393555"><ele></ele><time>2014-10-10T15:17:25Z</time></trkpt>
<trkpt lat="46.2148742675781250" lon="7.3805508613586426"><ele></ele><time>2014-10-10T15:17:28Z</time></trkpt>
<trkpt lat="46.2150917053222656" lon="7.3812160491943359"><ele></ele><time>2014-10-10T15:17:31Z</time></trkpt>
<trkpt lat="46.2151107788085938" lon="7.3813109397888184"><ele></ele><time>2014-10-10T15:17:34Z</time></trkpt>
<trkpt lat="46.2150878906250000" lon="7.3814105987548828"><ele></ele><time>2014-10-10T15:17:37Z</time></trkpt>
<trkpt lat="46.2151031494140625" lon="7.3815069198608398"><ele></ele><time>2014-10-10T15:17:40Z</time></trkpt>
<trkpt lat="46.2150802612304688" lon="7.3816628456115723"><ele></ele><time>2014-10-10T15:17:43Z</time></trkpt>
<trkpt lat="46.2152214050292969" lon="7.3823800086975098"><ele></ele><time>2014-10-10T15:17:46Z</time></trkpt>
<trkpt lat="46.2152252197265625" lon="7.3826503753662109"><ele></ele><time>2014-10-10T15:17:49Z</time></trkpt>
<trkpt lat="46.2151985168457031" lon="7.3829507827758789"><ele></ele><time>2014-10-10T15:17:52Z</time></trkpt>
<trkpt lat="46.2152366638183594" lon="7.3836731910705566"><ele></ele><time>2014-10-10T15:17:55Z</time></trkpt>
<trkpt lat="46.2152709960937500" lon="7.3840150833129883"><ele></ele><time>2014-10-10T15:17:58Z</time></trkpt>
<trkpt lat="46.2152671813964844" lon="7.3841075897216797"><ele></ele><time>2014-10-10T15:18:1Z</time></trkpt>
<trkpt lat="46.2155036926269531" lon="7.3839187622070312"><ele></ele><time>2014-10-10T15:18:4Z</time></trkpt>
<trkpt lat="46.2157974243164062" lon="7.3841137886047363"><ele></ele><time>2014-10-10T15:18:7Z</time></trkpt>
<trkpt lat="46.2159156799316406" lon="7.3840193748474121"><ele></ele><time>2014-10-10T15:18:10Z</time></trkpt>
<trkpt lat="46.2163085937500000" lon="7.3843159675598145"><ele></ele><time>2014-10-10T15:18:13Z</time></trkpt>
<trkpt lat="46.2165412902832031" lon="7.3849072456359863"><ele></ele><time>2014-10-10T15:18:16Z</time></trkpt>
<trkpt lat="46.2166252136230469" lon="7.3851280212402344"><ele></ele><time>2014-10-10T15:18:19Z</time></trkpt>
<trkpt lat="46.2169685363769531" lon="7.3850550651550293"><ele></ele><time>2014-10-10T15:18:22Z</time></trkpt>
<trkpt lat="46.2174186706542969" lon="7.3853182792663574"><ele></ele><time>2014-10-10T15:18:25Z</time></trkpt>
<trkpt lat="46.2177162170410156" lon="7.3858165740966797"><ele></ele><time>2014-10-10T15:18:28Z</time></trkpt>
<trkpt lat="46.2176971435546875" lon="7.3857517242431641"><ele></ele><time>2014-10-10T15:18:31Z</time></trkpt>
<trkpt lat="46.2178955078125000" lon="7.3859477043151855"><ele></ele><time>2014-10-10T15:18:34Z</time></trkpt>
<trkpt lat="46.2179794311523438" lon="7.3858900070190430"><ele></ele><time>2014-10-10T15:18:37Z</time></trkpt>
<trkpt lat="46.2179756164550781" lon="7.3855147361755371"><ele></ele><time>2014-10-10T15:18:40Z</time></trkpt>
<trkpt lat="46.2181167602539062" lon="7.3856477737426758"><ele></ele><time>2014-10-10T15:18:43Z</time></trkpt>
<trkpt lat="46.2181243896484375" lon="7.3853349685668945"><ele></ele><time>2014-10-10T15:18:46Z</time></trkpt>
<trkpt lat="46.2182312011718750" lon="7.3852500915527344"><ele></ele><time>2014-10-10T15:18:49Z</time></trkpt>
<trkpt lat="46.2182273864746094" lon="7.3849735260009766"><ele></ele><time>2014-10-10T15:18:52Z</time></trkpt>
<trkpt lat="46.2183685302734375" lon="7.3852853775024414"><ele></ele><time>2014-10-10T15:18:55Z</time></trkpt>
<trkpt lat="46.2186698913574219" lon="7.3853149414062500"><ele></ele><time>2014-10-10T15:18:58Z</time></trkpt>
<trkpt lat="46.2189865112304688" lon="7.3858108520507812"><ele></ele><time>2014-10-10T15:19:1Z</time></trkpt>
<trkpt lat="46.2193222045898438" lon="7.3860783576965332"><ele></ele><time>2014-10-10T15:19:4Z</time></trkpt>
<trkpt lat="46.2193603515625000" lon="7.3856353759765625"><ele></ele><time>2014-10-10T15:19:7Z</time></trkpt>
<trkpt lat="46.2195243835449219" lon="7.3858838081359863"><ele></ele><time>2014-10-10T15:19:10Z</time></trkpt>
<trkpt lat="46.2196235656738281" lon="7.3861861228942871"><ele></ele><time>2014-10-10T15:19:13Z</time></trkpt>
<trkpt lat="46.2197799682617188" lon="7.3868231773376465"><ele></ele><time>2014-10-10T15:19:16Z</time></trkpt>
<trkpt lat="46.2200508117675781" lon="7.3874034881591797"><ele></ele><time>2014-10-10T15:19:19Z</time></trkpt>
<trkpt lat="46.2202529907226562" lon="7.3877906799316406"><ele></ele><time>2014-10-10T15:19:22Z</time></trkpt>
<trkpt lat="46.2206230163574219" lon="7.3881721496582031"><ele></ele><time>2014-10-10T15:19:25Z</time></trkpt>
<trkpt lat="46.2206611633300781" lon="7.3882298469543457"><ele></ele><time>2014-10-10T15:19:28Z</time></trkpt>
<trkpt lat="46.2206687927246094" lon="7.3881831169128418"><ele></ele><time>2014-10-10T15:19:31Z</time></trkpt>
<trkpt lat="46.2204895019531250" lon="7.3878464698791504"><ele></ele><time>2014-10-10T15:19:34Z</time></trkpt>
<trkpt lat="46.2204055786132812" lon="7.3871703147888184"><ele></ele><time>2014-10-10T15:19:37Z</time></trkpt>
<trkpt lat="46.2203483581542969" lon="7.3868131637573242"><ele></ele><time>2014-10-10T15:19:40Z</time></trkpt>
<trkpt lat="46.2203788757324219" lon="7.3866577148437500"><ele></ele><time>2014-10-10T15:19:43Z</time></trkpt>
<trkpt lat="46.2203521728515625" lon="7.3862261772155762"><ele></ele><time>2014-10-10T15:19:46Z</time></trkpt>
<trkpt lat="46.2202148437500000" lon="7.3855500221252441"><ele></ele><time>2014-10-10T15:19:49Z</time></trkpt>
<trkpt lat="46.2200813293457031" lon="7.3848233222961426"><ele></ele><time>2014-10-10T15:19:52Z</time></trkpt>
<trkpt lat="46.2199172973632812" lon="7.3841190338134766"><ele></ele><time>2014-10-10T15:19:55Z</time></trkpt>
<trkpt lat="46.2197341918945312" lon="7.3835234642028809"><ele></ele><time>2014-10-10T15:19:58Z</time></trkpt>
<trkpt lat="46.2195320129394531" lon="7.3829064369201660"><ele></ele><time>2014-10-10T15:20:1Z</time></trkpt>
<trkpt lat="46.2195243835449219" lon="7.3826756477355957"><ele></ele><time>2014-10-10T15:20:4Z</time></trkpt>
<trkpt lat="46.2195739746093750" lon="7.3824119567871094"><ele></ele><time>2014-10-10T15:20:7Z</time></trkpt>
<trkpt lat="46.2193527221679688" lon="7.3818163871765137"><ele></ele><time>2014-10-10T15:20:10Z</time></trkpt>
<trkpt lat="46.2191619873046875" lon="7.3811573982238770"><ele></ele><time>2014-10-10T15:20:13Z</time></trkpt>
<trkpt lat="46.2189598083496094" lon="7.3805656433105469"><ele></ele><time>2014-10-10T15:20:16Z</time></trkpt>
<trkpt lat="46.2187995910644531" lon="7.3800749778747559"><ele></ele><time>2014-10-10T15:20:19Z</time></trkpt>
<trkpt lat="46.2187614440917969" lon="7.3794369697570801"><ele></ele><time>2014-10-10T15:20:22Z</time></trkpt>
<trkpt lat="46.2188224792480469" lon="7.3791294097900391"><ele></ele><time>2014-10-10T15:20:25Z</time></trkpt>
<trkpt lat="46.2187423706054688" lon="7.3785777091979980"><ele></ele><time>2014-10-10T15:20:28Z</time></trkpt>
<trkpt lat="46.2186546325683594" lon="7.3783712387084961"><ele></ele><time>2014-10-10T15:20:31Z</time></trkpt>
<trkpt lat="46.2186012268066406" lon="7.3781294822692871"><ele></ele><time>2014-10-10T15:20:34Z</time></trkpt>
<trkpt lat="46.2186584472656250" lon="7.3779568672180176"><ele></ele><time>2014-10-10T15:20:37Z</time></trkpt>
<trkpt lat="46.2187004089355469" lon="7.3772292137145996"><ele></ele><time>2014-10-10T15:20:40Z</time></trkpt>
<trkpt lat="46.2186622619628906" lon="7.3764448165893555"><ele></ele><time>2014-10-10T15:20:43Z</time></trkpt>
<trkpt lat="46.2187995910644531" lon="7.3759965896606445"><ele></ele><time>2014-10-10T15:20:46Z</time></trkpt>
<trkpt lat="46.2188644409179688" lon="7.3759989738464355"><ele></ele><time>2014-10-10T15:20:49Z</time></trkpt>
<trkpt lat="46.2189483642578125" lon="7.3762893676757812"><ele></ele><time>2014-10-10T15:20:52Z</time></trkpt>
<trkpt lat="46.2192077636718750" lon="7.3768553733825684"><ele></ele><time>2014-10-10T15:20:55Z</time></trkpt>
<trkpt lat="46.2194252014160156" lon="7.3772969245910645"><ele></ele><time>2014-10-10T15:20:58Z</time></trkpt>
<trkpt lat="46.2194519042968750" lon="7.3776588439941406"><ele></ele><time>2014-10-10T15:21:1Z</time></trkpt>
<trkpt lat="46.2197074890136719" lon="7.3783659934997559"><ele></ele><time>2014-10-10T15:21:4Z</time></trkpt>
<trkpt lat="46.2198829650878906" lon="7.3788633346557617"><ele></ele><time>2014-10-10T15:21:7Z</time></trkpt>
<trkpt lat="46.2199287414550781" lon="7.3791685104370117"><ele></ele><time>2014-10-10T15:21:10Z</time></trkpt>
<trkpt lat="46.2201652526855469" lon="7.3797516822814941"><ele></ele><time>2014-10-10T15:21:13Z</time></trkpt>
<trkpt lat="46.2204360961914062" lon="7.3803563117980957"><ele></ele><time>2014-10-10T15:21:16Z</time></trkpt>
<trkpt lat="46.2206230163574219" lon="7.3810238838195801"><ele></ele><time>2014-10-10T15:21:19Z</time></trkpt>
<trkpt lat="46.2206840515136719" lon="7.3811807632446289"><ele></ele><time>2014-10-10T15:21:22Z</time></trkpt>
<trkpt lat="46.2207069396972656" lon="7.3813295364379883"><ele></ele><time>2014-10-10T15:21:25Z</time></trkpt>
<trkpt lat="46.2208290100097656" lon="7.3815631866455078"><ele></ele><time>2014-10-10T15:21:28Z</time></trkpt>
<trkpt lat="46.2212295532226562" lon="7.3821172714233398"><ele></ele><time>2014-10-10T15:21:31Z</time></trkpt>
<trkpt lat="46.2212905883789062" lon="7.3822460174560547"><ele></ele><time>2014-10-10T15:21:34Z</time></trkpt>
<trkpt lat="46.2213897705078125" lon="7.3826060295104980"><ele></ele><time>2014-10-10T15:21:37Z</time></trkpt>
<trkpt lat="46.2214126586914062" lon="7.3826003074645996"><ele></ele><time>2014-10-10T15:21:40Z</time></trkpt>
<trkpt lat="46.2212600708007812" lon="7.3819775581359863"><ele></ele><time>2014-10-10T15:21:43Z</time></trkpt>
<trkpt lat="46.2211036682128906" lon="7.3812994956970215"><ele></ele><time>2014-10-10T15:21:46Z</time></trkpt>
<trkpt lat="46.2210083007812500" lon="7.3807439804077148"><ele></ele><time>2014-10-10T15:21:49Z</time></trkpt>
<trkpt lat="46.2210006713867188" lon="7.3803257942199707"><ele></ele><time>2014-10-10T15:21:52Z</time></trkpt>
<trkpt lat="46.2210426330566406" lon="7.3800396919250488"><ele></ele><time>2014-10-10T15:21:55Z</time></trkpt>
<trkpt lat="46.2211723327636719" lon="7.3796057701110840"><ele></ele><time>2014-10-10T15:21:58Z</time></trkpt>
<trkpt lat="46.2211608886718750" lon="7.3792834281921387"><ele></ele><time>2014-10-10T15:22:1Z</time></trkpt>
<trkpt lat="46.2210769653320312" lon="7.3788022994995117"><ele></ele><time>2014-10-10T15:22:4Z</time></trkpt>
<trkpt lat="46.2210388183593750" lon="7.3780975341796875"><ele></ele><time>2014-10-10T15:22:7Z</time></trkpt>
<trkpt lat="46.2209701538085938" lon="7.3775172233581543"><ele></ele><time>2014-10-10T15:22:10Z</time></trkpt>
<trkpt lat="46.2206916809082031" lon="7.3768801689147949"><ele></ele><time>2014-10-10T15:22:13Z</time></trkpt>
<trkpt lat="46.2204132080078125" lon="7.3762636184692383"><ele></ele><time>2014-10-10T15:22:16Z</time></trkpt>
<trkpt lat="46.2202949523925781" lon="7.3759307861328125"><ele></ele><time>2014-10-10T15:22:19Z</time></trkpt>
<trkpt lat="46.2202796936035156" lon="7.3755588531494141"><ele></ele><time>2014-10-10T15:22:22Z</time></trkpt>
<trkpt lat="46.2203941345214844" lon="7.3748149871826172"><ele></ele><time>2014-10-10T15:22:25Z</time></trkpt>
<trkpt lat="46.2203445434570312" lon="7.3740911483764648"><ele></ele><time>2014-10-10T15:22:28Z</time></trkpt>
<trkpt lat="46.2203254699707031" lon="7.3736391067504883"><ele></ele><time>2014-10-10T15:22:31Z</time></trkpt>
<trkpt lat="46.2203559875488281" lon="7.3735351562500000"><ele></ele><time>2014-10-10T15:22:34Z</time></trkpt>
<trkpt lat="46.2204055786132812" lon="7.3734803199768066"><ele></ele><time>2014-10-10T15:22:37Z</time></trkpt>
<trkpt lat="46.2204627990722656" lon="7.3735008239746094"><ele></ele><time>2014-10-10T15:22:40Z</time></trkpt>
<trkpt lat="46.2205009460449219" lon="7.3735790252685547"><ele></ele><time>2014-10-10T15:22:43Z</time></trkpt>
<trkpt lat="46.2204475402832031" lon="7.3740491867065430"><ele></ele><time>2014-10-10T15:22:46Z</time></trkpt>
<trkpt lat="46.2205009460449219" lon="7.3747773170471191"><ele></ele><time>2014-10-10T15:22:49Z</time></trkpt>
<trkpt lat="46.2205429077148438" lon="7.3754191398620605"><ele></ele><time>2014-10-10T15:22:52Z</time></trkpt>
<trkpt lat="46.2206192016601562" lon="7.3757238388061523"><ele></ele><time>2014-10-10T15:22:55Z</time></trkpt>
<trkpt lat="46.2209243774414062" lon="7.3762612342834473"><ele></ele><time>2014-10-10T15:22:58Z</time></trkpt>
<trkpt lat="46.2211074829101562" lon="7.3769030570983887"><ele></ele><time>2014-10-10T15:23:1Z</time></trkpt>
<trkpt lat="46.2214508056640625" lon="7.3774514198303223"><ele></ele><time>2014-10-10T15:23:4Z</time></trkpt>
<trkpt lat="46.2217178344726562" lon="7.3780932426452637"><ele></ele><time>2014-10-10T15:23:7Z</time></trkpt>
<trkpt lat="46.2218589782714844" lon="7.3786211013793945"><ele></ele><time>2014-10-10T15:23:10Z</time></trkpt>
<trkpt lat="46.2219772338867188" lon="7.3792867660522461"><ele></ele><time>2014-10-10T15:23:13Z</time></trkpt>
<trkpt lat="46.2222480773925781" lon="7.3799014091491699"><ele></ele><time>2014-10-10T15:23:16Z</time></trkpt>
<trkpt lat="46.2224960327148438" lon="7.3804640769958496"><ele></ele><time>2014-10-10T15:23:19Z</time></trkpt>
<trkpt lat="46.2225646972656250" lon="7.3806080818176270"><ele></ele><time>2014-10-10T15:23:22Z</time></trkpt>
<trkpt lat="46.2226486206054688" lon="7.3813247680664062"><ele></ele><time>2014-10-10T15:23:25Z</time></trkpt>
<trkpt lat="46.2227439880371094" lon="7.3818135261535645"><ele></ele><time>2014-10-10T15:23:28Z</time></trkpt>
<trkpt lat="46.2228813171386719" lon="7.3819289207458496"><ele></ele><time>2014-10-10T15:23:31Z</time></trkpt>
<trkpt lat="46.2229309082031250" lon="7.3819398880004883"><ele></ele><time>2014-10-10T15:23:34Z</time></trkpt>
<trkpt lat="46.2229652404785156" lon="7.3820409774780273"><ele></ele><time>2014-10-10T15:23:37Z</time></trkpt>
<trkpt lat="46.2229461669921875" lon="7.3821043968200684"><ele></ele><time>2014-10-10T15:23:40Z</time></trkpt>
<trkpt lat="46.2230339050292969" lon="7.3826031684875488"><ele></ele><time>2014-10-10T15:23:43Z</time></trkpt>
<trkpt lat="46.2231903076171875" lon="7.3832802772521973"><ele></ele><time>2014-10-10T15:23:46Z</time></trkpt>
<trkpt lat="46.2233009338378906" lon="7.3838095664978027"><ele></ele><time>2014-10-10T15:23:49Z</time></trkpt>
<trkpt lat="46.2235794067382812" lon="7.3843083381652832"><ele></ele><time>2014-10-10T15:23:52Z</time></trkpt>
<trkpt lat="46.2237091064453125" lon="7.3849697113037109"><ele></ele><time>2014-10-10T15:23:55Z</time></trkpt>
<trkpt lat="46.2237625122070312" lon="7.3852667808532715"><ele></ele><time>2014-10-10T15:23:58Z</time></trkpt>
<trkpt lat="46.2237892150878906" lon="7.3859672546386719"><ele></ele><time>2014-10-10T15:24:1Z</time></trkpt>
<trkpt lat="46.2238616943359375" lon="7.3865208625793457"><ele></ele><time>2014-10-10T15:24:4Z</time></trkpt>
<trkpt lat="46.2238693237304688" lon="7.3867292404174805"><ele></ele><time>2014-10-10T15:24:7Z</time></trkpt>
<trkpt lat="46.2239456176757812" lon="7.3869214057922363"><ele></ele><time>2014-10-10T15:24:10Z</time></trkpt>
<trkpt lat="46.2241210937500000" lon="7.3875236511230469"><ele></ele><time>2014-10-10T15:24:13Z</time></trkpt>
<trkpt lat="46.2242965698242188" lon="7.3879899978637695"><ele></ele><time>2014-10-10T15:24:16Z</time></trkpt>
<trkpt lat="46.2243881225585938" lon="7.3880648612976074"><ele></ele><time>2014-10-10T15:24:19Z</time></trkpt>
<trkpt lat="46.2244949340820312" lon="7.3879666328430176"><ele></ele><time>2014-10-10T15:24:22Z</time></trkpt>
<trkpt lat="46.2246055603027344" lon="7.3884124755859375"><ele></ele><time>2014-10-10T15:24:25Z</time></trkpt>
<trkpt lat="46.2245407104492188" lon="7.3878059387207031"><ele></ele><time>2014-10-10T15:24:28Z</time></trkpt>
<trkpt lat="46.2245712280273438" lon="7.3877663612365723"><ele></ele><time>2014-10-10T15:24:31Z</time></trkpt>
<trkpt lat="46.2246246337890625" lon="7.3877725601196289"><ele></ele><time>2014-10-10T15:24:34Z</time></trkpt>
<trkpt lat="46.2246627807617188" lon="7.3878302574157715"><ele></ele><time>2014-10-10T15:24:37Z</time></trkpt>
<trkpt lat="46.2248535156250000" lon="7.3885006904602051"><ele></ele><time>2014-10-10T15:24:40Z</time></trkpt>
<trkpt lat="46.2250404357910156" lon="7.3892583847045898"><ele></ele><time>2014-10-10T15:24:43Z</time></trkpt>
<trkpt lat="46.2251968383789062" lon="7.3900361061096191"><ele></ele><time>2014-10-10T15:24:46Z</time></trkpt>
<trkpt lat="46.2252349853515625" lon="7.3901472091674805"><ele></ele><time>2014-10-10T15:24:49Z</time></trkpt>
<trkpt lat="46.2253799438476562" lon="7.3903231620788574"><ele></ele><time>2014-10-10T15:24:52Z</time></trkpt>
<trkpt lat="46.2256431579589844" lon="7.3908548355102539"><ele></ele><time>2014-10-10T15:24:55Z</time></trkpt>
<trkpt lat="46.2258949279785156" lon="7.3914613723754883"><ele></ele><time>2014-10-10T15:24:58Z</time></trkpt>
<trkpt lat="46.2261810302734375" lon="7.3920793533325195"><ele></ele><time>2014-10-10T15:25:1Z</time></trkpt>
<trkpt lat="46.2265090942382812" lon="7.3927245140075684"><ele></ele><time>2014-10-10T15:25:4Z</time></trkpt>
<trkpt lat="46.2268180847167969" lon="7.3932480812072754"><ele></ele><time>2014-10-10T15:25:7Z</time></trkpt>
<trkpt lat="46.2269134521484375" lon="7.3939414024353027"><ele></ele><time>2014-10-10T15:25:10Z</time></trkpt>
<trkpt lat="46.2270584106445312" lon="7.3945469856262207"><ele></ele><time>2014-10-10T15:25:13Z</time></trkpt>
<trkpt lat="46.2271385192871094" lon="7.3947148323059082"><ele></ele><time>2014-10-10T15:25:16Z</time></trkpt>
<trkpt lat="46.2276077270507812" lon="7.3945670127868652"><ele></ele><time>2014-10-10T15:25:19Z</time></trkpt>
<trkpt lat="46.2281150817871094" lon="7.3943691253662109"><ele></ele><time>2014-10-10T15:25:22Z</time></trkpt>
<trkpt lat="46.2285575866699219" lon="7.3941779136657715"><ele></ele><time>2014-10-10T15:25:25Z</time></trkpt>
<trkpt lat="46.2290229797363281" lon="7.3939094543457031"><ele></ele><time>2014-10-10T15:25:28Z</time></trkpt>
<trkpt lat="46.2294769287109375" lon="7.3935985565185547"><ele></ele><time>2014-10-10T15:25:31Z</time></trkpt>
<trkpt lat="46.2297172546386719" lon="7.3935756683349609"><ele></ele><time>2014-10-10T15:25:34Z</time></trkpt>
<trkpt lat="46.2301750183105469" lon="7.3939800262451172"><ele></ele><time>2014-10-10T15:25:37Z</time></trkpt>
<trkpt lat="46.2305908203125000" lon="7.3943948745727539"><ele></ele><time>2014-10-10T15:25:40Z</time></trkpt>
<trkpt lat="46.2309494018554688" lon="7.3948183059692383"><ele></ele><time>2014-10-10T15:25:43Z</time></trkpt>
<trkpt lat="46.2313041687011719" lon="7.3953266143798828"><ele></ele><time>2014-10-10T15:25:46Z</time></trkpt>
<trkpt lat="46.2316436767578125" lon="7.3959517478942871"><ele></ele><time>2014-10-10T15:25:49Z</time></trkpt>
<trkpt lat="46.2319145202636719" lon="7.3965015411376953"><ele></ele><time>2014-10-10T15:25:52Z</time></trkpt>
<trkpt lat="46.2320213317871094" lon="7.3966856002807617"><ele></ele><time>2014-10-10T15:25:55Z</time></trkpt>
<trkpt lat="46.2323265075683594" lon="7.3962640762329102"><ele></ele><time>2014-10-10T15:25:58Z</time></trkpt>
<trkpt lat="46.2325286865234375" lon="7.3957533836364746"><ele></ele><time>2014-10-10T15:26:1Z</time></trkpt>
<trkpt lat="46.2326431274414062" lon="7.3953828811645508"><ele></ele><time>2014-10-10T15:26:4Z</time></trkpt>
<trkpt lat="46.2326393127441406" lon="7.3952531814575195"><ele></ele><time>2014-10-10T15:26:7Z</time></trkpt>
<trkpt lat="46.2327041625976562" lon="7.3949227333068848"><ele></ele><time>2014-10-10T15:26:10Z</time></trkpt>
<trkpt lat="46.2326812744140625" lon="7.3947930335998535"><ele></ele><time>2014-10-10T15:26:13Z</time></trkpt>
<trkpt lat="46.2328872680664062" lon="7.3941082954406738"><ele></ele><time>2014-10-10T15:26:16Z</time></trkpt>
<trkpt lat="46.2331657409667969" lon="7.3936309814453125"><ele></ele><time>2014-10-10T15:26:19Z</time></trkpt>
<trkpt lat="46.2333831787109375" lon="7.3934593200683594"><ele></ele><time>2014-10-10T15:26:22Z</time></trkpt>
<trkpt lat="46.2338333129882812" lon="7.3932762145996094"><ele></ele><time>2014-10-10T15:26:25Z</time></trkpt>
<trkpt lat="46.2341575622558594" lon="7.3931603431701660"><ele></ele><time>2014-10-10T15:26:28Z</time></trkpt>
<trkpt lat="46.2345886230468750" lon="7.3928956985473633"><ele></ele><time>2014-10-10T15:26:31Z</time></trkpt>
<trkpt lat="46.2349967956542969" lon="7.3926129341125488"><ele></ele><time>2014-10-10T15:26:34Z</time></trkpt>
<trkpt lat="46.2355003356933594" lon="7.3922080993652344"><ele></ele><time>2014-10-10T15:26:37Z</time></trkpt>
<trkpt lat="46.2359466552734375" lon="7.3917827606201172"><ele></ele><time>2014-10-10T15:26:40Z</time></trkpt>
<trkpt lat="46.2362060546875000" lon="7.3914828300476074"><ele></ele><time>2014-10-10T15:26:43Z</time></trkpt>
<trkpt lat="46.2365036010742188" lon="7.3910722732543945"><ele></ele><time>2014-10-10T15:26:46Z</time></trkpt>
<trkpt lat="46.2367324829101562" lon="7.3905444145202637"><ele></ele><time>2014-10-10T15:26:49Z</time></trkpt>
<trkpt lat="46.2368202209472656" lon="7.3902344703674316"><ele></ele><time>2014-10-10T15:26:52Z</time></trkpt>
<trkpt lat="46.2371597290039062" lon="7.3896250724792480"><ele></ele><time>2014-10-10T15:26:55Z</time></trkpt>
<trkpt lat="46.2372131347656250" lon="7.3895363807678223"><ele></ele><time>2014-10-10T15:26:58Z</time></trkpt>
<trkpt lat="46.2372970581054688" lon="7.3893218040466309"><ele></ele><time>2014-10-10T15:27:1Z</time></trkpt>
<trkpt lat="46.2375221252441406" lon="7.3890957832336426"><ele></ele><time>2014-10-10T15:27:4Z</time></trkpt>
<trkpt lat="46.2378616333007812" lon="7.3886656761169434"><ele></ele><time>2014-10-10T15:27:7Z</time></trkpt>
<trkpt lat="46.2380905151367188" lon="7.3883943557739258"><ele></ele><time>2014-10-10T15:27:10Z</time></trkpt>
<trkpt lat="46.2384834289550781" lon="7.3880925178527832"><ele></ele><time>2014-10-10T15:27:13Z</time></trkpt>
<trkpt lat="46.2388648986816406" lon="7.3877291679382324"><ele></ele><time>2014-10-10T15:27:16Z</time></trkpt>
<trkpt lat="46.2391853332519531" lon="7.3875689506530762"><ele></ele><time>2014-10-10T15:27:19Z</time></trkpt>
<trkpt lat="46.2395439147949219" lon="7.3871707916259766"><ele></ele><time>2014-10-10T15:27:22Z</time></trkpt>
<trkpt lat="46.2399673461914062" lon="7.3867459297180176"><ele></ele><time>2014-10-10T15:27:25Z</time></trkpt>
<trkpt lat="46.2403907775878906" lon="7.3864331245422363"><ele></ele><time>2014-10-10T15:27:28Z</time></trkpt>
<trkpt lat="46.2408447265625000" lon="7.3860530853271484"><ele></ele><time>2014-10-10T15:27:31Z</time></trkpt>
<trkpt lat="46.2412567138671875" lon="7.3857197761535645"><ele></ele><time>2014-10-10T15:27:34Z</time></trkpt>
<trkpt lat="46.2416687011718750" lon="7.3854165077209473"><ele></ele><time>2014-10-10T15:27:37Z</time></trkpt>
<trkpt lat="46.2419281005859375" lon="7.3851318359375000"><ele></ele><time>2014-10-10T15:27:40Z</time></trkpt>
<trkpt lat="46.2423019409179688" lon="7.3848280906677246"><ele></ele><time>2014-10-10T15:27:43Z</time></trkpt>
<trkpt lat="46.2423553466796875" lon="7.3847389221191406"><ele></ele><time>2014-10-10T15:27:46Z</time></trkpt>
<trkpt lat="46.2426414489746094" lon="7.3844871520996094"><ele></ele><time>2014-10-10T15:27:49Z</time></trkpt>
<trkpt lat="46.2430191040039062" lon="7.3840832710266113"><ele></ele><time>2014-10-10T15:27:52Z</time></trkpt>
<trkpt lat="46.2433433532714844" lon="7.3836507797241211"><ele></ele><time>2014-10-10T15:27:55Z</time></trkpt>
<trkpt lat="46.2435684204101562" lon="7.3831648826599121"><ele></ele><time>2014-10-10T15:27:58Z</time></trkpt>
<trkpt lat="46.2437515258789062" lon="7.3830304145812988"><ele></ele><time>2014-10-10T15:28:1Z</time></trkpt>
<trkpt lat="46.2439346313476562" lon="7.3831954002380371"><ele></ele><time>2014-10-10T15:28:4Z</time></trkpt>
<trkpt lat="46.2440223693847656" lon="7.3833708763122559"><ele></ele><time>2014-10-10T15:28:7Z</time></trkpt>
<trkpt lat="46.2440719604492188" lon="7.3836989402770996"><ele></ele><time>2014-10-10T15:28:10Z</time></trkpt>
<trkpt lat="46.2441406250000000" lon="7.3838086128234863"><ele></ele><time>2014-10-10T15:28:13Z</time></trkpt>
<trkpt lat="46.2440910339355469" lon="7.3839349746704102"><ele></ele><time>2014-10-10T15:28:16Z</time></trkpt>
<trkpt lat="46.2440986633300781" lon="7.3840546607971191"><ele></ele><time>2014-10-10T15:28:19Z</time></trkpt>
<trkpt lat="46.2442207336425781" lon="7.3847713470458984"><ele></ele><time>2014-10-10T15:28:22Z</time></trkpt>
<trkpt lat="46.2443275451660156" lon="7.3854298591613770"><ele></ele><time>2014-10-10T15:28:25Z</time></trkpt>
<trkpt lat="46.2444076538085938" lon="7.3861308097839355"><ele></ele><time>2014-10-10T15:28:28Z</time></trkpt>
<trkpt lat="46.2444458007812500" lon="7.3864932060241699"><ele></ele><time>2014-10-10T15:28:31Z</time></trkpt>
<trkpt lat="46.2444801330566406" lon="7.3871054649353027"><ele></ele><time>2014-10-10T15:28:34Z</time></trkpt>
<trkpt lat="46.2445640563964844" lon="7.3878564834594727"><ele></ele><time>2014-10-10T15:28:37Z</time></trkpt>
<trkpt lat="46.2445945739746094" lon="7.3883547782897949"><ele></ele><time>2014-10-10T15:28:40Z</time></trkpt>
<trkpt lat="46.2445869445800781" lon="7.3890972137451172"><ele></ele><time>2014-10-10T15:28:43Z</time></trkpt>
<trkpt lat="46.2445411682128906" lon="7.3898258209228516"><ele></ele><time>2014-10-10T15:28:46Z</time></trkpt>
<trkpt lat="46.2445487976074219" lon="7.3904471397399902"><ele></ele><time>2014-10-10T15:28:49Z</time></trkpt>
<trkpt lat="46.2445144653320312" lon="7.3910970687866211"><ele></ele><time>2014-10-10T15:28:52Z</time></trkpt>
<trkpt lat="46.2444992065429688" lon="7.3918294906616211"><ele></ele><time>2014-10-10T15:28:55Z</time></trkpt>
<trkpt lat="46.2445068359375000" lon="7.3923072814941406"><ele></ele><time>2014-10-10T15:28:58Z</time></trkpt>
<trkpt lat="46.2444305419921875" lon="7.3929481506347656"><ele></ele><time>2014-10-10T15:29:1Z</time></trkpt>
<trkpt lat="46.2443618774414062" lon="7.3936524391174316"><ele></ele><time>2014-10-10T15:29:4Z</time></trkpt>
<trkpt lat="46.2443389892578125" lon="7.3943667411804199"><ele></ele><time>2014-10-10T15:29:7Z</time></trkpt>
<trkpt lat="46.2443313598632812" lon="7.3950595855712891"><ele></ele><time>2014-10-10T15:29:10Z</time></trkpt>
<trkpt lat="46.2443504333496094" lon="7.3957672119140625"><ele></ele><time>2014-10-10T15:29:13Z</time></trkpt>
<trkpt lat="46.2443466186523438" lon="7.3964815139770508"><ele></ele><time>2014-10-10T15:29:16Z</time></trkpt>
<trkpt lat="46.2443389892578125" lon="7.3971805572509766"><ele></ele><time>2014-10-10T15:29:19Z</time></trkpt>
<trkpt lat="46.2443618774414062" lon="7.3978753089904785"><ele></ele><time>2014-10-10T15:29:22Z</time></trkpt>
<trkpt lat="46.2443161010742188" lon="7.3986034393310547"><ele></ele><time>2014-10-10T15:29:25Z</time></trkpt>
<trkpt lat="46.2443084716796875" lon="7.3989648818969727"><ele></ele><time>2014-10-10T15:29:28Z</time></trkpt>
<trkpt lat="46.2442741394042969" lon="7.3990645408630371"><ele></ele><time>2014-10-10T15:29:31Z</time></trkpt>
<trkpt lat="46.2442512512207031" lon="7.3998098373413086"><ele></ele><time>2014-10-10T15:29:34Z</time></trkpt>
<trkpt lat="46.2442092895507812" lon="7.4005007743835449"><ele></ele><time>2014-10-10T15:29:37Z</time></trkpt>
<trkpt lat="46.2441635131835938" lon="7.4012074470520020"><ele></ele><time>2014-10-10T15:29:40Z</time></trkpt>
<trkpt lat="46.2441406250000000" lon="7.4018974304199219"><ele></ele><time>2014-10-10T15:29:43Z</time></trkpt>
<trkpt lat="46.2441215515136719" lon="7.4025878906250000"><ele></ele><time>2014-10-10T15:29:46Z</time></trkpt>
<trkpt lat="46.2440452575683594" lon="7.4032626152038574"><ele></ele><time>2014-10-10T15:29:49Z</time></trkpt>
<trkpt lat="46.2439575195312500" lon="7.4039044380187988"><ele></ele><time>2014-10-10T15:29:52Z</time></trkpt>
<trkpt lat="46.2439117431640625" lon="7.4043517112731934"><ele></ele><time>2014-10-10T15:29:55Z</time></trkpt>
<trkpt lat="46.2438812255859375" lon="7.4044499397277832"><ele></ele><time>2014-10-10T15:29:58Z</time></trkpt>
<trkpt lat="46.2438163757324219" lon="7.4051079750061035"><ele></ele><time>2014-10-10T15:30:1Z</time></trkpt>
<trkpt lat="46.2436561584472656" lon="7.4057679176330566"><ele></ele><time>2014-10-10T15:30:4Z</time></trkpt>
<trkpt lat="46.2433700561523438" lon="7.4063863754272461"><ele></ele><time>2014-10-10T15:30:7Z</time></trkpt>
<trkpt lat="46.2431907653808594" lon="7.4067754745483398"><ele></ele><time>2014-10-10T15:30:10Z</time></trkpt>
<trkpt lat="46.2428627014160156" lon="7.4073104858398438"><ele></ele><time>2014-10-10T15:30:13Z</time></trkpt>
<trkpt lat="46.2425842285156250" lon="7.4078822135925293"><ele></ele><time>2014-10-10T15:30:16Z</time></trkpt>
<trkpt lat="46.2422904968261719" lon="7.4084367752075195"><ele></ele><time>2014-10-10T15:30:19Z</time></trkpt>
<trkpt lat="46.2419776916503906" lon="7.4090256690979004"><ele></ele><time>2014-10-10T15:30:22Z</time></trkpt>
<trkpt lat="46.2417030334472656" lon="7.4096360206604004"><ele></ele><time>2014-10-10T15:30:25Z</time></trkpt>
<trkpt lat="46.2416076660156250" lon="7.4099197387695312"><ele></ele><time>2014-10-10T15:30:28Z</time></trkpt>
<trkpt lat="46.2413406372070312" lon="7.4104061126708984"><ele></ele><time>2014-10-10T15:30:31Z</time></trkpt>
<trkpt lat="46.2410125732421875" lon="7.4109239578247070"><ele></ele><time>2014-10-10T15:30:34Z</time></trkpt>
<trkpt lat="46.2407608032226562" lon="7.4112954139709473"><ele></ele><time>2014-10-10T15:30:37Z</time></trkpt>
<trkpt lat="46.2405014038085938" lon="7.4118900299072266"><ele></ele><time>2014-10-10T15:30:40Z</time></trkpt>
<trkpt lat="46.2402839660644531" lon="7.4125370979309082"><ele></ele><time>2014-10-10T15:30:43Z</time></trkpt>
<trkpt lat="46.2402534484863281" lon="7.4126319885253906"><ele></ele><time>2014-10-10T15:30:46Z</time></trkpt>
<trkpt lat="46.2401924133300781" lon="7.4127235412597656"><ele></ele><time>2014-10-10T15:30:49Z</time></trkpt>
<trkpt lat="46.2400131225585938" lon="7.4133329391479492"><ele></ele><time>2014-10-10T15:30:52Z</time></trkpt>
<trkpt lat="46.2398834228515625" lon="7.4139533042907715"><ele></ele><time>2014-10-10T15:30:55Z</time></trkpt>
<trkpt lat="46.2397270202636719" lon="7.4145631790161133"><ele></ele><time>2014-10-10T15:30:58Z</time></trkpt>
<trkpt lat="46.2396545410156250" lon="7.4149818420410156"><ele></ele><time>2014-10-10T15:31:1Z</time></trkpt>
<trkpt lat="46.2396163940429688" lon="7.4157400131225586"><ele></ele><time>2014-10-10T15:31:4Z</time></trkpt>
<trkpt lat="46.2396240234375000" lon="7.4160456657409668"><ele></ele><time>2014-10-10T15:31:7Z</time></trkpt>
<trkpt lat="46.2395553588867188" lon="7.4166402816772461"><ele></ele><time>2014-10-10T15:31:10Z</time></trkpt>
<trkpt lat="46.2395553588867188" lon="7.4172959327697754"><ele></ele><time>2014-10-10T15:31:13Z</time></trkpt>
<trkpt lat="46.2396125793457031" lon="7.4175996780395508"><ele></ele><time>2014-10-10T15:31:16Z</time></trkpt>
<trkpt lat="46.2396202087402344" lon="7.4178953170776367"><ele></ele><time>2014-10-10T15:31:19Z</time></trkpt>
<trkpt lat="46.2397537231445312" lon="7.4186291694641113"><ele></ele><time>2014-10-10T15:31:22Z</time></trkpt>
<trkpt lat="46.2398338317871094" lon="7.4191384315490723"><ele></ele><time>2014-10-10T15:31:25Z</time></trkpt>
<trkpt lat="46.2399978637695312" lon="7.4197430610656738"><ele></ele><time>2014-10-10T15:31:28Z</time></trkpt>
<trkpt lat="46.2401771545410156" lon="7.4204239845275879"><ele></ele><time>2014-10-10T15:31:31Z</time></trkpt>
<trkpt lat="46.2404136657714844" lon="7.4210014343261719"><ele></ele><time>2014-10-10T15:31:34Z</time></trkpt>
<trkpt lat="46.2406349182128906" lon="7.4214797019958496"><ele></ele><time>2014-10-10T15:31:37Z</time></trkpt>
<trkpt lat="46.2409629821777344" lon="7.4219717979431152"><ele></ele><time>2014-10-10T15:31:40Z</time></trkpt>
<trkpt lat="46.2410049438476562" lon="7.4220442771911621"><ele></ele><time>2014-10-10T15:31:43Z</time></trkpt>
<trkpt lat="46.2410125732421875" lon="7.4221410751342773"><ele></ele><time>2014-10-10T15:31:46Z</time></trkpt>
<trkpt lat="46.2411499023437500" lon="7.4224591255187988"><ele></ele><time>2014-10-10T15:31:49Z</time></trkpt>
<trkpt lat="46.2410659790039062" lon="7.4223942756652832"><ele></ele><time>2014-10-10T15:31:52Z</time></trkpt>
<trkpt lat="46.2409591674804688" lon="7.4221262931823730"><ele></ele><time>2014-10-10T15:31:55Z</time></trkpt>
<trkpt lat="46.2413368225097656" lon="7.4217004776000977"><ele></ele><time>2014-10-10T15:31:58Z</time></trkpt>
<trkpt lat="46.2416572570800781" lon="7.4213352203369141"><ele></ele><time>2014-10-10T15:32:1Z</time></trkpt>
<trkpt lat="46.2417297363281250" lon="7.4212956428527832"><ele></ele><time>2014-10-10T15:32:4Z</time></trkpt>
<trkpt lat="46.2417869567871094" lon="7.4213204383850098"><ele></ele><time>2014-10-10T15:32:7Z</time></trkpt>
<trkpt lat="46.2418403625488281" lon="7.4215111732482910"><ele></ele><time>2014-10-10T15:32:10Z</time></trkpt>
<trkpt lat="46.2420539855957031" lon="7.4218578338623047"><ele></ele><time>2014-10-10T15:32:13Z</time></trkpt>
<trkpt lat="46.2424392700195312" lon="7.4222388267517090"><ele></ele><time>2014-10-10T15:32:16Z</time></trkpt>
<trkpt lat="46.2425308227539062" lon="7.4226236343383789"><ele></ele><time>2014-10-10T15:32:19Z</time></trkpt>
<trkpt lat="46.2426338195800781" lon="7.4226679801940918"><ele></ele><time>2014-10-10T15:32:22Z</time></trkpt>
<trkpt lat="46.2430534362792969" lon="7.4224104881286621"><ele></ele><time>2014-10-10T15:32:25Z</time></trkpt>
<trkpt lat="46.2430992126464844" lon="7.4223799705505371"><ele></ele><time>2014-10-10T15:32:28Z</time></trkpt>
<trkpt lat="46.2430953979492188" lon="7.4224348068237305"><ele></ele><time>2014-10-10T15:32:31Z</time></trkpt>
<trkpt lat="46.2431678771972656" lon="7.4226136207580566"><ele></ele><time>2014-10-10T15:32:34Z</time></trkpt>
<trkpt lat="46.2432060241699219" lon="7.4225869178771973"><ele></ele><time>2014-10-10T15:32:37Z</time></trkpt>
<trkpt lat="46.2432060241699219" lon="7.4227066040039062"><ele></ele><time>2014-10-10T15:32:40Z</time></trkpt>
<trkpt lat="46.2431411743164062" lon="7.4227190017700195"><ele></ele><time>2014-10-10T15:32:43Z</time></trkpt>
<trkpt lat="46.2432861328125000" lon="7.4224419593811035"><ele></ele><time>2014-10-10T15:32:46Z</time></trkpt>
<trkpt lat="46.2432518005371094" lon="7.4222779273986816"><ele></ele><time>2014-10-10T15:32:49Z</time></trkpt>
<trkpt lat="46.2436676025390625" lon="7.4220266342163086"><ele></ele><time>2014-10-10T15:32:52Z</time></trkpt>
<trkpt lat="46.2440948486328125" lon="7.4218091964721680"><ele></ele><time>2014-10-10T15:32:55Z</time></trkpt>
<trkpt lat="46.2445220947265625" lon="7.4215855598449707"><ele></ele><time>2014-10-10T15:32:58Z</time></trkpt>
<trkpt lat="46.2449684143066406" lon="7.4213542938232422"><ele></ele><time>2014-10-10T15:33:1Z</time></trkpt>
<trkpt lat="46.2454299926757812" lon="7.4211230278015137"><ele></ele><time>2014-10-10T15:33:4Z</time></trkpt>
<trkpt lat="46.2459144592285156" lon="7.4208836555480957"><ele></ele><time>2014-10-10T15:33:7Z</time></trkpt>
<trkpt lat="46.2463645935058594" lon="7.4206585884094238"><ele></ele><time>2014-10-10T15:33:10Z</time></trkpt>
<trkpt lat="46.2468223571777344" lon="7.4204254150390625"><ele></ele><time>2014-10-10T15:33:13Z</time></trkpt>
<trkpt lat="46.2472763061523438" lon="7.4201893806457520"><ele></ele><time>2014-10-10T15:33:16Z</time></trkpt>
<trkpt lat="46.2475891113281250" lon="7.4200196266174316"><ele></ele><time>2014-10-10T15:33:19Z</time></trkpt>
<trkpt lat="46.2477226257324219" lon="7.4199995994567871"><ele></ele><time>2014-10-10T15:33:22Z</time></trkpt>
<trkpt lat="46.2481689453125000" lon="7.4197130203247070"><ele></ele><time>2014-10-10T15:33:25Z</time></trkpt>
<trkpt lat="46.2486228942871094" lon="7.4194779396057129"><ele></ele><time>2014-10-10T15:33:28Z</time></trkpt>
<trkpt lat="46.2489395141601562" lon="7.4193091392517090"><ele></ele><time>2014-10-10T15:33:31Z</time></trkpt>
<trkpt lat="46.2493667602539062" lon="7.4190316200256348"><ele></ele><time>2014-10-10T15:33:34Z</time></trkpt>
<trkpt lat="46.2498092651367188" lon="7.4187788963317871"><ele></ele><time>2014-10-10T15:33:37Z</time></trkpt>
<trkpt lat="46.2502403259277344" lon="7.4185566902160645"><ele></ele><time>2014-10-10T15:33:40Z</time></trkpt>
<trkpt lat="46.2505645751953125" lon="7.4184150695800781"><ele></ele><time>2014-10-10T15:33:43Z</time></trkpt>
<trkpt lat="46.2506866455078125" lon="7.4184112548828125"><ele></ele><time>2014-10-10T15:33:46Z</time></trkpt>
<trkpt lat="46.2508430480957031" lon="7.4186091423034668"><ele></ele><time>2014-10-10T15:33:49Z</time></trkpt>
<trkpt lat="46.2508544921875000" lon="7.4187278747558594"><ele></ele><time>2014-10-10T15:33:52Z</time></trkpt>
<trkpt lat="46.2510948181152344" lon="7.4192886352539062"><ele></ele><time>2014-10-10T15:33:55Z</time></trkpt>
<trkpt lat="46.2513465881347656" lon="7.4199142456054688"><ele></ele><time>2014-10-10T15:33:58Z</time></trkpt>
<trkpt lat="46.2515716552734375" lon="7.4205141067504883"><ele></ele><time>2014-10-10T15:34:1Z</time></trkpt>
<trkpt lat="46.2517890930175781" lon="7.4211354255676270"><ele></ele><time>2014-10-10T15:34:4Z</time></trkpt>
<trkpt lat="46.2519836425781250" lon="7.4217472076416016"><ele></ele><time>2014-10-10T15:34:7Z</time></trkpt>
<trkpt lat="46.2521438598632812" lon="7.4223761558532715"><ele></ele><time>2014-10-10T15:34:10Z</time></trkpt>
<trkpt lat="46.2523193359375000" lon="7.4230551719665527"><ele></ele><time>2014-10-10T15:34:13Z</time></trkpt>
<trkpt lat="46.2524185180664062" lon="7.4233794212341309"><ele></ele><time>2014-10-10T15:34:16Z</time></trkpt>
<trkpt lat="46.2524986267089844" lon="7.4234724044799805"><ele></ele><time>2014-10-10T15:34:19Z</time></trkpt>
<trkpt lat="46.2526321411132812" lon="7.4234786033630371"><ele></ele><time>2014-10-10T15:34:22Z</time></trkpt>
<trkpt lat="46.2528076171875000" lon="7.4233951568603516"><ele></ele><time>2014-10-10T15:34:25Z</time></trkpt>
<trkpt lat="46.2531738281250000" lon="7.4230165481567383"><ele></ele><time>2014-10-10T15:34:28Z</time></trkpt>
<trkpt lat="46.2534866333007812" lon="7.4225277900695801"><ele></ele><time>2014-10-10T15:34:31Z</time></trkpt>
<trkpt lat="46.2535438537597656" lon="7.4224376678466797"><ele></ele><time>2014-10-10T15:34:34Z</time></trkpt>
<trkpt lat="46.2536506652832031" lon="7.4219741821289062"><ele></ele><time>2014-10-10T15:34:37Z</time></trkpt>
<trkpt lat="46.2536125183105469" lon="7.4218444824218750"><ele></ele><time>2014-10-10T15:34:40Z</time></trkpt>
<trkpt lat="46.2536201477050781" lon="7.4211282730102539"><ele></ele><time>2014-10-10T15:34:43Z</time></trkpt>
<trkpt lat="46.2536125183105469" lon="7.4204463958740234"><ele></ele><time>2014-10-10T15:34:46Z</time></trkpt>
<trkpt lat="46.2535934448242188" lon="7.4197168350219727"><ele></ele><time>2014-10-10T15:34:49Z</time></trkpt>
<trkpt lat="46.2535743713378906" lon="7.4190549850463867"><ele></ele><time>2014-10-10T15:34:52Z</time></trkpt>
<trkpt lat="46.2535743713378906" lon="7.4188351631164551"><ele></ele><time>2014-10-10T15:34:55Z</time></trkpt>
<trkpt lat="46.2535362243652344" lon="7.4186353683471680"><ele></ele><time>2014-10-10T15:34:58Z</time></trkpt>
<trkpt lat="46.2535667419433594" lon="7.4183487892150879"><ele></ele><time>2014-10-10T15:35:1Z</time></trkpt>
<trkpt lat="46.2538490295410156" lon="7.4178104400634766"><ele></ele><time>2014-10-10T15:35:4Z</time></trkpt>
<trkpt lat="46.2542190551757812" lon="7.4173307418823242"><ele></ele><time>2014-10-10T15:35:7Z</time></trkpt>
<trkpt lat="46.2544822692871094" lon="7.4169979095458984"><ele></ele><time>2014-10-10T15:35:10Z</time></trkpt>
<trkpt lat="46.2545623779296875" lon="7.4169616699218750"><ele></ele><time>2014-10-10T15:35:13Z</time></trkpt>
<trkpt lat="46.2545852661132812" lon="7.4168725013732910"><ele></ele><time>2014-10-10T15:35:16Z</time></trkpt>
<trkpt lat="46.2548065185546875" lon="7.4165568351745605"><ele></ele><time>2014-10-10T15:35:19Z</time></trkpt>
<trkpt lat="46.2548408508300781" lon="7.4165549278259277"><ele></ele><time>2014-10-10T15:35:22Z</time></trkpt>
<trkpt lat="46.2550163269042969" lon="7.4169116020202637"><ele></ele><time>2014-10-10T15:35:25Z</time></trkpt>
<trkpt lat="46.2552146911621094" lon="7.4172186851501465"><ele></ele><time>2014-10-10T15:35:28Z</time></trkpt>
<trkpt lat="46.2552757263183594" lon="7.4174432754516602"><ele></ele><time>2014-10-10T15:35:31Z</time></trkpt>
<trkpt lat="46.2554473876953125" lon="7.4177455902099609"><ele></ele><time>2014-10-10T15:35:34Z</time></trkpt>
<trkpt lat="46.2555007934570312" lon="7.4180798530578613"><ele></ele><time>2014-10-10T15:35:37Z</time></trkpt>
<trkpt lat="46.2554817199707031" lon="7.4182968139648438"><ele></ele><time>2014-10-10T15:35:40Z</time></trkpt>
<trkpt lat="46.2553939819335938" lon="7.4185156822204590"><ele></ele><time>2014-10-10T15:35:43Z</time></trkpt>
<trkpt lat="46.2554626464843750" lon="7.4188132286071777"><ele></ele><time>2014-10-10T15:35:46Z</time></trkpt>
<trkpt lat="46.2555618286132812" lon="7.4194593429565430"><ele></ele><time>2014-10-10T15:35:49Z</time></trkpt>
<trkpt lat="46.2557716369628906" lon="7.4199953079223633"><ele></ele><time>2014-10-10T15:35:52Z</time></trkpt>
<trkpt lat="46.2558975219726562" lon="7.4199600219726562"><ele></ele><time>2014-10-10T15:35:55Z</time></trkpt>
<trkpt lat="46.2561111450195312" lon="7.4197320938110352"><ele></ele><time>2014-10-10T15:35:58Z</time></trkpt>
<trkpt lat="46.2562866210937500" lon="7.4198613166809082"><ele></ele><time>2014-10-10T15:36:1Z</time></trkpt>
<trkpt lat="46.2565536499023438" lon="7.4204163551330566"><ele></ele><time>2014-10-10T15:36:4Z</time></trkpt>
<trkpt lat="46.2567405700683594" lon="7.4210286140441895"><ele></ele><time>2014-10-10T15:36:7Z</time></trkpt>
<trkpt lat="46.2569923400878906" lon="7.4216356277465820"><ele></ele><time>2014-10-10T15:36:10Z</time></trkpt>
<trkpt lat="46.2570724487304688" lon="7.4218697547912598"><ele></ele><time>2014-10-10T15:36:13Z</time></trkpt>
<trkpt lat="46.2571449279785156" lon="7.4218740463256836"><ele></ele><time>2014-10-10T15:36:16Z</time></trkpt>
<trkpt lat="46.2571830749511719" lon="7.4218325614929199"><ele></ele><time>2014-10-10T15:36:19Z</time></trkpt>
<trkpt lat="46.2570648193359375" lon="7.4211888313293457"><ele></ele><time>2014-10-10T15:36:22Z</time></trkpt>
<trkpt lat="46.2573471069335938" lon="7.4211740493774414"><ele></ele><time>2014-10-10T15:36:25Z</time></trkpt>
<trkpt lat="46.2576560974121094" lon="7.4216508865356445"><ele></ele><time>2014-10-10T15:36:28Z</time></trkpt>
<trkpt lat="46.2580070495605469" lon="7.4221105575561523"><ele></ele><time>2014-10-10T15:36:31Z</time></trkpt>
<trkpt lat="46.2580680847167969" lon="7.4227714538574219"><ele></ele><time>2014-10-10T15:36:34Z</time></trkpt>
<trkpt lat="46.2580986022949219" lon="7.4232797622680664"><ele></ele><time>2014-10-10T15:36:37Z</time></trkpt>
<trkpt lat="46.2581481933593750" lon="7.4232983589172363"><ele></ele><time>2014-10-10T15:36:40Z</time></trkpt>
<trkpt lat="46.2583122253417969" lon="7.4226565361022949"><ele></ele><time>2014-10-10T15:36:43Z</time></trkpt>
<trkpt lat="46.2583847045898438" lon="7.4219856262207031"><ele></ele><time>2014-10-10T15:36:46Z</time></trkpt>
<trkpt lat="46.2581863403320312" lon="7.4213910102844238"><ele></ele><time>2014-10-10T15:36:49Z</time></trkpt>
<trkpt lat="46.2583198547363281" lon="7.4207301139831543"><ele></ele><time>2014-10-10T15:36:52Z</time></trkpt>
<trkpt lat="46.2584152221679688" lon="7.4204826354980469"><ele></ele><time>2014-10-10T15:36:55Z</time></trkpt>
<trkpt lat="46.2584190368652344" lon="7.4203987121582031"><ele></ele><time>2014-10-10T15:36:58Z</time></trkpt>
<trkpt lat="46.2583160400390625" lon="7.4197649955749512"><ele></ele><time>2014-10-10T15:37:1Z</time></trkpt>
<trkpt lat="46.2582855224609375" lon="7.4190816879272461"><ele></ele><time>2014-10-10T15:37:4Z</time></trkpt>
<trkpt lat="46.2581634521484375" lon="7.4184560775756836"><ele></ele><time>2014-10-10T15:37:7Z</time></trkpt>
<trkpt lat="46.2581863403320312" lon="7.4180784225463867"><ele></ele><time>2014-10-10T15:37:10Z</time></trkpt>
<trkpt lat="46.2582855224609375" lon="7.4179787635803223"><ele></ele><time>2014-10-10T15:37:13Z</time></trkpt>
<trkpt lat="46.2587013244628906" lon="7.4179043769836426"><ele></ele><time>2014-10-10T15:37:16Z</time></trkpt>
<trkpt lat="46.2591514587402344" lon="7.4178042411804199"><ele></ele><time>2014-10-10T15:37:19Z</time></trkpt>
<trkpt lat="46.2594108581542969" lon="7.4177527427673340"><ele></ele><time>2014-10-10T15:37:22Z</time></trkpt>
<trkpt lat="46.2594642639160156" lon="7.4177951812744141"><ele></ele><time>2014-10-10T15:37:25Z</time></trkpt>
<trkpt lat="46.2594985961914062" lon="7.4179201126098633"><ele></ele><time>2014-10-10T15:37:28Z</time></trkpt>
<trkpt lat="46.2594223022460938" lon="7.4183878898620605"><ele></ele><time>2014-10-10T15:37:31Z</time></trkpt>
<trkpt lat="46.2595176696777344" lon="7.4190263748168945"><ele></ele><time>2014-10-10T15:37:34Z</time></trkpt>
<trkpt lat="46.2598457336425781" lon="7.4194874763488770"><ele></ele><time>2014-10-10T15:37:37Z</time></trkpt>
<trkpt lat="46.2600593566894531" lon="7.4200682640075684"><ele></ele><time>2014-10-10T15:37:40Z</time></trkpt>
<trkpt lat="46.2601432800292969" lon="7.4202065467834473"><ele></ele><time>2014-10-10T15:37:43Z</time></trkpt>
<trkpt lat="46.2601966857910156" lon="7.4201822280883789"><ele></ele><time>2014-10-10T15:37:46Z</time></trkpt>
<trkpt lat="46.2602081298828125" lon="7.4200525283813477"><ele></ele><time>2014-10-10T15:37:49Z</time></trkpt>
<trkpt lat="46.2600288391113281" lon="7.4194164276123047"><ele></ele><time>2014-10-10T15:37:52Z</time></trkpt>
<trkpt lat="46.2600784301757812" lon="7.4190216064453125"><ele></ele><time>2014-10-10T15:37:55Z</time></trkpt>
<trkpt lat="46.2604866027832031" lon="7.4186630249023438"><ele></ele><time>2014-10-10T15:37:58Z</time></trkpt>
<trkpt lat="46.2605934143066406" lon="7.4184031486511230"><ele></ele><time>2014-10-10T15:38:1Z</time></trkpt>
<trkpt lat="46.2605857849121094" lon="7.4183483123779297"><ele></ele><time>2014-10-10T15:38:4Z</time></trkpt>
<trkpt lat="46.2606239318847656" lon="7.4182138442993164"><ele></ele><time>2014-10-10T15:38:7Z</time></trkpt>
<trkpt lat="46.2605667114257812" lon="7.4178009033203125"><ele></ele><time>2014-10-10T15:38:10Z</time></trkpt>
<trkpt lat="46.2605361938476562" lon="7.4175658226013184"><ele></ele><time>2014-10-10T15:38:13Z</time></trkpt>
<trkpt lat="46.2606163024902344" lon="7.4175138473510742"><ele></ele><time>2014-10-10T15:38:16Z</time></trkpt>
<trkpt lat="46.2606925964355469" lon="7.4176158905029297"><ele></ele><time>2014-10-10T15:38:19Z</time></trkpt>
<trkpt lat="46.2608413696289062" lon="7.4180135726928711"><ele></ele><time>2014-10-10T15:38:22Z</time></trkpt>
<trkpt lat="46.2612037658691406" lon="7.4184355735778809"><ele></ele><time>2014-10-10T15:38:25Z</time></trkpt>
<trkpt lat="46.2615776062011719" lon="7.4189195632934570"><ele></ele><time>2014-10-10T15:38:28Z</time></trkpt>
<trkpt lat="46.2618637084960938" lon="7.4191818237304688"><ele></ele><time>2014-10-10T15:38:31Z</time></trkpt>
<trkpt lat="46.2621955871582031" lon="7.4195613861083984"><ele></ele><time>2014-10-10T15:38:34Z</time></trkpt>
<trkpt lat="46.2622337341308594" lon="7.4197697639465332"><ele></ele><time>2014-10-10T15:38:37Z</time></trkpt>
<trkpt lat="46.2626724243164062" lon="7.4200143814086914"><ele></ele><time>2014-10-10T15:38:40Z</time></trkpt>
<trkpt lat="46.2631187438964844" lon="7.4201850891113281"><ele></ele><time>2014-10-10T15:38:43Z</time></trkpt>
<trkpt lat="46.2635841369628906" lon="7.4202098846435547"><ele></ele><time>2014-10-10T15:38:46Z</time></trkpt>
<trkpt lat="46.2637252807617188" lon="7.4204645156860352"><ele></ele><time>2014-10-10T15:38:49Z</time></trkpt>
<trkpt lat="46.2635307312011719" lon="7.4210543632507324"><ele></ele><time>2014-10-10T15:38:52Z</time></trkpt>
<trkpt lat="46.2631607055664062" lon="7.4214653968811035"><ele></ele><time>2014-10-10T15:38:55Z</time></trkpt>
<trkpt lat="46.2630767822265625" lon="7.4215645790100098"><ele></ele><time>2014-10-10T15:38:58Z</time></trkpt>
<trkpt lat="46.2630348205566406" lon="7.4215493202209473"><ele></ele><time>2014-10-10T15:39:1Z</time></trkpt>
<trkpt lat="46.2629623413085938" lon="7.4217247962951660"><ele></ele><time>2014-10-10T15:39:4Z</time></trkpt>
<trkpt lat="46.2629776000976562" lon="7.4217910766601562"><ele></ele><time>2014-10-10T15:39:7Z</time></trkpt>
<trkpt lat="46.2633705139160156" lon="7.4221148490905762"><ele></ele><time>2014-10-10T15:39:10Z</time></trkpt>
<trkpt lat="46.2638282775878906" lon="7.4222388267517090"><ele></ele><time>2014-10-10T15:39:13Z</time></trkpt>
<trkpt lat="46.2642059326171875" lon="7.4226083755493164"><ele></ele><time>2014-10-10T15:39:16Z</time></trkpt>
<trkpt lat="46.2645225524902344" lon="7.4230966567993164"><ele></ele><time>2014-10-10T15:39:19Z</time></trkpt>
<trkpt lat="46.2643699645996094" lon="7.4237074851989746"><ele></ele><time>2014-10-10T15:39:22Z</time></trkpt>
<trkpt lat="46.2638931274414062" lon="7.4237999916076660"><ele></ele><time>2014-10-10T15:39:25Z</time></trkpt>
<trkpt lat="46.2634201049804688" lon="7.4240083694458008"><ele></ele><time>2014-10-10T15:39:28Z</time></trkpt>
<trkpt lat="46.2629623413085938" lon="7.4240431785583496"><ele></ele><time>2014-10-10T15:39:31Z</time></trkpt>
<trkpt lat="46.2628211975097656" lon="7.4240994453430176"><ele></ele><time>2014-10-10T15:39:34Z</time></trkpt>
<trkpt lat="46.2627563476562500" lon="7.4248361587524414"><ele></ele><time>2014-10-10T15:39:37Z</time></trkpt>
<trkpt lat="46.2626991271972656" lon="7.4250707626342773"><ele></ele><time>2014-10-10T15:39:40Z</time></trkpt>
<trkpt lat="46.2625350952148438" lon="7.4253287315368652"><ele></ele><time>2014-10-10T15:39:43Z</time></trkpt>
<trkpt lat="46.2621688842773438" lon="7.4257130622863770"><ele></ele><time>2014-10-10T15:39:46Z</time></trkpt>
<trkpt lat="46.2617721557617188" lon="7.4260439872741699"><ele></ele><time>2014-10-10T15:39:49Z</time></trkpt>
<trkpt lat="46.2613258361816406" lon="7.4263586997985840"><ele></ele><time>2014-10-10T15:39:52Z</time></trkpt>
<trkpt lat="46.2608985900878906" lon="7.4265804290771484"><ele></ele><time>2014-10-10T15:39:55Z</time></trkpt>
<trkpt lat="46.2607879638671875" lon="7.4266500473022461"><ele></ele><time>2014-10-10T15:39:58Z</time></trkpt>
<trkpt lat="46.2606010437011719" lon="7.4271721839904785"><ele></ele><time>2014-10-10T15:40:1Z</time></trkpt>
<trkpt lat="46.2604942321777344" lon="7.4278993606567383"><ele></ele><time>2014-10-10T15:40:4Z</time></trkpt>
<trkpt lat="46.2605018615722656" lon="7.4285416603088379"><ele></ele><time>2014-10-10T15:40:7Z</time></trkpt>
<trkpt lat="46.2607879638671875" lon="7.4291086196899414"><ele></ele><time>2014-10-10T15:40:10Z</time></trkpt>
<trkpt lat="46.2609062194824219" lon="7.4295945167541504"><ele></ele><time>2014-10-10T15:40:13Z</time></trkpt>
<trkpt lat="46.2610168457031250" lon="7.4302248954772949"><ele></ele><time>2014-10-10T15:40:16Z</time></trkpt>
<trkpt lat="46.2612457275390625" lon="7.4308590888977051"><ele></ele><time>2014-10-10T15:40:19Z</time></trkpt>
<trkpt lat="46.2614440917968750" lon="7.4314975738525391"><ele></ele><time>2014-10-10T15:40:22Z</time></trkpt>
<trkpt lat="46.2615089416503906" lon="7.4316577911376953"><ele></ele><time>2014-10-10T15:40:25Z</time></trkpt>
<trkpt lat="46.2617988586425781" lon="7.4320468902587891"><ele></ele><time>2014-10-10T15:40:28Z</time></trkpt>
<trkpt lat="46.2619667053222656" lon="7.4327077865600586"><ele></ele><time>2014-10-10T15:40:31Z</time></trkpt>
<trkpt lat="46.2621803283691406" lon="7.4332876205444336"><ele></ele><time>2014-10-10T15:40:34Z</time></trkpt>
<trkpt lat="46.2623519897460938" lon="7.4339728355407715"><ele></ele><time>2014-10-10T15:40:37Z</time></trkpt>
<trkpt lat="46.2624664306640625" lon="7.4346237182617188"><ele></ele><time>2014-10-10T15:40:40Z</time></trkpt>
<trkpt lat="46.2626190185546875" lon="7.4352407455444336"><ele></ele><time>2014-10-10T15:40:43Z</time></trkpt>
<trkpt lat="46.2628517150878906" lon="7.4358305931091309"><ele></ele><time>2014-10-10T15:40:46Z</time></trkpt>
<trkpt lat="46.2631034851074219" lon="7.4364423751831055"><ele></ele><time>2014-10-10T15:40:49Z</time></trkpt>
<trkpt lat="46.2632293701171875" lon="7.4371256828308105"><ele></ele><time>2014-10-10T15:40:52Z</time></trkpt>
<trkpt lat="46.2632942199707031" lon="7.4376907348632812"><ele></ele><time>2014-10-10T15:40:55Z</time></trkpt>
<trkpt lat="46.2635421752929688" lon="7.4382996559143066"><ele></ele><time>2014-10-10T15:40:58Z</time></trkpt>
<trkpt lat="46.2638282775878906" lon="7.4388828277587891"><ele></ele><time>2014-10-10T15:41:1Z</time></trkpt>
<trkpt lat="46.2641105651855469" lon="7.4394645690917969"><ele></ele><time>2014-10-10T15:41:4Z</time></trkpt>
<trkpt lat="46.2644538879394531" lon="7.4399557113647461"><ele></ele><time>2014-10-10T15:41:7Z</time></trkpt>
<trkpt lat="46.2648048400878906" lon="7.4403991699218750"><ele></ele><time>2014-10-10T15:41:10Z</time></trkpt>
<trkpt lat="46.2651252746582031" lon="7.4409112930297852"><ele></ele><time>2014-10-10T15:41:13Z</time></trkpt>
<trkpt lat="46.2651596069335938" lon="7.4409766197204590"><ele></ele><time>2014-10-10T15:41:16Z</time></trkpt>
<trkpt lat="46.2652053833007812" lon="7.4416456222534180"><ele></ele><time>2014-10-10T15:41:19Z</time></trkpt>
<trkpt lat="46.2653770446777344" lon="7.4422721862792969"><ele></ele><time>2014-10-10T15:41:22Z</time></trkpt>
<trkpt lat="46.2656173706054688" lon="7.4428448677062988"><ele></ele><time>2014-10-10T15:41:25Z</time></trkpt>
<trkpt lat="46.2659263610839844" lon="7.4433932304382324"><ele></ele><time>2014-10-10T15:41:28Z</time></trkpt>
<trkpt lat="46.2659645080566406" lon="7.4436106681823730"><ele></ele><time>2014-10-10T15:41:31Z</time></trkpt>
<trkpt lat="46.2664260864257812" lon="7.4438142776489258"><ele></ele><time>2014-10-10T15:41:34Z</time></trkpt>
<trkpt lat="46.2668800354003906" lon="7.4437041282653809"><ele></ele><time>2014-10-10T15:41:37Z</time></trkpt>
<trkpt lat="46.2670974731445312" lon="7.4436264038085938"><ele></ele><time>2014-10-10T15:41:40Z</time></trkpt>
<trkpt lat="46.2673149108886719" lon="7.4437012672424316"><ele></ele><time>2014-10-10T15:41:43Z</time></trkpt>
<trkpt lat="46.2670898437500000" lon="7.4431252479553223"><ele></ele><time>2014-10-10T15:41:46Z</time></trkpt>
<trkpt lat="46.2670936584472656" lon="7.4430384635925293"><ele></ele><time>2014-10-10T15:41:49Z</time></trkpt>
<trkpt lat="46.2675361633300781" lon="7.4432101249694824"><ele></ele><time>2014-10-10T15:41:52Z</time></trkpt>
<trkpt lat="46.2675247192382812" lon="7.4432339668273926"><ele></ele><time>2014-10-10T15:41:55Z</time></trkpt>
<trkpt lat="46.2679138183593750" lon="7.4435749053955078"><ele></ele><time>2014-10-10T15:41:58Z</time></trkpt>
<trkpt lat="46.2682266235351562" lon="7.4440426826477051"><ele></ele><time>2014-10-10T15:42:1Z</time></trkpt>
<trkpt lat="46.2685546875000000" lon="7.4445257186889648"><ele></ele><time>2014-10-10T15:42:4Z</time></trkpt>
<trkpt lat="46.2689476013183594" lon="7.4448757171630859"><ele></ele><time>2014-10-10T15:42:7Z</time></trkpt>
<trkpt lat="46.2693290710449219" lon="7.4451360702514648"><ele></ele><time>2014-10-10T15:42:10Z</time></trkpt>
<trkpt lat="46.2692947387695312" lon="7.4449052810668945"><ele></ele><time>2014-10-10T15:42:13Z</time></trkpt>
<trkpt lat="46.2696456909179688" lon="7.4453415870666504"><ele></ele><time>2014-10-10T15:42:16Z</time></trkpt>
<trkpt lat="46.2700386047363281" lon="7.4457144737243652"><ele></ele><time>2014-10-10T15:42:19Z</time></trkpt>
<trkpt lat="46.2704544067382812" lon="7.4456253051757812"><ele></ele><time>2014-10-10T15:42:22Z</time></trkpt>
<trkpt lat="46.2705230712890625" lon="7.4456267356872559"><ele></ele><time>2014-10-10T15:42:25Z</time></trkpt>
<trkpt lat="46.2709121704101562" lon="7.4459905624389648"><ele></ele><time>2014-10-10T15:42:28Z</time></trkpt>
<trkpt lat="46.2712707519531250" lon="7.4463973045349121"><ele></ele><time>2014-10-10T15:42:31Z</time></trkpt>
<trkpt lat="46.2716369628906250" lon="7.4467921257019043"><ele></ele><time>2014-10-10T15:42:34Z</time></trkpt>
<trkpt lat="46.2720413208007812" lon="7.4469261169433594"><ele></ele><time>2014-10-10T15:42:37Z</time></trkpt>
<trkpt lat="46.2719573974609375" lon="7.4462833404541016"><ele></ele><time>2014-10-10T15:42:40Z</time></trkpt>
<trkpt lat="46.2720146179199219" lon="7.4461588859558105"><ele></ele><time>2014-10-10T15:42:43Z</time></trkpt>
<trkpt lat="46.2719383239746094" lon="7.4460592269897461"><ele></ele><time>2014-10-10T15:42:46Z</time></trkpt>
<trkpt lat="46.2719535827636719" lon="7.4459300041198730"><ele></ele><time>2014-10-10T15:42:49Z</time></trkpt>
<trkpt lat="46.2718658447265625" lon="7.4458527565002441"><ele></ele><time>2014-10-10T15:42:52Z</time></trkpt>
<trkpt lat="46.2718658447265625" lon="7.4456219673156738"><ele></ele><time>2014-10-10T15:42:55Z</time></trkpt>
<trkpt lat="46.2718811035156250" lon="7.4455170631408691"><ele></ele><time>2014-10-10T15:42:58Z</time></trkpt>
<trkpt lat="46.2721595764160156" lon="7.4460315704345703"><ele></ele><time>2014-10-10T15:43:1Z</time></trkpt>
<trkpt lat="46.2724990844726562" lon="7.4464802742004395"><ele></ele><time>2014-10-10T15:43:4Z</time></trkpt>
<trkpt lat="46.2728805541992188" lon="7.4468269348144531"><ele></ele><time>2014-10-10T15:43:7Z</time></trkpt>
<trkpt lat="46.2732696533203125" lon="7.4471549987792969"><ele></ele><time>2014-10-10T15:43:10Z</time></trkpt>
<trkpt lat="46.2736930847167969" lon="7.4474053382873535"><ele></ele><time>2014-10-10T15:43:13Z</time></trkpt>
<trkpt lat="46.2739219665527344" lon="7.4479694366455078"><ele></ele><time>2014-10-10T15:43:16Z</time></trkpt>
<trkpt lat="46.2742385864257812" lon="7.4484353065490723"><ele></ele><time>2014-10-10T15:43:19Z</time></trkpt>
<trkpt lat="46.2745056152343750" lon="7.4490404129028320"><ele></ele><time>2014-10-10T15:43:22Z</time></trkpt>
<trkpt lat="46.2745971679687500" lon="7.4490761756896973"><ele></ele><time>2014-10-10T15:43:25Z</time></trkpt>
<trkpt lat="46.2746315002441406" lon="7.4492249488830566"><ele></ele><time>2014-10-10T15:43:28Z</time></trkpt>
<trkpt lat="46.2748527526855469" lon="7.4495563507080078"><ele></ele><time>2014-10-10T15:43:31Z</time></trkpt>
<trkpt lat="46.2749824523925781" lon="7.4499564170837402"><ele></ele><time>2014-10-10T15:43:34Z</time></trkpt>
<trkpt lat="46.2753906250000000" lon="7.4502239227294922"><ele></ele><time>2014-10-10T15:43:37Z</time></trkpt>
<trkpt lat="46.2758140563964844" lon="7.4504928588867188"><ele></ele><time>2014-10-10T15:43:40Z</time></trkpt>
<trkpt lat="46.2762260437011719" lon="7.4508728981018066"><ele></ele><time>2014-10-10T15:43:43Z</time></trkpt>
<trkpt lat="46.2764663696289062" lon="7.4511766433715820"><ele></ele><time>2014-10-10T15:43:46Z</time></trkpt>
<trkpt lat="46.2767105102539062" lon="7.4517865180969238"><ele></ele><time>2014-10-10T15:43:49Z</time></trkpt>
<trkpt lat="46.2769546508789062" lon="7.4523711204528809"><ele></ele><time>2014-10-10T15:43:52Z</time></trkpt>
<trkpt lat="46.2772140502929688" lon="7.4529199600219727"><ele></ele><time>2014-10-10T15:43:55Z</time></trkpt>
<trkpt lat="46.2775039672851562" lon="7.4534597396850586"><ele></ele><time>2014-10-10T15:43:58Z</time></trkpt>
<trkpt lat="46.2777099609375000" lon="7.4540529251098633"><ele></ele><time>2014-10-10T15:44:1Z</time></trkpt>
<trkpt lat="46.2779083251953125" lon="7.4546008110046387"><ele></ele><time>2014-10-10T15:44:4Z</time></trkpt>
<trkpt lat="46.2781448364257812" lon="7.4549984931945801"><ele></ele><time>2014-10-10T15:44:7Z</time></trkpt>
<trkpt lat="46.2781639099121094" lon="7.4557337760925293"><ele></ele><time>2014-10-10T15:44:10Z</time></trkpt>
<trkpt lat="46.2781028747558594" lon="7.4559550285339355"><ele></ele><time>2014-10-10T15:44:13Z</time></trkpt>
<trkpt lat="46.2782058715820312" lon="7.4566144943237305"><ele></ele><time>2014-10-10T15:44:16Z</time></trkpt>
<trkpt lat="46.2783164978027344" lon="7.4569230079650879"><ele></ele><time>2014-10-10T15:44:19Z</time></trkpt>
<trkpt lat="46.2785148620605469" lon="7.4571642875671387"><ele></ele><time>2014-10-10T15:44:22Z</time></trkpt>
<trkpt lat="46.2786865234375000" lon="7.4572839736938477"><ele></ele><time>2014-10-10T15:44:25Z</time></trkpt>
<trkpt lat="46.2787666320800781" lon="7.4579443931579590"><ele></ele><time>2014-10-10T15:44:28Z</time></trkpt>
<trkpt lat="46.2788887023925781" lon="7.4585890769958496"><ele></ele><time>2014-10-10T15:44:31Z</time></trkpt>
<trkpt lat="46.2789382934570312" lon="7.4590024948120117"><ele></ele><time>2014-10-10T15:44:34Z</time></trkpt>
<trkpt lat="46.2791213989257812" lon="7.4595704078674316"><ele></ele><time>2014-10-10T15:44:37Z</time></trkpt>
<trkpt lat="46.2792091369628906" lon="7.4596943855285645"><ele></ele><time>2014-10-10T15:44:40Z</time></trkpt>
<trkpt lat="46.2791748046875000" lon="7.4599270820617676"><ele></ele><time>2014-10-10T15:44:43Z</time></trkpt>
<trkpt lat="46.2792854309082031" lon="7.4606208801269531"><ele></ele><time>2014-10-10T15:44:46Z</time></trkpt>
<trkpt lat="46.2794036865234375" lon="7.4612569808959961"><ele></ele><time>2014-10-10T15:44:49Z</time></trkpt>
<trkpt lat="46.2794761657714844" lon="7.4618067741394043"><ele></ele><time>2014-10-10T15:44:52Z</time></trkpt>
<trkpt lat="46.2795791625976562" lon="7.4619660377502441"><ele></ele><time>2014-10-10T15:44:55Z</time></trkpt>
<trkpt lat="46.2800025939941406" lon="7.4623389244079590"><ele></ele><time>2014-10-10T15:44:58Z</time></trkpt>
<trkpt lat="46.2801437377929688" lon="7.4624438285827637"><ele></ele><time>2014-10-10T15:45:1Z</time></trkpt>
<trkpt lat="46.2802886962890625" lon="7.4625067710876465"><ele></ele><time>2014-10-10T15:45:4Z</time></trkpt>
<trkpt lat="46.2805595397949219" lon="7.4629354476928711"><ele></ele><time>2014-10-10T15:45:7Z</time></trkpt>
<trkpt lat="46.2806358337402344" lon="7.4635758399963379"><ele></ele><time>2014-10-10T15:45:10Z</time></trkpt>
<trkpt lat="46.2806358337402344" lon="7.4639229774475098"><ele></ele><time>2014-10-10T15:45:13Z</time></trkpt>
<trkpt lat="46.2808189392089844" lon="7.4641623497009277"><ele></ele><time>2014-10-10T15:45:16Z</time></trkpt>
<trkpt lat="46.2808380126953125" lon="7.4648380279541016"><ele></ele><time>2014-10-10T15:45:19Z</time></trkpt>
<trkpt lat="46.2808151245117188" lon="7.4652028083801270"><ele></ele><time>2014-10-10T15:45:22Z</time></trkpt>
<trkpt lat="46.2810058593750000" lon="7.4658136367797852"><ele></ele><time>2014-10-10T15:45:25Z</time></trkpt>
<trkpt lat="46.2811698913574219" lon="7.4664807319641113"><ele></ele><time>2014-10-10T15:45:28Z</time></trkpt>
<trkpt lat="46.2813339233398438" lon="7.4671034812927246"><ele></ele><time>2014-10-10T15:45:31Z</time></trkpt>
<trkpt lat="46.2815170288085938" lon="7.4677042961120605"><ele></ele><time>2014-10-10T15:45:34Z</time></trkpt>
<trkpt lat="46.2816886901855469" lon="7.4683136940002441"><ele></ele><time>2014-10-10T15:45:37Z</time></trkpt>
<trkpt lat="46.2818450927734375" lon="7.4689512252807617"><ele></ele><time>2014-10-10T15:45:40Z</time></trkpt>
<trkpt lat="46.2817535400390625" lon="7.4691400527954102"><ele></ele><time>2014-10-10T15:45:43Z</time></trkpt>
<trkpt lat="46.2818946838378906" lon="7.4697909355163574"><ele></ele><time>2014-10-10T15:45:46Z</time></trkpt>
<trkpt lat="46.2821426391601562" lon="7.4703741073608398"><ele></ele><time>2014-10-10T15:45:49Z</time></trkpt>
<trkpt lat="46.2824325561523438" lon="7.4709100723266602"><ele></ele><time>2014-10-10T15:45:52Z</time></trkpt>
<trkpt lat="46.2826385498046875" lon="7.4715337753295898"><ele></ele><time>2014-10-10T15:45:55Z</time></trkpt>
<trkpt lat="46.2826805114746094" lon="7.4721956253051758"><ele></ele><time>2014-10-10T15:45:58Z</time></trkpt>
<trkpt lat="46.2827453613281250" lon="7.4728841781616211"><ele></ele><time>2014-10-10T15:46:1Z</time></trkpt>
<trkpt lat="46.2829017639160156" lon="7.4733848571777344"><ele></ele><time>2014-10-10T15:46:4Z</time></trkpt>
<trkpt lat="46.2831802368164062" lon="7.4739136695861816"><ele></ele><time>2014-10-10T15:46:7Z</time></trkpt>
<trkpt lat="46.2835693359375000" lon="7.4743037223815918"><ele></ele><time>2014-10-10T15:46:10Z</time></trkpt>
<trkpt lat="46.2837486267089844" lon="7.4745216369628906"><ele></ele><time>2014-10-10T15:46:13Z</time></trkpt>
<trkpt lat="46.2834968566894531" lon="7.4748959541320801"><ele></ele><time>2014-10-10T15:46:16Z</time></trkpt>
<trkpt lat="46.2833061218261719" lon="7.4750661849975586"><ele></ele><time>2014-10-10T15:46:19Z</time></trkpt>
<trkpt lat="46.2832565307617188" lon="7.4753623008728027"><ele></ele><time>2014-10-10T15:46:22Z</time></trkpt>
<trkpt lat="46.2834167480468750" lon="7.4759812355041504"><ele></ele><time>2014-10-10T15:46:25Z</time></trkpt>
<trkpt lat="46.2836494445800781" lon="7.4766016006469727"><ele></ele><time>2014-10-10T15:46:28Z</time></trkpt>
<trkpt lat="46.2839012145996094" lon="7.4772095680236816"><ele></ele><time>2014-10-10T15:46:31Z</time></trkpt>
<trkpt lat="46.2840614318847656" lon="7.4778733253479004"><ele></ele><time>2014-10-10T15:46:34Z</time></trkpt>
<trkpt lat="46.2841796875000000" lon="7.4785561561584473"><ele></ele><time>2014-10-10T15:46:37Z</time></trkpt>
<trkpt lat="46.2842102050781250" lon="7.4786281585693359"><ele></ele><time>2014-10-10T15:46:40Z</time></trkpt>
<trkpt lat="46.2841453552246094" lon="7.4788608551025391"><ele></ele><time>2014-10-10T15:46:43Z</time></trkpt>
<trkpt lat="46.2842826843261719" lon="7.4790172576904297"><ele></ele><time>2014-10-10T15:46:46Z</time></trkpt>
<trkpt lat="46.2843780517578125" lon="7.4789505004882812"><ele></ele><time>2014-10-10T15:46:49Z</time></trkpt>
<trkpt lat="46.2844734191894531" lon="7.4791226387023926"><ele></ele><time>2014-10-10T15:46:52Z</time></trkpt>
<trkpt lat="46.2846298217773438" lon="7.4797563552856445"><ele></ele><time>2014-10-10T15:46:55Z</time></trkpt>
<trkpt lat="46.2847480773925781" lon="7.4802441596984863"><ele></ele><time>2014-10-10T15:46:58Z</time></trkpt>
<trkpt lat="46.2849998474121094" lon="7.4808511734008789"><ele></ele><time>2014-10-10T15:47:1Z</time></trkpt>
<trkpt lat="46.2851486206054688" lon="7.4810490608215332"><ele></ele><time>2014-10-10T15:47:4Z</time></trkpt>
<trkpt lat="46.2850494384765625" lon="7.4812040328979492"><ele></ele><time>2014-10-10T15:47:7Z</time></trkpt>
<trkpt lat="46.2850112915039062" lon="7.4814605712890625"><ele></ele><time>2014-10-10T15:47:10Z</time></trkpt>
<trkpt lat="46.2851066589355469" lon="7.4818091392517090"><ele></ele><time>2014-10-10T15:47:13Z</time></trkpt>
<trkpt lat="46.2853736877441406" lon="7.4823918342590332"><ele></ele><time>2014-10-10T15:47:16Z</time></trkpt>
<trkpt lat="46.2855606079101562" lon="7.4830060005187988"><ele></ele><time>2014-10-10T15:47:19Z</time></trkpt>
<trkpt lat="46.2857780456542969" lon="7.4835910797119141"><ele></ele><time>2014-10-10T15:47:22Z</time></trkpt>
<trkpt lat="46.2860412597656250" lon="7.4840512275695801"><ele></ele><time>2014-10-10T15:47:25Z</time></trkpt>
<trkpt lat="46.2861595153808594" lon="7.4839410781860352"><ele></ele><time>2014-10-10T15:47:28Z</time></trkpt>
<trkpt lat="46.2862434387207031" lon="7.4832963943481445"><ele></ele><time>2014-10-10T15:47:31Z</time></trkpt>
<trkpt lat="46.2862548828125000" lon="7.4831013679504395"><ele></ele><time>2014-10-10T15:47:34Z</time></trkpt>
<trkpt lat="46.2863311767578125" lon="7.4831666946411133"><ele></ele><time>2014-10-10T15:47:37Z</time></trkpt>
<trkpt lat="46.2864189147949219" lon="7.4838275909423828"><ele></ele><time>2014-10-10T15:47:40Z</time></trkpt>
<trkpt lat="46.2866134643554688" lon="7.4844532012939453"><ele></ele><time>2014-10-10T15:47:43Z</time></trkpt>
<trkpt lat="46.2868461608886719" lon="7.4850521087646484"><ele></ele><time>2014-10-10T15:47:46Z</time></trkpt>
<trkpt lat="46.2870559692382812" lon="7.4856843948364258"><ele></ele><time>2014-10-10T15:47:49Z</time></trkpt>
<trkpt lat="46.2872505187988281" lon="7.4863233566284180"><ele></ele><time>2014-10-10T15:47:52Z</time></trkpt>
<trkpt lat="46.2874717712402344" lon="7.4869160652160645"><ele></ele><time>2014-10-10T15:47:55Z</time></trkpt>
<trkpt lat="46.2878074645996094" lon="7.4876117706298828"><ele></ele><time>2014-10-10T15:47:58Z</time></trkpt>
<trkpt lat="46.2880859375000000" lon="7.4881434440612793"><ele></ele><time>2014-10-10T15:48:1Z</time></trkpt>
<trkpt lat="46.2883415222167969" lon="7.4886913299560547"><ele></ele><time>2014-10-10T15:48:4Z</time></trkpt>
<trkpt lat="46.2882919311523438" lon="7.4893727302551270"><ele></ele><time>2014-10-10T15:48:7Z</time></trkpt>
<trkpt lat="46.2883529663085938" lon="7.4896392822265625"><ele></ele><time>2014-10-10T15:48:10Z</time></trkpt>
<trkpt lat="46.2886352539062500" lon="7.4901781082153320"><ele></ele><time>2014-10-10T15:48:13Z</time></trkpt>
<trkpt lat="46.2886581420898438" lon="7.4902114868164062"><ele></ele><time>2014-10-10T15:48:16Z</time></trkpt>
<trkpt lat="46.2885398864746094" lon="7.4904427528381348"><ele></ele><time>2014-10-10T15:48:19Z</time></trkpt>
<trkpt lat="46.2884025573730469" lon="7.4909682273864746"><ele></ele><time>2014-10-10T15:48:22Z</time></trkpt>
<trkpt lat="46.2882919311523438" lon="7.4915986061096191"><ele></ele><time>2014-10-10T15:48:25Z</time></trkpt>
<trkpt lat="46.2881774902343750" lon="7.4922895431518555"><ele></ele><time>2014-10-10T15:48:28Z</time></trkpt>
<trkpt lat="46.2882766723632812" lon="7.4929308891296387"><ele></ele><time>2014-10-10T15:48:31Z</time></trkpt>
<trkpt lat="46.2883682250976562" lon="7.4934363365173340"><ele></ele><time>2014-10-10T15:48:34Z</time></trkpt>
<trkpt lat="46.2884025573730469" lon="7.4939813613891602"><ele></ele><time>2014-10-10T15:48:37Z</time></trkpt>
<trkpt lat="46.2884483337402344" lon="7.4940996170043945"><ele></ele><time>2014-10-10T15:48:40Z</time></trkpt>
<trkpt lat="46.2885475158691406" lon="7.4942116737365723"><ele></ele><time>2014-10-10T15:48:43Z</time></trkpt>
<trkpt lat="46.2886428833007812" lon="7.4943737983703613"><ele></ele><time>2014-10-10T15:48:46Z</time></trkpt>
<trkpt lat="46.2886924743652344" lon="7.4944992065429688"><ele></ele><time>2014-10-10T15:48:49Z</time></trkpt>
<trkpt lat="46.2888374328613281" lon="7.4945678710937500"><ele></ele><time>2014-10-10T15:48:52Z</time></trkpt>
<trkpt lat="46.2891387939453125" lon="7.4950633049011230"><ele></ele><time>2014-10-10T15:48:55Z</time></trkpt>
<trkpt lat="46.2894706726074219" lon="7.4955210685729980"><ele></ele><time>2014-10-10T15:48:58Z</time></trkpt>
<trkpt lat="46.2895393371582031" lon="7.4962201118469238"><ele></ele><time>2014-10-10T15:49:1Z</time></trkpt>
<trkpt lat="46.2896385192871094" lon="7.4966044425964355"><ele></ele><time>2014-10-10T15:49:4Z</time></trkpt>
<trkpt lat="46.2896499633789062" lon="7.4970397949218750"><ele></ele><time>2014-10-10T15:49:7Z</time></trkpt>
<trkpt lat="46.2898597717285156" lon="7.4975323677062988"><ele></ele><time>2014-10-10T15:49:10Z</time></trkpt>
<trkpt lat="46.2898521423339844" lon="7.4977850914001465"><ele></ele><time>2014-10-10T15:49:13Z</time></trkpt>
<trkpt lat="46.2897644042968750" lon="7.4979257583618164"><ele></ele><time>2014-10-10T15:49:16Z</time></trkpt>
<trkpt lat="46.2897224426269531" lon="7.4983062744140625"><ele></ele><time>2014-10-10T15:49:19Z</time></trkpt>
<trkpt lat="46.2898559570312500" lon="7.4989328384399414"><ele></ele><time>2014-10-10T15:49:22Z</time></trkpt>
<trkpt lat="46.2899513244628906" lon="7.4992761611938477"><ele></ele><time>2014-10-10T15:49:25Z</time></trkpt>
<trkpt lat="46.2897109985351562" lon="7.4992175102233887"><ele></ele><time>2014-10-10T15:49:28Z</time></trkpt>
<trkpt lat="46.2893218994140625" lon="7.4988775253295898"><ele></ele><time>2014-10-10T15:49:31Z</time></trkpt>
<trkpt lat="46.2892417907714844" lon="7.4987916946411133"><ele></ele><time>2014-10-10T15:49:34Z</time></trkpt>
<trkpt lat="46.2892189025878906" lon="7.4988126754760742"><ele></ele><time>2014-10-10T15:49:37Z</time></trkpt>
<trkpt lat="46.2892532348632812" lon="7.4992899894714355"><ele></ele><time>2014-10-10T15:49:40Z</time></trkpt>
<trkpt lat="46.2894439697265625" lon="7.4999537467956543"><ele></ele><time>2014-10-10T15:49:43Z</time></trkpt>
<trkpt lat="46.2894706726074219" lon="7.5001754760742188"><ele></ele><time>2014-10-10T15:49:46Z</time></trkpt>
<trkpt lat="46.2894515991210938" lon="7.5004053115844727"><ele></ele><time>2014-10-10T15:49:49Z</time></trkpt>
<trkpt lat="46.2895584106445312" lon="7.5010895729064941"><ele></ele><time>2014-10-10T15:49:52Z</time></trkpt>
<trkpt lat="46.2895698547363281" lon="7.5015773773193359"><ele></ele><time>2014-10-10T15:49:55Z</time></trkpt>
<trkpt lat="46.2896881103515625" lon="7.5017337799072266"><ele></ele><time>2014-10-10T15:49:58Z</time></trkpt>
<trkpt lat="46.2898826599121094" lon="7.5018606185913086"><ele></ele><time>2014-10-10T15:50:1Z</time></trkpt>
<trkpt lat="46.2902069091796875" lon="7.5017051696777344"><ele></ele><time>2014-10-10T15:50:4Z</time></trkpt>
<trkpt lat="46.2905158996582031" lon="7.5017485618591309"><ele></ele><time>2014-10-10T15:50:7Z</time></trkpt>
<trkpt lat="46.2909278869628906" lon="7.5014362335205078"><ele></ele><time>2014-10-10T15:50:10Z</time></trkpt>
<trkpt lat="46.2911109924316406" lon="7.5011634826660156"><ele></ele><time>2014-10-10T15:50:13Z</time></trkpt>
<trkpt lat="46.2913093566894531" lon="7.5010924339294434"><ele></ele><time>2014-10-10T15:50:16Z</time></trkpt>
<trkpt lat="46.2913360595703125" lon="7.5011086463928223"><ele></ele><time>2014-10-10T15:50:19Z</time></trkpt>
<trkpt lat="46.2912597656250000" lon="7.5012087821960449"><ele></ele><time>2014-10-10T15:50:22Z</time></trkpt>
<trkpt lat="46.2913322448730469" lon="7.5012788772583008"><ele></ele><time>2014-10-10T15:50:25Z</time></trkpt>
<trkpt lat="46.2913055419921875" lon="7.5017013549804688"><ele></ele><time>2014-10-10T15:50:28Z</time></trkpt>
<trkpt lat="46.2912254333496094" lon="7.5019216537475586"><ele></ele><time>2014-10-10T15:50:31Z</time></trkpt>
<trkpt lat="46.2912330627441406" lon="7.5020570755004883"><ele></ele><time>2014-10-10T15:50:34Z</time></trkpt>
<trkpt lat="46.2914657592773438" lon="7.5026211738586426"><ele></ele><time>2014-10-10T15:50:37Z</time></trkpt>
<trkpt lat="46.2917137145996094" lon="7.5029921531677246"><ele></ele><time>2014-10-10T15:50:40Z</time></trkpt>
<trkpt lat="46.2918853759765625" lon="7.5034422874450684"><ele></ele><time>2014-10-10T15:50:43Z</time></trkpt>
<trkpt lat="46.2919960021972656" lon="7.5035939216613770"><ele></ele><time>2014-10-10T15:50:46Z</time></trkpt>
<trkpt lat="46.2921257019042969" lon="7.5036292076110840"><ele></ele><time>2014-10-10T15:50:49Z</time></trkpt>
<trkpt lat="46.2924690246582031" lon="7.5040564537048340"><ele></ele><time>2014-10-10T15:50:52Z</time></trkpt>
<trkpt lat="46.2928428649902344" lon="7.5044569969177246"><ele></ele><time>2014-10-10T15:50:55Z</time></trkpt>
<trkpt lat="46.2929229736328125" lon="7.5046029090881348"><ele></ele><time>2014-10-10T15:50:58Z</time></trkpt>
<trkpt lat="46.2931594848632812" lon="7.5046944618225098"><ele></ele><time>2014-10-10T15:51:1Z</time></trkpt>
<trkpt lat="46.2933692932128906" lon="7.5049328804016113"><ele></ele><time>2014-10-10T15:51:4Z</time></trkpt>
<trkpt lat="46.2933425903320312" lon="7.5051198005676270"><ele></ele><time>2014-10-10T15:51:7Z</time></trkpt>
<trkpt lat="46.2937126159667969" lon="7.5055298805236816"><ele></ele><time>2014-10-10T15:51:10Z</time></trkpt>
<trkpt lat="46.2939567565917969" lon="7.5058064460754395"><ele></ele><time>2014-10-10T15:51:13Z</time></trkpt>
<trkpt lat="46.2941169738769531" lon="7.5056777000427246"><ele></ele><time>2014-10-10T15:51:16Z</time></trkpt>
<trkpt lat="46.2942810058593750" lon="7.5060319900512695"><ele></ele><time>2014-10-10T15:51:19Z</time></trkpt>
<trkpt lat="46.2945747375488281" lon="7.5060853958129883"><ele></ele><time>2014-10-10T15:51:22Z</time></trkpt>
<trkpt lat="46.2948570251464844" lon="7.5065975189208984"><ele></ele><time>2014-10-10T15:51:25Z</time></trkpt>
<trkpt lat="46.2951316833496094" lon="7.5066323280334473"><ele></ele><time>2014-10-10T15:51:28Z</time></trkpt>
<trkpt lat="46.2954521179199219" lon="7.5070381164550781"><ele></ele><time>2014-10-10T15:51:31Z</time></trkpt>
<trkpt lat="46.2955055236816406" lon="7.5070643424987793"><ele></ele><time>2014-10-10T15:51:34Z</time></trkpt>
<trkpt lat="46.2955665588378906" lon="7.5072531700134277"><ele></ele><time>2014-10-10T15:51:37Z</time></trkpt>
<trkpt lat="46.2960166931152344" lon="7.5073456764221191"><ele></ele><time>2014-10-10T15:51:40Z</time></trkpt>
<trkpt lat="46.2961349487304688" lon="7.5073719024658203"><ele></ele><time>2014-10-10T15:51:43Z</time></trkpt>
<trkpt lat="46.2961959838867188" lon="7.5072989463806152"><ele></ele><time>2014-10-10T15:51:46Z</time></trkpt>
<trkpt lat="46.2966499328613281" lon="7.5072937011718750"><ele></ele><time>2014-10-10T15:51:49Z</time></trkpt>
<trkpt lat="46.2968254089355469" lon="7.5072197914123535"><ele></ele><time>2014-10-10T15:51:52Z</time></trkpt>
<trkpt lat="46.2969360351562500" lon="7.5067400932312012"><ele></ele><time>2014-10-10T15:51:55Z</time></trkpt>
<trkpt lat="46.2970352172851562" lon="7.5066866874694824"><ele></ele><time>2014-10-10T15:51:58Z</time></trkpt>
<trkpt lat="46.2974166870117188" lon="7.5070676803588867"><ele></ele><time>2014-10-10T15:52:1Z</time></trkpt>
<trkpt lat="46.2978591918945312" lon="7.5071954727172852"><ele></ele><time>2014-10-10T15:52:4Z</time></trkpt>
<trkpt lat="46.2983169555664062" lon="7.5072083473205566"><ele></ele><time>2014-10-10T15:52:7Z</time></trkpt>
<trkpt lat="46.2986793518066406" lon="7.5068182945251465"><ele></ele><time>2014-10-10T15:52:10Z</time></trkpt>
<trkpt lat="46.2990760803222656" lon="7.5064778327941895"><ele></ele><time>2014-10-10T15:52:13Z</time></trkpt>
<trkpt lat="46.2993965148925781" lon="7.5063467025756836"><ele></ele><time>2014-10-10T15:52:16Z</time></trkpt>
<trkpt lat="46.2996749877929688" lon="7.5068583488464355"><ele></ele><time>2014-10-10T15:52:19Z</time></trkpt>
<trkpt lat="46.3001098632812500" lon="7.5070381164550781"><ele></ele><time>2014-10-10T15:52:22Z</time></trkpt>
<trkpt lat="46.3005790710449219" lon="7.5069994926452637"><ele></ele><time>2014-10-10T15:52:25Z</time></trkpt>
<trkpt lat="46.3010520935058594" lon="7.5070586204528809"><ele></ele><time>2014-10-10T15:52:28Z</time></trkpt>
<trkpt lat="46.3011131286621094" lon="7.5071563720703125"><ele></ele><time>2014-10-10T15:52:31Z</time></trkpt>
<trkpt lat="46.3011932373046875" lon="7.5071625709533691"><ele></ele><time>2014-10-10T15:52:34Z</time></trkpt>
<trkpt lat="46.3012237548828125" lon="7.5073218345642090"><ele></ele><time>2014-10-10T15:52:37Z</time></trkpt>
<trkpt lat="46.3012924194335938" lon="7.5079774856567383"><ele></ele><time>2014-10-10T15:52:40Z</time></trkpt>
<trkpt lat="46.3013496398925781" lon="7.5086340904235840"><ele></ele><time>2014-10-10T15:52:43Z</time></trkpt>
<trkpt lat="46.3011703491210938" lon="7.5092420578002930"><ele></ele><time>2014-10-10T15:52:46Z</time></trkpt>
<trkpt lat="46.3009414672851562" lon="7.5098156929016113"><ele></ele><time>2014-10-10T15:52:49Z</time></trkpt>
<trkpt lat="46.3008155822753906" lon="7.5104408264160156"><ele></ele><time>2014-10-10T15:52:52Z</time></trkpt>
<trkpt lat="46.3010253906250000" lon="7.5110435485839844"><ele></ele><time>2014-10-10T15:52:55Z</time></trkpt>
<trkpt lat="46.3013877868652344" lon="7.5114421844482422"><ele></ele><time>2014-10-10T15:52:58Z</time></trkpt>
<trkpt lat="46.3018417358398438" lon="7.5115065574645996"><ele></ele><time>2014-10-10T15:53:1Z</time></trkpt>
<trkpt lat="46.3022613525390625" lon="7.5117921829223633"><ele></ele><time>2014-10-10T15:53:4Z</time></trkpt>
<trkpt lat="46.3024940490722656" lon="7.5123558044433594"><ele></ele><time>2014-10-10T15:53:7Z</time></trkpt>
<trkpt lat="46.3029479980468750" lon="7.5121912956237793"><ele></ele><time>2014-10-10T15:53:10Z</time></trkpt>
<trkpt lat="46.3034019470214844" lon="7.5119614601135254"><ele></ele><time>2014-10-10T15:53:13Z</time></trkpt>
<trkpt lat="46.3038101196289062" lon="7.5120177268981934"><ele></ele><time>2014-10-10T15:53:16Z</time></trkpt>
<trkpt lat="46.3039436340332031" lon="7.5122003555297852"><ele></ele><time>2014-10-10T15:53:19Z</time></trkpt>
<trkpt lat="46.3040390014648438" lon="7.5129241943359375"><ele></ele><time>2014-10-10T15:53:22Z</time></trkpt>
<trkpt lat="46.3041839599609375" lon="7.5135493278503418"><ele></ele><time>2014-10-10T15:53:25Z</time></trkpt>
<trkpt lat="46.3044624328613281" lon="7.5140995979309082"><ele></ele><time>2014-10-10T15:53:28Z</time></trkpt>
<trkpt lat="46.3047943115234375" lon="7.5145416259765625"><ele></ele><time>2014-10-10T15:53:31Z</time></trkpt>
<trkpt lat="46.3048820495605469" lon="7.5152268409729004"><ele></ele><time>2014-10-10T15:53:34Z</time></trkpt>
<trkpt lat="46.3051109313964844" lon="7.5158705711364746"><ele></ele><time>2014-10-10T15:53:37Z</time></trkpt>
<trkpt lat="46.3052635192871094" lon="7.5164227485656738"><ele></ele><time>2014-10-10T15:53:40Z</time></trkpt>
<trkpt lat="46.3052711486816406" lon="7.5166864395141602"><ele></ele><time>2014-10-10T15:53:43Z</time></trkpt>
<trkpt lat="46.3052520751953125" lon="7.5168328285217285"><ele></ele><time>2014-10-10T15:53:46Z</time></trkpt>
<trkpt lat="46.3054122924804688" lon="7.5173311233520508"><ele></ele><time>2014-10-10T15:53:49Z</time></trkpt>
<trkpt lat="46.3056221008300781" lon="7.5176177024841309"><ele></ele><time>2014-10-10T15:53:52Z</time></trkpt>
<trkpt lat="46.3057785034179688" lon="7.5179023742675781"><ele></ele><time>2014-10-10T15:53:55Z</time></trkpt>
<trkpt lat="46.3058853149414062" lon="7.5180149078369141"><ele></ele><time>2014-10-10T15:53:58Z</time></trkpt>
<trkpt lat="46.3061294555664062" lon="7.5186157226562500"><ele></ele><time>2014-10-10T15:54:1Z</time></trkpt>
<trkpt lat="46.3062171936035156" lon="7.5188913345336914"><ele></ele><time>2014-10-10T15:54:4Z</time></trkpt>
<trkpt lat="46.3062782287597656" lon="7.5193371772766113"><ele></ele><time>2014-10-10T15:54:7Z</time></trkpt>
<trkpt lat="46.3062629699707031" lon="7.5195059776306152"><ele></ele><time>2014-10-10T15:54:10Z</time></trkpt>
<trkpt lat="46.3065719604492188" lon="7.5199646949768066"><ele></ele><time>2014-10-10T15:54:13Z</time></trkpt>
<trkpt lat="46.3067169189453125" lon="7.5206384658813477"><ele></ele><time>2014-10-10T15:54:16Z</time></trkpt>
<trkpt lat="46.3070411682128906" lon="7.5210962295532227"><ele></ele><time>2014-10-10T15:54:19Z</time></trkpt>
<trkpt lat="46.3072319030761719" lon="7.5214791297912598"><ele></ele><time>2014-10-10T15:54:22Z</time></trkpt>
<trkpt lat="46.3070068359375000" lon="7.5214166641235352"><ele></ele><time>2014-10-10T15:54:25Z</time></trkpt>
<trkpt lat="46.3072929382324219" lon="7.5220303535461426"><ele></ele><time>2014-10-10T15:54:28Z</time></trkpt>
<trkpt lat="46.3075294494628906" lon="7.5226616859436035"><ele></ele><time>2014-10-10T15:54:31Z</time></trkpt>
<trkpt lat="46.3076744079589844" lon="7.5230998992919922"><ele></ele><time>2014-10-10T15:54:34Z</time></trkpt>
<trkpt lat="46.3077354431152344" lon="7.5235619544982910"><ele></ele><time>2014-10-10T15:54:37Z</time></trkpt>
<trkpt lat="46.3079757690429688" lon="7.5238571166992188"><ele></ele><time>2014-10-10T15:54:40Z</time></trkpt>
<trkpt lat="46.3081893920898438" lon="7.5240383148193359"><ele></ele><time>2014-10-10T15:54:43Z</time></trkpt>
<trkpt lat="46.3082771301269531" lon="7.5242505073547363"><ele></ele><time>2014-10-10T15:54:46Z</time></trkpt>
<trkpt lat="46.3082733154296875" lon="7.5244169235229492"><ele></ele><time>2014-10-10T15:54:49Z</time></trkpt>
<trkpt lat="46.3081817626953125" lon="7.5248274803161621"><ele></ele><time>2014-10-10T15:54:52Z</time></trkpt>
<trkpt lat="46.3083534240722656" lon="7.5252456665039062"><ele></ele><time>2014-10-10T15:54:55Z</time></trkpt>
<trkpt lat="46.3086967468261719" lon="7.5256853103637695"><ele></ele><time>2014-10-10T15:54:58Z</time></trkpt>
<trkpt lat="46.3087921142578125" lon="7.5259561538696289"><ele></ele><time>2014-10-10T15:55:1Z</time></trkpt>
<trkpt lat="46.3088874816894531" lon="7.5262069702148438"><ele></ele><time>2014-10-10T15:55:4Z</time></trkpt>
<trkpt lat="46.3092918395996094" lon="7.5265598297119141"><ele></ele><time>2014-10-10T15:55:7Z</time></trkpt>
<trkpt lat="46.3094787597656250" lon="7.5267577171325684"><ele></ele><time>2014-10-10T15:55:10Z</time></trkpt>
<trkpt lat="46.3095817565917969" lon="7.5268983840942383"><ele></ele><time>2014-10-10T15:55:13Z</time></trkpt>
<trkpt lat="46.3096733093261719" lon="7.5269007682800293"><ele></ele><time>2014-10-10T15:55:16Z</time></trkpt>
<trkpt lat="46.3097457885742188" lon="7.5269927978515625"><ele></ele><time>2014-10-10T15:55:19Z</time></trkpt>
<trkpt lat="46.3097267150878906" lon="7.5268650054931641"><ele></ele><time>2014-10-10T15:55:22Z</time></trkpt>
<trkpt lat="46.3099021911621094" lon="7.5274667739868164"><ele></ele><time>2014-10-10T15:55:25Z</time></trkpt>
<trkpt lat="46.3099746704101562" lon="7.5276408195495605"><ele></ele><time>2014-10-10T15:55:28Z</time></trkpt>
<trkpt lat="46.3101005554199219" lon="7.5277585983276367"><ele></ele><time>2014-10-10T15:55:31Z</time></trkpt>
<trkpt lat="46.3102760314941406" lon="7.5283632278442383"><ele></ele><time>2014-10-10T15:55:34Z</time></trkpt>
<trkpt lat="46.3102760314941406" lon="7.5286197662353516"><ele></ele><time>2014-10-10T15:55:37Z</time></trkpt>
<trkpt lat="46.3104591369628906" lon="7.5291748046875000"><ele></ele><time>2014-10-10T15:55:40Z</time></trkpt>
<trkpt lat="46.3105964660644531" lon="7.5292878150939941"><ele></ele><time>2014-10-10T15:55:43Z</time></trkpt>
<trkpt lat="46.3106498718261719" lon="7.5292510986328125"><ele></ele><time>2014-10-10T15:55:46Z</time></trkpt>
<trkpt lat="46.3107452392578125" lon="7.5292682647705078"><ele></ele><time>2014-10-10T15:55:49Z</time></trkpt>
<trkpt lat="46.3107795715332031" lon="7.5292029380798340"><ele></ele><time>2014-10-10T15:55:52Z</time></trkpt>
<trkpt lat="46.3107872009277344" lon="7.5292792320251465"><ele></ele><time>2014-10-10T15:55:55Z</time></trkpt>
<trkpt lat="46.3111267089843750" lon="7.5297632217407227"><ele></ele><time>2014-10-10T15:55:58Z</time></trkpt>
<trkpt lat="46.3114852905273438" lon="7.5301609039306641"><ele></ele><time>2014-10-10T15:56:1Z</time></trkpt>
<trkpt lat="46.3117408752441406" lon="7.5303912162780762"><ele></ele><time>2014-10-10T15:56:4Z</time></trkpt>
<trkpt lat="46.3120803833007812" lon="7.5305590629577637"><ele></ele><time>2014-10-10T15:56:7Z</time></trkpt>
<trkpt lat="46.3124313354492188" lon="7.5310301780700684"><ele></ele><time>2014-10-10T15:56:10Z</time></trkpt>
<trkpt lat="46.3126029968261719" lon="7.5310955047607422"><ele></ele><time>2014-10-10T15:56:13Z</time></trkpt>
<trkpt lat="46.3130836486816406" lon="7.5310525894165039"><ele></ele><time>2014-10-10T15:56:16Z</time></trkpt>
<trkpt lat="46.3131637573242188" lon="7.5310649871826172"><ele></ele><time>2014-10-10T15:56:19Z</time></trkpt>
<trkpt lat="46.3133926391601562" lon="7.5306010246276855"><ele></ele><time>2014-10-10T15:56:22Z</time></trkpt>
<trkpt lat="46.3134422302246094" lon="7.5303940773010254"><ele></ele><time>2014-10-10T15:56:25Z</time></trkpt>
<trkpt lat="46.3135681152343750" lon="7.5302515029907227"><ele></ele><time>2014-10-10T15:56:28Z</time></trkpt>
<trkpt lat="46.3138160705566406" lon="7.5302028656005859"><ele></ele><time>2014-10-10T15:56:31Z</time></trkpt>
<trkpt lat="46.3141479492187500" lon="7.5300645828247070"><ele></ele><time>2014-10-10T15:56:34Z</time></trkpt>
<trkpt lat="46.3143806457519531" lon="7.5301403999328613"><ele></ele><time>2014-10-10T15:56:37Z</time></trkpt>
<trkpt lat="46.3147087097167969" lon="7.5306186676025391"><ele></ele><time>2014-10-10T15:56:40Z</time></trkpt>
<trkpt lat="46.3147888183593750" lon="7.5306787490844727"><ele></ele><time>2014-10-10T15:56:43Z</time></trkpt>
<trkpt lat="46.3149070739746094" lon="7.5305991172790527"><ele></ele><time>2014-10-10T15:56:46Z</time></trkpt>
<trkpt lat="46.3151817321777344" lon="7.5300397872924805"><ele></ele><time>2014-10-10T15:56:49Z</time></trkpt>
<trkpt lat="46.3156471252441406" lon="7.5300712585449219"><ele></ele><time>2014-10-10T15:56:52Z</time></trkpt>
<trkpt lat="46.3159790039062500" lon="7.5301456451416016"><ele></ele><time>2014-10-10T15:56:55Z</time></trkpt>
<trkpt lat="46.3161926269531250" lon="7.5299153327941895"><ele></ele><time>2014-10-10T15:56:58Z</time></trkpt>
<trkpt lat="46.3163261413574219" lon="7.5298619270324707"><ele></ele><time>2014-10-10T15:57:1Z</time></trkpt>
<trkpt lat="46.3164634704589844" lon="7.5296812057495117"><ele></ele><time>2014-10-10T15:57:4Z</time></trkpt>
<trkpt lat="46.3165206909179688" lon="7.5297403335571289"><ele></ele><time>2014-10-10T15:57:7Z</time></trkpt>
<trkpt lat="46.3165931701660156" lon="7.5302095413208008"><ele></ele><time>2014-10-10T15:57:10Z</time></trkpt>
<trkpt lat="46.3165512084960938" lon="7.5305409431457520"><ele></ele><time>2014-10-10T15:57:13Z</time></trkpt>
<trkpt lat="46.3166503906250000" lon="7.5307865142822266"><ele></ele><time>2014-10-10T15:57:16Z</time></trkpt>
<trkpt lat="46.3169097900390625" lon="7.5309352874755859"><ele></ele><time>2014-10-10T15:57:19Z</time></trkpt>
<trkpt lat="46.3174095153808594" lon="7.5309548377990723"><ele></ele><time>2014-10-10T15:57:22Z</time></trkpt>
<trkpt lat="46.3179054260253906" lon="7.5310502052307129"><ele></ele><time>2014-10-10T15:57:25Z</time></trkpt>
<trkpt lat="46.3181457519531250" lon="7.5310583114624023"><ele></ele><time>2014-10-10T15:57:28Z</time></trkpt>
<trkpt lat="46.3183860778808594" lon="7.5311398506164551"><ele></ele><time>2014-10-10T15:57:31Z</time></trkpt>
<trkpt lat="46.3184700012207031" lon="7.5310969352722168"><ele></ele><time>2014-10-10T15:57:34Z</time></trkpt>
<trkpt lat="46.3186721801757812" lon="7.5307993888854980"><ele></ele><time>2014-10-10T15:57:37Z</time></trkpt>
<trkpt lat="46.3187103271484375" lon="7.5305724143981934"><ele></ele><time>2014-10-10T15:57:40Z</time></trkpt>
<trkpt lat="46.3189353942871094" lon="7.5299382209777832"><ele></ele><time>2014-10-10T15:57:43Z</time></trkpt>
<trkpt lat="46.3190078735351562" lon="7.5297179222106934"><ele></ele><time>2014-10-10T15:57:46Z</time></trkpt>
<trkpt lat="46.3193778991699219" lon="7.5292520523071289"><ele></ele><time>2014-10-10T15:57:49Z</time></trkpt>
<trkpt lat="46.3195648193359375" lon="7.5287551879882812"><ele></ele><time>2014-10-10T15:57:52Z</time></trkpt>
<trkpt lat="46.3196296691894531" lon="7.5283937454223633"><ele></ele><time>2014-10-10T15:57:55Z</time></trkpt>
<trkpt lat="46.3199310302734375" lon="7.5278711318969727"><ele></ele><time>2014-10-10T15:57:58Z</time></trkpt>
<trkpt lat="46.3200759887695312" lon="7.5274085998535156"><ele></ele><time>2014-10-10T15:58:1Z</time></trkpt>
<trkpt lat="46.3202438354492188" lon="7.5273647308349609"><ele></ele><time>2014-10-10T15:58:4Z</time></trkpt>
<trkpt lat="46.3204154968261719" lon="7.5279803276062012"><ele></ele><time>2014-10-10T15:58:7Z</time></trkpt>
<trkpt lat="46.3205909729003906" lon="7.5283069610595703"><ele></ele><time>2014-10-10T15:58:10Z</time></trkpt>
<trkpt lat="46.3206138610839844" lon="7.5289750099182129"><ele></ele><time>2014-10-10T15:58:13Z</time></trkpt>
<trkpt lat="46.3206977844238281" lon="7.5291481018066406"><ele></ele><time>2014-10-10T15:58:16Z</time></trkpt>
<trkpt lat="46.3209495544433594" lon="7.5292530059814453"><ele></ele><time>2014-10-10T15:58:19Z</time></trkpt>
<trkpt lat="46.3209991455078125" lon="7.5299592018127441"><ele></ele><time>2014-10-10T15:58:22Z</time></trkpt>
<trkpt lat="46.3209495544433594" lon="7.5304331779479980"><ele></ele><time>2014-10-10T15:58:25Z</time></trkpt>
<trkpt lat="46.3210067749023438" lon="7.5305762290954590"><ele></ele><time>2014-10-10T15:58:28Z</time></trkpt>
<trkpt lat="46.3214073181152344" lon="7.5302867889404297"><ele></ele><time>2014-10-10T15:58:31Z</time></trkpt>
<trkpt lat="46.3217582702636719" lon="7.5298447608947754"><ele></ele><time>2014-10-10T15:58:34Z</time></trkpt>
<trkpt lat="46.3220901489257812" lon="7.5295906066894531"><ele></ele><time>2014-10-10T15:58:37Z</time></trkpt>
<trkpt lat="46.3221702575683594" lon="7.5296974182128906"><ele></ele><time>2014-10-10T15:58:40Z</time></trkpt>
<trkpt lat="46.3221855163574219" lon="7.5303502082824707"><ele></ele><time>2014-10-10T15:58:43Z</time></trkpt>
<trkpt lat="46.3220634460449219" lon="7.5310053825378418"><ele></ele><time>2014-10-10T15:58:46Z</time></trkpt>
<trkpt lat="46.3220100402832031" lon="7.5312638282775879"><ele></ele><time>2014-10-10T15:58:49Z</time></trkpt>
<trkpt lat="46.3221473693847656" lon="7.5315022468566895"><ele></ele><time>2014-10-10T15:58:52Z</time></trkpt>
<trkpt lat="46.3221168518066406" lon="7.5316038131713867"><ele></ele><time>2014-10-10T15:58:55Z</time></trkpt>
<trkpt lat="46.3219413757324219" lon="7.5318412780761719"><ele></ele><time>2014-10-10T15:58:58Z</time></trkpt>
<trkpt lat="46.3220405578613281" lon="7.5321798324584961"><ele></ele><time>2014-10-10T15:59:1Z</time></trkpt>
<trkpt lat="46.3223266601562500" lon="7.5321307182312012"><ele></ele><time>2014-10-10T15:59:4Z</time></trkpt>
<trkpt lat="46.3223953247070312" lon="7.5320715904235840"><ele></ele><time>2014-10-10T15:59:7Z</time></trkpt>
<trkpt lat="46.3224143981933594" lon="7.5321884155273438"><ele></ele><time>2014-10-10T15:59:10Z</time></trkpt>
<trkpt lat="46.3223342895507812" lon="7.5325188636779785"><ele></ele><time>2014-10-10T15:59:13Z</time></trkpt>
<trkpt lat="46.3224792480468750" lon="7.5328812599182129"><ele></ele><time>2014-10-10T15:59:16Z</time></trkpt>
<trkpt lat="46.3222961425781250" lon="7.5332698822021484"><ele></ele><time>2014-10-10T15:59:19Z</time></trkpt>
<trkpt lat="46.3223190307617188" lon="7.5334086418151855"><ele></ele><time>2014-10-10T15:59:22Z</time></trkpt>
<trkpt lat="46.3227539062500000" lon="7.5336308479309082"><ele></ele><time>2014-10-10T15:59:25Z</time></trkpt>
<trkpt lat="46.3228836059570312" lon="7.5337429046630859"><ele></ele><time>2014-10-10T15:59:28Z</time></trkpt>
<trkpt lat="46.3229751586914062" lon="7.5337653160095215"><ele></ele><time>2014-10-10T15:59:31Z</time></trkpt>
<trkpt lat="46.3228988647460938" lon="7.5344400405883789"><ele></ele><time>2014-10-10T15:59:34Z</time></trkpt>
<trkpt lat="46.3227882385253906" lon="7.5348830223083496"><ele></ele><time>2014-10-10T15:59:37Z</time></trkpt>
<trkpt lat="46.3227615356445312" lon="7.5355348587036133"><ele></ele><time>2014-10-10T15:59:40Z</time></trkpt>
<trkpt lat="46.3228569030761719" lon="7.5361828804016113"><ele></ele><time>2014-10-10T15:59:43Z</time></trkpt>
<trkpt lat="46.3227729797363281" lon="7.5368509292602539"><ele></ele><time>2014-10-10T15:59:46Z</time></trkpt>
<trkpt lat="46.3226890563964844" lon="7.5375227928161621"><ele></ele><time>2014-10-10T15:59:49Z</time></trkpt>
<trkpt lat="46.3226280212402344" lon="7.5379347801208496"><ele></ele><time>2014-10-10T15:59:52Z</time></trkpt>
<trkpt lat="46.3224601745605469" lon="7.5385389328002930"><ele></ele><time>2014-10-10T15:59:55Z</time></trkpt>
<trkpt lat="46.3222351074218750" lon="7.5391554832458496"><ele></ele><time>2014-10-10T15:59:58Z</time></trkpt>
<trkpt lat="46.3220901489257812" lon="7.5393290519714355"><ele></ele><time>2014-10-10T16:0:1Z</time></trkpt>
<trkpt lat="46.3219833374023438" lon="7.5394034385681152"><ele></ele><time>2014-10-10T16:0:4Z</time></trkpt>
<trkpt lat="46.3218040466308594" lon="7.5398197174072266"><ele></ele><time>2014-10-10T16:0:7Z</time></trkpt>
<trkpt lat="46.3217849731445312" lon="7.5404567718505859"><ele></ele><time>2014-10-10T16:0:10Z</time></trkpt>
<trkpt lat="46.3218879699707031" lon="7.5407996177673340"><ele></ele><time>2014-10-10T16:0:13Z</time></trkpt>
<trkpt lat="46.3218193054199219" lon="7.5410842895507812"><ele></ele><time>2014-10-10T16:0:16Z</time></trkpt>
<trkpt lat="46.3221015930175781" lon="7.5416307449340820"><ele></ele><time>2014-10-10T16:0:19Z</time></trkpt>
<trkpt lat="46.3219718933105469" lon="7.5420475006103516"><ele></ele><time>2014-10-10T16:0:22Z</time></trkpt>
<trkpt lat="46.3219566345214844" lon="7.5425076484680176"><ele></ele><time>2014-10-10T16:0:25Z</time></trkpt>
<trkpt lat="46.3218955993652344" lon="7.5427742004394531"><ele></ele><time>2014-10-10T16:0:28Z</time></trkpt>
<trkpt lat="46.3220443725585938" lon="7.5434436798095703"><ele></ele><time>2014-10-10T16:0:31Z</time></trkpt>
<trkpt lat="46.3220520019531250" lon="7.5437808036804199"><ele></ele><time>2014-10-10T16:0:34Z</time></trkpt>
<trkpt lat="46.3219985961914062" lon="7.5438795089721680"><ele></ele><time>2014-10-10T16:0:37Z</time></trkpt>
<trkpt lat="46.3215560913085938" lon="7.5440325736999512"><ele></ele><time>2014-10-10T16:0:40Z</time></trkpt>
<trkpt lat="46.3210868835449219" lon="7.5442485809326172"><ele></ele><time>2014-10-10T16:0:43Z</time></trkpt>
<trkpt lat="46.3208847045898438" lon="7.5443177223205566"><ele></ele><time>2014-10-10T16:0:46Z</time></trkpt>
<trkpt lat="46.3207893371582031" lon="7.5445442199707031"><ele></ele><time>2014-10-10T16:0:49Z</time></trkpt>
<trkpt lat="46.3208351135253906" lon="7.5448799133300781"><ele></ele><time>2014-10-10T16:0:52Z</time></trkpt>
<trkpt lat="46.3209457397460938" lon="7.5450773239135742"><ele></ele><time>2014-10-10T16:0:55Z</time></trkpt>
<trkpt lat="46.3209037780761719" lon="7.5453829765319824"><ele></ele><time>2014-10-10T16:0:58Z</time></trkpt>
<trkpt lat="46.3212509155273438" lon="7.5458469390869141"><ele></ele><time>2014-10-10T16:1:1Z</time></trkpt>
<trkpt lat="46.3215599060058594" lon="7.5463228225708008"><ele></ele><time>2014-10-10T16:1:4Z</time></trkpt>
<trkpt lat="46.3216438293457031" lon="7.5469665527343750"><ele></ele><time>2014-10-10T16:1:7Z</time></trkpt>
<trkpt lat="46.3217010498046875" lon="7.5474295616149902"><ele></ele><time>2014-10-10T16:1:10Z</time></trkpt>
<trkpt lat="46.3219947814941406" lon="7.5476737022399902"><ele></ele><time>2014-10-10T16:1:13Z</time></trkpt>
<trkpt lat="46.3224449157714844" lon="7.5477166175842285"><ele></ele><time>2014-10-10T16:1:16Z</time></trkpt>
<trkpt lat="46.3226203918457031" lon="7.5477633476257324"><ele></ele><time>2014-10-10T16:1:19Z</time></trkpt>
<trkpt lat="46.3230171203613281" lon="7.5473904609680176"><ele></ele><time>2014-10-10T16:1:22Z</time></trkpt>
<trkpt lat="46.3234939575195312" lon="7.5473365783691406"><ele></ele><time>2014-10-10T16:1:25Z</time></trkpt>
<trkpt lat="46.3236541748046875" lon="7.5475234985351562"><ele></ele><time>2014-10-10T16:1:28Z</time></trkpt>
<trkpt lat="46.3236999511718750" lon="7.5476965904235840"><ele></ele><time>2014-10-10T16:1:31Z</time></trkpt>
<trkpt lat="46.3235282897949219" lon="7.5483102798461914"><ele></ele><time>2014-10-10T16:1:34Z</time></trkpt>
<trkpt lat="46.3234672546386719" lon="7.5485706329345703"><ele></ele><time>2014-10-10T16:1:37Z</time></trkpt>
<trkpt lat="46.3237113952636719" lon="7.5491604804992676"><ele></ele><time>2014-10-10T16:1:40Z</time></trkpt>
<trkpt lat="46.3238754272460938" lon="7.5494098663330078"><ele></ele><time>2014-10-10T16:1:43Z</time></trkpt>
<trkpt lat="46.3239440917968750" lon="7.5499320030212402"><ele></ele><time>2014-10-10T16:1:46Z</time></trkpt>
<trkpt lat="46.3240509033203125" lon="7.5500521659851074"><ele></ele><time>2014-10-10T16:1:49Z</time></trkpt>
<trkpt lat="46.3245201110839844" lon="7.5498375892639160"><ele></ele><time>2014-10-10T16:1:52Z</time></trkpt>
<trkpt lat="46.3249588012695312" lon="7.5496287345886230"><ele></ele><time>2014-10-10T16:1:55Z</time></trkpt>
<trkpt lat="46.3254165649414062" lon="7.5497632026672363"><ele></ele><time>2014-10-10T16:1:58Z</time></trkpt>
<trkpt lat="46.3256187438964844" lon="7.5499567985534668"><ele></ele><time>2014-10-10T16:2:1Z</time></trkpt>
<trkpt lat="46.3256187438964844" lon="7.5501432418823242"><ele></ele><time>2014-10-10T16:2:4Z</time></trkpt>
<trkpt lat="46.3255615234375000" lon="7.5502343177795410"><ele></ele><time>2014-10-10T16:2:7Z</time></trkpt>
<trkpt lat="46.3251228332519531" lon="7.5504364967346191"><ele></ele><time>2014-10-10T16:2:10Z</time></trkpt>
<trkpt lat="46.3247642517089844" lon="7.5508031845092773"><ele></ele><time>2014-10-10T16:2:13Z</time></trkpt>
<trkpt lat="46.3251914978027344" lon="7.5510568618774414"><ele></ele><time>2014-10-10T16:2:16Z</time></trkpt>
<trkpt lat="46.3256530761718750" lon="7.5509700775146484"><ele></ele><time>2014-10-10T16:2:19Z</time></trkpt>
<trkpt lat="46.3257141113281250" lon="7.5509705543518066"><ele></ele><time>2014-10-10T16:2:22Z</time></trkpt>
<trkpt lat="46.3255462646484375" lon="7.5515837669372559"><ele></ele><time>2014-10-10T16:2:25Z</time></trkpt>
<trkpt lat="46.3254165649414062" lon="7.5522460937500000"><ele></ele><time>2014-10-10T16:2:28Z</time></trkpt>
<trkpt lat="46.3252143859863281" lon="7.5528268814086914"><ele></ele><time>2014-10-10T16:2:31Z</time></trkpt>
<trkpt lat="46.3250045776367188" lon="7.5534687042236328"><ele></ele><time>2014-10-10T16:2:34Z</time></trkpt>
<trkpt lat="46.3248291015625000" lon="7.5540757179260254"><ele></ele><time>2014-10-10T16:2:37Z</time></trkpt>
<trkpt lat="46.3246726989746094" lon="7.5547356605529785"><ele></ele><time>2014-10-10T16:2:40Z</time></trkpt>
<trkpt lat="46.3245162963867188" lon="7.5553531646728516"><ele></ele><time>2014-10-10T16:2:43Z</time></trkpt>
<trkpt lat="46.3243446350097656" lon="7.5559906959533691"><ele></ele><time>2014-10-10T16:2:46Z</time></trkpt>
<trkpt lat="46.3241500854492188" lon="7.5565958023071289"><ele></ele><time>2014-10-10T16:2:49Z</time></trkpt>
<trkpt lat="46.3239860534667969" lon="7.5572628974914551"><ele></ele><time>2014-10-10T16:2:52Z</time></trkpt>
<trkpt lat="46.3239059448242188" lon="7.5579071044921875"><ele></ele><time>2014-10-10T16:2:55Z</time></trkpt>
<trkpt lat="46.3239097595214844" lon="7.5585370063781738"><ele></ele><time>2014-10-10T16:2:58Z</time></trkpt>
<trkpt lat="46.3240051269531250" lon="7.5587396621704102"><ele></ele><time>2014-10-10T16:3:1Z</time></trkpt>
<trkpt lat="46.3239746093750000" lon="7.5594339370727539"><ele></ele><time>2014-10-10T16:3:4Z</time></trkpt>
<trkpt lat="46.3240280151367188" lon="7.5601282119750977"><ele></ele><time>2014-10-10T16:3:7Z</time></trkpt>
<trkpt lat="46.3239784240722656" lon="7.5608096122741699"><ele></ele><time>2014-10-10T16:3:10Z</time></trkpt>
<trkpt lat="46.3240013122558594" lon="7.5614943504333496"><ele></ele><time>2014-10-10T16:3:13Z</time></trkpt>
<trkpt lat="46.3239974975585938" lon="7.5621752738952637"><ele></ele><time>2014-10-10T16:3:16Z</time></trkpt>
<trkpt lat="46.3240280151367188" lon="7.5628595352172852"><ele></ele><time>2014-10-10T16:3:19Z</time></trkpt>
<trkpt lat="46.3240356445312500" lon="7.5635275840759277"><ele></ele><time>2014-10-10T16:3:22Z</time></trkpt>
<trkpt lat="46.3240776062011719" lon="7.5642004013061523"><ele></ele><time>2014-10-10T16:3:25Z</time></trkpt>
<trkpt lat="46.3241004943847656" lon="7.5649099349975586"><ele></ele><time>2014-10-10T16:3:28Z</time></trkpt>
<trkpt lat="46.3241386413574219" lon="7.5655884742736816"><ele></ele><time>2014-10-10T16:3:31Z</time></trkpt>
<trkpt lat="46.3241271972656250" lon="7.5662870407104492"><ele></ele><time>2014-10-10T16:3:34Z</time></trkpt>
<trkpt lat="46.3241615295410156" lon="7.5669603347778320"><ele></ele><time>2014-10-10T16:3:37Z</time></trkpt>
<trkpt lat="46.3241767883300781" lon="7.5677137374877930"><ele></ele><time>2014-10-10T16:3:40Z</time></trkpt>
<trkpt lat="46.3241806030273438" lon="7.5684094429016113"><ele></ele><time>2014-10-10T16:3:43Z</time></trkpt>
<trkpt lat="46.3241920471191406" lon="7.5689263343811035"><ele></ele><time>2014-10-10T16:3:46Z</time></trkpt>
<trkpt lat="46.3241462707519531" lon="7.5692071914672852"><ele></ele><time>2014-10-10T16:3:49Z</time></trkpt>
<trkpt lat="46.3241996765136719" lon="7.5699114799499512"><ele></ele><time>2014-10-10T16:3:52Z</time></trkpt>
<trkpt lat="46.3242378234863281" lon="7.5705962181091309"><ele></ele><time>2014-10-10T16:3:55Z</time></trkpt>
<trkpt lat="46.3242568969726562" lon="7.5712485313415527"><ele></ele><time>2014-10-10T16:3:58Z</time></trkpt>
<trkpt lat="46.3243064880371094" lon="7.5719261169433594"><ele></ele><time>2014-10-10T16:4:1Z</time></trkpt>
<trkpt lat="46.3243637084960938" lon="7.5725803375244141"><ele></ele><time>2014-10-10T16:4:4Z</time></trkpt>
<trkpt lat="46.3244552612304688" lon="7.5732684135437012"><ele></ele><time>2014-10-10T16:4:7Z</time></trkpt>
<trkpt lat="46.3245086669921875" lon="7.5739207267761230"><ele></ele><time>2014-10-10T16:4:10Z</time></trkpt>
<trkpt lat="46.3245811462402344" lon="7.5745859146118164"><ele></ele><time>2014-10-10T16:4:13Z</time></trkpt>
<trkpt lat="46.3246383666992188" lon="7.5752511024475098"><ele></ele><time>2014-10-10T16:4:16Z</time></trkpt>
<trkpt lat="46.3247489929199219" lon="7.5758972167968750"><ele></ele><time>2014-10-10T16:4:19Z</time></trkpt>
<trkpt lat="46.3248367309570312" lon="7.5765385627746582"><ele></ele><time>2014-10-10T16:4:22Z</time></trkpt>
<trkpt lat="46.3249168395996094" lon="7.5772256851196289"><ele></ele><time>2014-10-10T16:4:25Z</time></trkpt>
<trkpt lat="46.3250045776367188" lon="7.5779180526733398"><ele></ele><time>2014-10-10T16:4:28Z</time></trkpt>
<trkpt lat="46.3250198364257812" lon="7.5786194801330566"><ele></ele><time>2014-10-10T16:4:31Z</time></trkpt>
<trkpt lat="46.3249664306640625" lon="7.5793194770812988"><ele></ele><time>2014-10-10T16:4:34Z</time></trkpt>
<trkpt lat="46.3248329162597656" lon="7.5799674987792969"><ele></ele><time>2014-10-10T16:4:37Z</time></trkpt>
<trkpt lat="46.3247718811035156" lon="7.5806736946105957"><ele></ele><time>2014-10-10T16:4:40Z</time></trkpt>
<trkpt lat="46.3247108459472656" lon="7.5813293457031250"><ele></ele><time>2014-10-10T16:4:43Z</time></trkpt>
<trkpt lat="46.3245124816894531" lon="7.5819177627563477"><ele></ele><time>2014-10-10T16:4:46Z</time></trkpt>
<trkpt lat="46.3242645263671875" lon="7.5824985504150391"><ele></ele><time>2014-10-10T16:4:49Z</time></trkpt>
<trkpt lat="46.3240089416503906" lon="7.5826702117919922"><ele></ele><time>2014-10-10T16:4:52Z</time></trkpt>
<trkpt lat="46.3237571716308594" lon="7.5826110839843750"><ele></ele><time>2014-10-10T16:4:55Z</time></trkpt>
<trkpt lat="46.3236846923828125" lon="7.5826711654663086"><ele></ele><time>2014-10-10T16:4:58Z</time></trkpt>
<trkpt lat="46.3236274719238281" lon="7.5833554267883301"><ele></ele><time>2014-10-10T16:5:1Z</time></trkpt>
<trkpt lat="46.3234405517578125" lon="7.5839843750000000"><ele></ele><time>2014-10-10T16:5:4Z</time></trkpt>
<trkpt lat="46.3234863281250000" lon="7.5846886634826660"><ele></ele><time>2014-10-10T16:5:7Z</time></trkpt>
<trkpt lat="46.3235816955566406" lon="7.5853762626647949"><ele></ele><time>2014-10-10T16:5:10Z</time></trkpt>
<trkpt lat="46.3237571716308594" lon="7.5859827995300293"><ele></ele><time>2014-10-10T16:5:13Z</time></trkpt>
<trkpt lat="46.3239707946777344" lon="7.5866346359252930"><ele></ele><time>2014-10-10T16:5:16Z</time></trkpt>
<trkpt lat="46.3241920471191406" lon="7.5872607231140137"><ele></ele><time>2014-10-10T16:5:19Z</time></trkpt>
<trkpt lat="46.3243370056152344" lon="7.5878615379333496"><ele></ele><time>2014-10-10T16:5:22Z</time></trkpt>
<trkpt lat="46.3243293762207031" lon="7.5880441665649414"><ele></ele><time>2014-10-10T16:5:25Z</time></trkpt>
<trkpt lat="46.3246040344238281" lon="7.5885686874389648"><ele></ele><time>2014-10-10T16:5:28Z</time></trkpt>
<trkpt lat="46.3247184753417969" lon="7.5889449119567871"><ele></ele><time>2014-10-10T16:5:31Z</time></trkpt>
<trkpt lat="46.3246841430664062" lon="7.5890216827392578"><ele></ele><time>2014-10-10T16:5:34Z</time></trkpt>
<trkpt lat="46.3243141174316406" lon="7.5891356468200684"><ele></ele><time>2014-10-10T16:5:37Z</time></trkpt>
<trkpt lat="46.3241081237792969" lon="7.5891208648681641"><ele></ele><time>2014-10-10T16:5:40Z</time></trkpt>
<trkpt lat="46.3237228393554688" lon="7.5895595550537109"><ele></ele><time>2014-10-10T16:5:43Z</time></trkpt>
<trkpt lat="46.3233032226562500" lon="7.5897941589355469"><ele></ele><time>2014-10-10T16:5:46Z</time></trkpt>
<trkpt lat="46.3231887817382812" lon="7.5899176597595215"><ele></ele><time>2014-10-10T16:5:49Z</time></trkpt>
<trkpt lat="46.3230552673339844" lon="7.5899686813354492"><ele></ele><time>2014-10-10T16:5:52Z</time></trkpt>
<trkpt lat="46.3229217529296875" lon="7.5905065536499023"><ele></ele><time>2014-10-10T16:5:55Z</time></trkpt>
<trkpt lat="46.3227424621582031" lon="7.5905938148498535"><ele></ele><time>2014-10-10T16:5:58Z</time></trkpt>
<trkpt lat="46.3226547241210938" lon="7.5907206535339355"><ele></ele><time>2014-10-10T16:6:1Z</time></trkpt>
<trkpt lat="46.3225631713867188" lon="7.5907216072082520"><ele></ele><time>2014-10-10T16:6:4Z</time></trkpt>
<trkpt lat="46.3223457336425781" lon="7.5904293060302734"><ele></ele><time>2014-10-10T16:6:7Z</time></trkpt>
<trkpt lat="46.3222999572753906" lon="7.5902690887451172"><ele></ele><time>2014-10-10T16:6:10Z</time></trkpt>
<trkpt lat="46.3220481872558594" lon="7.5906667709350586"><ele></ele><time>2014-10-10T16:6:13Z</time></trkpt>
<trkpt lat="46.3219299316406250" lon="7.5912289619445801"><ele></ele><time>2014-10-10T16:6:16Z</time></trkpt>
<trkpt lat="46.3217773437500000" lon="7.5915999412536621"><ele></ele><time>2014-10-10T16:6:19Z</time></trkpt>
<trkpt lat="46.3216743469238281" lon="7.5915184020996094"><ele></ele><time>2014-10-10T16:6:22Z</time></trkpt>
<trkpt lat="46.3212165832519531" lon="7.5917162895202637"><ele></ele><time>2014-10-10T16:6:25Z</time></trkpt>
<trkpt lat="46.3211212158203125" lon="7.5917525291442871"><ele></ele><time>2014-10-10T16:6:28Z</time></trkpt>
<trkpt lat="46.3210716247558594" lon="7.5918049812316895"><ele></ele><time>2014-10-10T16:6:31Z</time></trkpt>
<trkpt lat="46.3210220336914062" lon="7.5917377471923828"><ele></ele><time>2014-10-10T16:6:34Z</time></trkpt>
<trkpt lat="46.3208770751953125" lon="7.5920586585998535"><ele></ele><time>2014-10-10T16:6:37Z</time></trkpt>
<trkpt lat="46.3207969665527344" lon="7.5926980972290039"><ele></ele><time>2014-10-10T16:6:40Z</time></trkpt>
<trkpt lat="46.3207092285156250" lon="7.5928606986999512"><ele></ele><time>2014-10-10T16:6:43Z</time></trkpt>
<trkpt lat="46.3205833435058594" lon="7.5928711891174316"><ele></ele><time>2014-10-10T16:6:46Z</time></trkpt>
<trkpt lat="46.3201293945312500" lon="7.5927071571350098"><ele></ele><time>2014-10-10T16:6:49Z</time></trkpt>
<trkpt lat="46.3198165893554688" lon="7.5927939414978027"><ele></ele><time>2014-10-10T16:6:52Z</time></trkpt>
<trkpt lat="46.3196334838867188" lon="7.5930275917053223"><ele></ele><time>2014-10-10T16:6:55Z</time></trkpt>
<trkpt lat="46.3192710876464844" lon="7.5931887626647949"><ele></ele><time>2014-10-10T16:6:58Z</time></trkpt>
<trkpt lat="46.3190193176269531" lon="7.5937600135803223"><ele></ele><time>2014-10-10T16:7:1Z</time></trkpt>
<trkpt lat="46.3189353942871094" lon="7.5939626693725586"><ele></ele><time>2014-10-10T16:7:4Z</time></trkpt>
<trkpt lat="46.3188018798828125" lon="7.5940837860107422"><ele></ele><time>2014-10-10T16:7:7Z</time></trkpt>
<trkpt lat="46.3187637329101562" lon="7.5947251319885254"><ele></ele><time>2014-10-10T16:7:10Z</time></trkpt>
<trkpt lat="46.3186607360839844" lon="7.5953769683837891"><ele></ele><time>2014-10-10T16:7:13Z</time></trkpt>
<trkpt lat="46.3186454772949219" lon="7.5960273742675781"><ele></ele><time>2014-10-10T16:7:16Z</time></trkpt>
<trkpt lat="46.3186988830566406" lon="7.5963492393493652"><ele></ele><time>2014-10-10T16:7:19Z</time></trkpt>
<trkpt lat="46.3185462951660156" lon="7.5968894958496094"><ele></ele><time>2014-10-10T16:7:22Z</time></trkpt>
<trkpt lat="46.3184547424316406" lon="7.5971245765686035"><ele></ele><time>2014-10-10T16:7:25Z</time></trkpt>
<trkpt lat="46.3183822631835938" lon="7.5976142883300781"><ele></ele><time>2014-10-10T16:7:28Z</time></trkpt>
<trkpt lat="46.3184509277343750" lon="7.5982909202575684"><ele></ele><time>2014-10-10T16:7:31Z</time></trkpt>
<trkpt lat="46.3185081481933594" lon="7.5989542007446289"><ele></ele><time>2014-10-10T16:7:34Z</time></trkpt>
<trkpt lat="46.3185844421386719" lon="7.5996475219726562"><ele></ele><time>2014-10-10T16:7:37Z</time></trkpt>
<trkpt lat="46.3187026977539062" lon="7.6003251075744629"><ele></ele><time>2014-10-10T16:7:40Z</time></trkpt>
<trkpt lat="46.3188743591308594" lon="7.6009945869445801"><ele></ele><time>2014-10-10T16:7:43Z</time></trkpt>
<trkpt lat="46.3191337585449219" lon="7.6016492843627930"><ele></ele><time>2014-10-10T16:7:46Z</time></trkpt>
<trkpt lat="46.3192024230957031" lon="7.6023821830749512"><ele></ele><time>2014-10-10T16:7:49Z</time></trkpt>
<trkpt lat="46.3191947937011719" lon="7.6026072502136230"><ele></ele><time>2014-10-10T16:7:52Z</time></trkpt>
<trkpt lat="46.3192787170410156" lon="7.6032996177673340"><ele></ele><time>2014-10-10T16:7:55Z</time></trkpt>
<trkpt lat="46.3192520141601562" lon="7.6034712791442871"><ele></ele><time>2014-10-10T16:7:58Z</time></trkpt>
<trkpt lat="46.3193893432617188" lon="7.6039109230041504"><ele></ele><time>2014-10-10T16:8:1Z</time></trkpt>
<trkpt lat="46.3193283081054688" lon="7.6045556068420410"><ele></ele><time>2014-10-10T16:8:4Z</time></trkpt>
<trkpt lat="46.3193206787109375" lon="7.6052899360656738"><ele></ele><time>2014-10-10T16:8:7Z</time></trkpt>
<trkpt lat="46.3193016052246094" lon="7.6060571670532227"><ele></ele><time>2014-10-10T16:8:10Z</time></trkpt>
<trkpt lat="46.3192634582519531" lon="7.6063246726989746"><ele></ele><time>2014-10-10T16:8:13Z</time></trkpt>
<trkpt lat="46.3189888000488281" lon="7.6068973541259766"><ele></ele><time>2014-10-10T16:8:16Z</time></trkpt>
<trkpt lat="46.3189277648925781" lon="7.6071863174438477"><ele></ele><time>2014-10-10T16:8:19Z</time></trkpt>
<trkpt lat="46.3189506530761719" lon="7.6075668334960938"><ele></ele><time>2014-10-10T16:8:22Z</time></trkpt>
<trkpt lat="46.3189735412597656" lon="7.6076788902282715"><ele></ele><time>2014-10-10T16:8:25Z</time></trkpt>
<trkpt lat="46.3189010620117188" lon="7.6078629493713379"><ele></ele><time>2014-10-10T16:8:28Z</time></trkpt>
<trkpt lat="46.3189964294433594" lon="7.6080846786499023"><ele></ele><time>2014-10-10T16:8:31Z</time></trkpt>
<trkpt lat="46.3192291259765625" lon="7.6077432632446289"><ele></ele><time>2014-10-10T16:8:34Z</time></trkpt>
<trkpt lat="46.3192024230957031" lon="7.6077184677124023"><ele></ele><time>2014-10-10T16:8:37Z</time></trkpt>
<trkpt lat="46.3192749023437500" lon="7.6076774597167969"><ele></ele><time>2014-10-10T16:8:40Z</time></trkpt>
<trkpt lat="46.3192787170410156" lon="7.6077179908752441"><ele></ele><time>2014-10-10T16:8:43Z</time></trkpt>
<trkpt lat="46.3195915222167969" lon="7.6075310707092285"><ele></ele><time>2014-10-10T16:8:46Z</time></trkpt>
<trkpt lat="46.3198471069335938" lon="7.6080751419067383"><ele></ele><time>2014-10-10T16:8:49Z</time></trkpt>
<trkpt lat="46.3200416564941406" lon="7.6086931228637695"><ele></ele><time>2014-10-10T16:8:52Z</time></trkpt>
<trkpt lat="46.3200531005859375" lon="7.6093578338623047"><ele></ele><time>2014-10-10T16:8:55Z</time></trkpt>
<trkpt lat="46.3201675415039062" lon="7.6100344657897949"><ele></ele><time>2014-10-10T16:8:58Z</time></trkpt>
<trkpt lat="46.3201637268066406" lon="7.6107096672058105"><ele></ele><time>2014-10-10T16:9:1Z</time></trkpt>
<trkpt lat="46.3201637268066406" lon="7.6111998558044434"><ele></ele><time>2014-10-10T16:9:4Z</time></trkpt>
<trkpt lat="46.3203506469726562" lon="7.6114101409912109"><ele></ele><time>2014-10-10T16:9:7Z</time></trkpt>
<trkpt lat="46.3205032348632812" lon="7.6120324134826660"><ele></ele><time>2014-10-10T16:9:10Z</time></trkpt>
<trkpt lat="46.3206939697265625" lon="7.6126418113708496"><ele></ele><time>2014-10-10T16:9:13Z</time></trkpt>
<trkpt lat="46.3207664489746094" lon="7.6132869720458984"><ele></ele><time>2014-10-10T16:9:16Z</time></trkpt>
<trkpt lat="46.3208732604980469" lon="7.6139206886291504"><ele></ele><time>2014-10-10T16:9:19Z</time></trkpt>
<trkpt lat="46.3211135864257812" lon="7.6144971847534180"><ele></ele><time>2014-10-10T16:9:22Z</time></trkpt>
<trkpt lat="46.3213233947753906" lon="7.6150808334350586"><ele></ele><time>2014-10-10T16:9:25Z</time></trkpt>
<trkpt lat="46.3214683532714844" lon="7.6157231330871582"><ele></ele><time>2014-10-10T16:9:28Z</time></trkpt>
<trkpt lat="46.3215942382812500" lon="7.6163740158081055"><ele></ele><time>2014-10-10T16:9:31Z</time></trkpt>
<trkpt lat="46.3217124938964844" lon="7.6170201301574707"><ele></ele><time>2014-10-10T16:9:34Z</time></trkpt>
<trkpt lat="46.3218917846679688" lon="7.6174907684326172"><ele></ele><time>2014-10-10T16:9:37Z</time></trkpt>
<trkpt lat="46.3219413757324219" lon="7.6174931526184082"><ele></ele><time>2014-10-10T16:9:40Z</time></trkpt>
<trkpt lat="46.3219757080078125" lon="7.6174416542053223"><ele></ele><time>2014-10-10T16:9:43Z</time></trkpt>
<trkpt lat="46.3218536376953125" lon="7.6167888641357422"><ele></ele><time>2014-10-10T16:9:46Z</time></trkpt>
<trkpt lat="46.3218879699707031" lon="7.6165652275085449"><ele></ele><time>2014-10-10T16:9:49Z</time></trkpt>
<trkpt lat="46.3219337463378906" lon="7.6165270805358887"><ele></ele><time>2014-10-10T16:9:52Z</time></trkpt>
<trkpt lat="46.3221282958984375" lon="7.6171536445617676"><ele></ele><time>2014-10-10T16:9:55Z</time></trkpt>
<trkpt lat="46.3223152160644531" lon="7.6177606582641602"><ele></ele><time>2014-10-10T16:9:58Z</time></trkpt>
<trkpt lat="46.3224830627441406" lon="7.6183614730834961"><ele></ele><time>2014-10-10T16:10:1Z</time></trkpt>
<trkpt lat="46.3226547241210938" lon="7.6190023422241211"><ele></ele><time>2014-10-10T16:10:4Z</time></trkpt>
<trkpt lat="46.3227958679199219" lon="7.6196269989013672"><ele></ele><time>2014-10-10T16:10:7Z</time></trkpt>
<trkpt lat="46.3229331970214844" lon="7.6202526092529297"><ele></ele><time>2014-10-10T16:10:10Z</time></trkpt>
<trkpt lat="46.3230514526367188" lon="7.6209182739257812"><ele></ele><time>2014-10-10T16:10:13Z</time></trkpt>
<trkpt lat="46.3231811523437500" lon="7.6215467453002930"><ele></ele><time>2014-10-10T16:10:16Z</time></trkpt>
<trkpt lat="46.3233909606933594" lon="7.6221642494201660"><ele></ele><time>2014-10-10T16:10:19Z</time></trkpt>
<trkpt lat="46.3236083984375000" lon="7.6227517127990723"><ele></ele><time>2014-10-10T16:10:22Z</time></trkpt>
<trkpt lat="46.3237762451171875" lon="7.6233854293823242"><ele></ele><time>2014-10-10T16:10:25Z</time></trkpt>
<trkpt lat="46.3241043090820312" lon="7.6237597465515137"><ele></ele><time>2014-10-10T16:10:28Z</time></trkpt>
<trkpt lat="46.3243789672851562" lon="7.6237645149230957"><ele></ele><time>2014-10-10T16:10:31Z</time></trkpt>
<trkpt lat="46.3244743347167969" lon="7.6237859725952148"><ele></ele><time>2014-10-10T16:10:34Z</time></trkpt>
<trkpt lat="46.3245582580566406" lon="7.6238727569580078"><ele></ele><time>2014-10-10T16:10:37Z</time></trkpt>
<trkpt lat="46.3246040344238281" lon="7.6238465309143066"><ele></ele><time>2014-10-10T16:10:40Z</time></trkpt>
<trkpt lat="46.3247261047363281" lon="7.6239352226257324"><ele></ele><time>2014-10-10T16:10:43Z</time></trkpt>
<trkpt lat="46.3248558044433594" lon="7.6242051124572754"><ele></ele><time>2014-10-10T16:10:46Z</time></trkpt>
<trkpt lat="46.3251876831054688" lon="7.6247291564941406"><ele></ele><time>2014-10-10T16:10:49Z</time></trkpt>
<trkpt lat="46.3252754211425781" lon="7.6248140335083008"><ele></ele><time>2014-10-10T16:10:52Z</time></trkpt>
<trkpt lat="46.3254737854003906" lon="7.6248779296875000"><ele></ele><time>2014-10-10T16:10:55Z</time></trkpt>
<trkpt lat="46.3258056640625000" lon="7.6247692108154297"><ele></ele><time>2014-10-10T16:10:58Z</time></trkpt>
<trkpt lat="46.3261833190917969" lon="7.6245555877685547"><ele></ele><time>2014-10-10T16:11:1Z</time></trkpt>
<trkpt lat="46.3263969421386719" lon="7.6245260238647461"><ele></ele><time>2014-10-10T16:11:4Z</time></trkpt>
<trkpt lat="46.3264350891113281" lon="7.6243553161621094"><ele></ele><time>2014-10-10T16:11:7Z</time></trkpt>
<trkpt lat="46.3266868591308594" lon="7.6241068840026855"><ele></ele><time>2014-10-10T16:11:10Z</time></trkpt>
<trkpt lat="46.3270187377929688" lon="7.6233372688293457"><ele></ele><time>2014-10-10T16:11:13Z</time></trkpt>
<trkpt lat="46.3270187377929688" lon="7.6232352256774902"><ele></ele><time>2014-10-10T16:11:16Z</time></trkpt>
<trkpt lat="46.3270606994628906" lon="7.6232538223266602"><ele></ele><time>2014-10-10T16:11:19Z</time></trkpt>
<trkpt lat="46.3271446228027344" lon="7.6231722831726074"><ele></ele><time>2014-10-10T16:11:22Z</time></trkpt>
<trkpt lat="46.3273696899414062" lon="7.6231474876403809"><ele></ele><time>2014-10-10T16:11:25Z</time></trkpt>
<trkpt lat="46.3274230957031250" lon="7.6229829788208008"><ele></ele><time>2014-10-10T16:11:28Z</time></trkpt>
<trkpt lat="46.3275260925292969" lon="7.6230263710021973"><ele></ele><time>2014-10-10T16:11:31Z</time></trkpt>
<trkpt lat="46.3277244567871094" lon="7.6227617263793945"><ele></ele><time>2014-10-10T16:11:34Z</time></trkpt>
<trkpt lat="46.3281555175781250" lon="7.6225743293762207"><ele></ele><time>2014-10-10T16:11:37Z</time></trkpt>
<trkpt lat="46.3286094665527344" lon="7.6225481033325195"><ele></ele><time>2014-10-10T16:11:40Z</time></trkpt>
<trkpt lat="46.3290061950683594" lon="7.6224164962768555"><ele></ele><time>2014-10-10T16:11:43Z</time></trkpt>
<trkpt lat="46.3293190002441406" lon="7.6219425201416016"><ele></ele><time>2014-10-10T16:11:46Z</time></trkpt>
<trkpt lat="46.3296623229980469" lon="7.6215205192565918"><ele></ele><time>2014-10-10T16:11:49Z</time></trkpt>
<trkpt lat="46.3300323486328125" lon="7.6213250160217285"><ele></ele><time>2014-10-10T16:11:52Z</time></trkpt>
<trkpt lat="46.3304214477539062" lon="7.6215181350708008"><ele></ele><time>2014-10-10T16:11:55Z</time></trkpt>
<trkpt lat="46.3305168151855469" lon="7.6213626861572266"><ele></ele><time>2014-10-10T16:11:58Z</time></trkpt>
<trkpt lat="46.3304481506347656" lon="7.6211609840393066"><ele></ele><time>2014-10-10T16:12:1Z</time></trkpt>
<trkpt lat="46.3300170898437500" lon="7.6209740638732910"><ele></ele><time>2014-10-10T16:12:4Z</time></trkpt>
<trkpt lat="46.3299789428710938" lon="7.6208834648132324"><ele></ele><time>2014-10-10T16:12:7Z</time></trkpt>
<trkpt lat="46.3300323486328125" lon="7.6207871437072754"><ele></ele><time>2014-10-10T16:12:10Z</time></trkpt>
<trkpt lat="46.3304748535156250" lon="7.6206741333007812"><ele></ele><time>2014-10-10T16:12:13Z</time></trkpt>
<trkpt lat="46.3309173583984375" lon="7.6205158233642578"><ele></ele><time>2014-10-10T16:12:16Z</time></trkpt>
<trkpt lat="46.3313560485839844" lon="7.6206803321838379"><ele></ele><time>2014-10-10T16:12:19Z</time></trkpt>
<trkpt lat="46.3316879272460938" lon="7.6211266517639160"><ele></ele><time>2014-10-10T16:12:22Z</time></trkpt>
<trkpt lat="46.3320503234863281" lon="7.6215267181396484"><ele></ele><time>2014-10-10T16:12:25Z</time></trkpt>
<trkpt lat="46.3323745727539062" lon="7.6219773292541504"><ele></ele><time>2014-10-10T16:12:28Z</time></trkpt>
<trkpt lat="46.3326072692871094" lon="7.6220841407775879"><ele></ele><time>2014-10-10T16:12:31Z</time></trkpt>
<trkpt lat="46.3327941894531250" lon="7.6218757629394531"><ele></ele><time>2014-10-10T16:12:34Z</time></trkpt>
<trkpt lat="46.3328857421875000" lon="7.6212215423583984"><ele></ele><time>2014-10-10T16:12:37Z</time></trkpt>
<trkpt lat="46.3329849243164062" lon="7.6209883689880371"><ele></ele><time>2014-10-10T16:12:40Z</time></trkpt>
<trkpt lat="46.3333206176757812" lon="7.6209197044372559"><ele></ele><time>2014-10-10T16:12:43Z</time></trkpt>
<trkpt lat="46.3336677551269531" lon="7.6211261749267578"><ele></ele><time>2014-10-10T16:12:46Z</time></trkpt>
<trkpt lat="46.3337097167968750" lon="7.6210608482360840"><ele></ele><time>2014-10-10T16:12:49Z</time></trkpt>
<trkpt lat="46.3333206176757812" lon="7.6206593513488770"><ele></ele><time>2014-10-10T16:12:52Z</time></trkpt>
<trkpt lat="46.3330230712890625" lon="7.6206245422363281"><ele></ele><time>2014-10-10T16:12:55Z</time></trkpt>
<trkpt lat="46.3327407836914062" lon="7.6211409568786621"><ele></ele><time>2014-10-10T16:12:58Z</time></trkpt>
<trkpt lat="46.3325347900390625" lon="7.6211819648742676"><ele></ele><time>2014-10-10T16:13:1Z</time></trkpt>
<trkpt lat="46.3322334289550781" lon="7.6206660270690918"><ele></ele><time>2014-10-10T16:13:4Z</time></trkpt>
<trkpt lat="46.3319549560546875" lon="7.6201019287109375"><ele></ele><time>2014-10-10T16:13:7Z</time></trkpt>
<trkpt lat="46.3316345214843750" lon="7.6196193695068359"><ele></ele><time>2014-10-10T16:13:10Z</time></trkpt>
<trkpt lat="46.3312263488769531" lon="7.6193132400512695"><ele></ele><time>2014-10-10T16:13:13Z</time></trkpt>
<trkpt lat="46.3307991027832031" lon="7.6190209388732910"><ele></ele><time>2014-10-10T16:13:16Z</time></trkpt>
<trkpt lat="46.3303985595703125" lon="7.6187090873718262"><ele></ele><time>2014-10-10T16:13:19Z</time></trkpt>
<trkpt lat="46.3299369812011719" lon="7.6187281608581543"><ele></ele><time>2014-10-10T16:13:22Z</time></trkpt>
<trkpt lat="46.3298835754394531" lon="7.6187105178833008"><ele></ele><time>2014-10-10T16:13:25Z</time></trkpt>
<trkpt lat="46.3303298950195312" lon="7.6185460090637207"><ele></ele><time>2014-10-10T16:13:28Z</time></trkpt>
<trkpt lat="46.3307762145996094" lon="7.6183938980102539"><ele></ele><time>2014-10-10T16:13:31Z</time></trkpt>
<trkpt lat="46.3312225341796875" lon="7.6182670593261719"><ele></ele><time>2014-10-10T16:13:34Z</time></trkpt>
<trkpt lat="46.3316650390625000" lon="7.6184134483337402"><ele></ele><time>2014-10-10T16:13:37Z</time></trkpt>
<trkpt lat="46.3320922851562500" lon="7.6181793212890625"><ele></ele><time>2014-10-10T16:13:40Z</time></trkpt>
<trkpt lat="46.3324584960937500" lon="7.6185307502746582"><ele></ele><time>2014-10-10T16:13:43Z</time></trkpt>
<trkpt lat="46.3328247070312500" lon="7.6186037063598633"><ele></ele><time>2014-10-10T16:13:46Z</time></trkpt>
<trkpt lat="46.3327369689941406" lon="7.6182208061218262"><ele></ele><time>2014-10-10T16:13:49Z</time></trkpt>
<trkpt lat="46.3331069946289062" lon="7.6185650825500488"><ele></ele><time>2014-10-10T16:13:52Z</time></trkpt>
<trkpt lat="46.3332481384277344" lon="7.6183834075927734"><ele></ele><time>2014-10-10T16:13:55Z</time></trkpt>
<trkpt lat="46.3331718444824219" lon="7.6177916526794434"><ele></ele><time>2014-10-10T16:13:58Z</time></trkpt>
<trkpt lat="46.3335456848144531" lon="7.6175537109375000"><ele></ele><time>2014-10-10T16:14:1Z</time></trkpt>
<trkpt lat="46.3338623046875000" lon="7.6180324554443359"><ele></ele><time>2014-10-10T16:14:4Z</time></trkpt>
<trkpt lat="46.3341140747070312" lon="7.6185774803161621"><ele></ele><time>2014-10-10T16:14:7Z</time></trkpt>
<trkpt lat="46.3345565795898438" lon="7.6183958053588867"><ele></ele><time>2014-10-10T16:14:10Z</time></trkpt>
<trkpt lat="46.3346633911132812" lon="7.6183600425720215"><ele></ele><time>2014-10-10T16:14:13Z</time></trkpt>
<trkpt lat="46.3347396850585938" lon="7.6183805465698242"><ele></ele><time>2014-10-10T16:14:16Z</time></trkpt>
<trkpt lat="46.3348579406738281" lon="7.6183328628540039"><ele></ele><time>2014-10-10T16:14:19Z</time></trkpt>
<trkpt lat="46.3350219726562500" lon="7.6183423995971680"><ele></ele><time>2014-10-10T16:14:22Z</time></trkpt>
<trkpt lat="46.3354568481445312" lon="7.6181182861328125"><ele></ele><time>2014-10-10T16:14:25Z</time></trkpt>
<trkpt lat="46.3358497619628906" lon="7.6177325248718262"><ele></ele><time>2014-10-10T16:14:28Z</time></trkpt>
<trkpt lat="46.3362121582031250" lon="7.6173019409179688"><ele></ele><time>2014-10-10T16:14:31Z</time></trkpt>
<trkpt lat="46.3366394042968750" lon="7.6170430183410645"><ele></ele><time>2014-10-10T16:14:34Z</time></trkpt>
<trkpt lat="46.3370285034179688" lon="7.6168785095214844"><ele></ele><time>2014-10-10T16:14:37Z</time></trkpt>
<trkpt lat="46.3374710083007812" lon="7.6170644760131836"><ele></ele><time>2014-10-10T16:14:40Z</time></trkpt>
<trkpt lat="46.3377304077148438" lon="7.6173129081726074"><ele></ele><time>2014-10-10T16:14:43Z</time></trkpt>
<trkpt lat="46.3379402160644531" lon="7.6173691749572754"><ele></ele><time>2014-10-10T16:14:46Z</time></trkpt>
<trkpt lat="46.3381729125976562" lon="7.6173243522644043"><ele></ele><time>2014-10-10T16:14:49Z</time></trkpt>
<trkpt lat="46.3382949829101562" lon="7.6174311637878418"><ele></ele><time>2014-10-10T16:14:52Z</time></trkpt>
<trkpt lat="46.3386268615722656" lon="7.6172857284545898"><ele></ele><time>2014-10-10T16:14:55Z</time></trkpt>
<trkpt lat="46.3387222290039062" lon="7.6171422004699707"><ele></ele><time>2014-10-10T16:14:58Z</time></trkpt>
<trkpt lat="46.3391799926757812" lon="7.6170678138732910"><ele></ele><time>2014-10-10T16:15:1Z</time></trkpt>
<trkpt lat="46.3396301269531250" lon="7.6169905662536621"><ele></ele><time>2014-10-10T16:15:4Z</time></trkpt>
<trkpt lat="46.3400001525878906" lon="7.6171483993530273"><ele></ele><time>2014-10-10T16:15:7Z</time></trkpt>
<trkpt lat="46.3401489257812500" lon="7.6174368858337402"><ele></ele><time>2014-10-10T16:15:10Z</time></trkpt>
<trkpt lat="46.3403549194335938" lon="7.6175608634948730"><ele></ele><time>2014-10-10T16:15:13Z</time></trkpt>
<trkpt lat="46.3407287597656250" lon="7.6179642677307129"><ele></ele><time>2014-10-10T16:15:16Z</time></trkpt>
<trkpt lat="46.3411788940429688" lon="7.6179132461547852"><ele></ele><time>2014-10-10T16:15:19Z</time></trkpt>
<trkpt lat="46.3414993286132812" lon="7.6180324554443359"><ele></ele><time>2014-10-10T16:15:22Z</time></trkpt>
<trkpt lat="46.3419532775878906" lon="7.6178069114685059"><ele></ele><time>2014-10-10T16:15:25Z</time></trkpt>
<trkpt lat="46.3423957824707031" lon="7.6176071166992188"><ele></ele><time>2014-10-10T16:15:28Z</time></trkpt>
<trkpt lat="46.3428306579589844" lon="7.6173834800720215"><ele></ele><time>2014-10-10T16:15:31Z</time></trkpt>
<trkpt lat="46.3432769775390625" lon="7.6172580718994141"><ele></ele><time>2014-10-10T16:15:34Z</time></trkpt>
<trkpt lat="46.3437118530273438" lon="7.6169695854187012"><ele></ele><time>2014-10-10T16:15:37Z</time></trkpt>
<trkpt lat="46.3440628051757812" lon="7.6165437698364258"><ele></ele><time>2014-10-10T16:15:40Z</time></trkpt>
<trkpt lat="46.3443756103515625" lon="7.6160669326782227"><ele></ele><time>2014-10-10T16:15:43Z</time></trkpt>
<trkpt lat="46.3446350097656250" lon="7.6155362129211426"><ele></ele><time>2014-10-10T16:15:46Z</time></trkpt>
<trkpt lat="46.3447532653808594" lon="7.6149024963378906"><ele></ele><time>2014-10-10T16:15:49Z</time></trkpt>
<trkpt lat="46.3450050354003906" lon="7.6143584251403809"><ele></ele><time>2014-10-10T16:15:52Z</time></trkpt>
<trkpt lat="46.3453750610351562" lon="7.6139740943908691"><ele></ele><time>2014-10-10T16:15:55Z</time></trkpt>
<trkpt lat="46.3457489013671875" lon="7.6135935783386230"><ele></ele><time>2014-10-10T16:15:58Z</time></trkpt>
<trkpt lat="46.3460884094238281" lon="7.6131443977355957"><ele></ele><time>2014-10-10T16:16:1Z</time></trkpt>
<trkpt lat="46.3464736938476562" lon="7.6127958297729492"><ele></ele><time>2014-10-10T16:16:4Z</time></trkpt>
<trkpt lat="46.3469314575195312" lon="7.6128635406494141"><ele></ele><time>2014-10-10T16:16:7Z</time></trkpt>
<trkpt lat="46.3473930358886719" lon="7.6129221916198730"><ele></ele><time>2014-10-10T16:16:10Z</time></trkpt>
<trkpt lat="46.3478279113769531" lon="7.6126317977905273"><ele></ele><time>2014-10-10T16:16:13Z</time></trkpt>
<trkpt lat="46.3482170104980469" lon="7.6122970581054688"><ele></ele><time>2014-10-10T16:16:16Z</time></trkpt>
<trkpt lat="46.3486633300781250" lon="7.6122326850891113"><ele></ele><time>2014-10-10T16:16:19Z</time></trkpt>
<trkpt lat="46.3490333557128906" lon="7.6126265525817871"><ele></ele><time>2014-10-10T16:16:22Z</time></trkpt>
<trkpt lat="46.3493499755859375" lon="7.6131057739257812"><ele></ele><time>2014-10-10T16:16:25Z</time></trkpt>
<trkpt lat="46.3497123718261719" lon="7.6134929656982422"><ele></ele><time>2014-10-10T16:16:28Z</time></trkpt>
<trkpt lat="46.3501663208007812" lon="7.6135644912719727"><ele></ele><time>2014-10-10T16:16:31Z</time></trkpt>
<trkpt lat="46.3506164550781250" lon="7.6134004592895508"><ele></ele><time>2014-10-10T16:16:34Z</time></trkpt>
<trkpt lat="46.3510169982910156" lon="7.6132888793945312"><ele></ele><time>2014-10-10T16:16:37Z</time></trkpt>
<trkpt lat="46.3510627746582031" lon="7.6131300926208496"><ele></ele><time>2014-10-10T16:16:40Z</time></trkpt>
<trkpt lat="46.3510398864746094" lon="7.6128931045532227"><ele></ele><time>2014-10-10T16:16:43Z</time></trkpt>
<trkpt lat="46.3514938354492188" lon="7.6130552291870117"><ele></ele><time>2014-10-10T16:16:46Z</time></trkpt>
<trkpt lat="46.3519477844238281" lon="7.6130042076110840"><ele></ele><time>2014-10-10T16:16:49Z</time></trkpt>
<trkpt lat="46.3523979187011719" lon="7.6130671501159668"><ele></ele><time>2014-10-10T16:16:52Z</time></trkpt>
<trkpt lat="46.3528556823730469" lon="7.6129736900329590"><ele></ele><time>2014-10-10T16:16:55Z</time></trkpt>
<trkpt lat="46.3533210754394531" lon="7.6129870414733887"><ele></ele><time>2014-10-10T16:16:58Z</time></trkpt>
<trkpt lat="46.3538017272949219" lon="7.6129555702209473"><ele></ele><time>2014-10-10T16:17:1Z</time></trkpt>
<trkpt lat="46.3542747497558594" lon="7.6128931045532227"><ele></ele><time>2014-10-10T16:17:4Z</time></trkpt>
<trkpt lat="46.3545875549316406" lon="7.6128864288330078"><ele></ele><time>2014-10-10T16:17:7Z</time></trkpt>
<trkpt lat="46.3550376892089844" lon="7.6125993728637695"><ele></ele><time>2014-10-10T16:17:10Z</time></trkpt>
<trkpt lat="46.3552818298339844" lon="7.6124572753906250"><ele></ele><time>2014-10-10T16:17:13Z</time></trkpt>
<trkpt lat="46.3554573059082031" lon="7.6122536659240723"><ele></ele><time>2014-10-10T16:17:16Z</time></trkpt>
<trkpt lat="46.3554916381835938" lon="7.6121611595153809"><ele></ele><time>2014-10-10T16:17:19Z</time></trkpt>
<trkpt lat="46.3555221557617188" lon="7.6115093231201172"><ele></ele><time>2014-10-10T16:17:22Z</time></trkpt>
<trkpt lat="46.3555603027343750" lon="7.6113629341125488"><ele></ele><time>2014-10-10T16:17:25Z</time></trkpt>
<trkpt lat="46.3555793762207031" lon="7.6111078262329102"><ele></ele><time>2014-10-10T16:17:28Z</time></trkpt>
<trkpt lat="46.3556556701660156" lon="7.6110420227050781"><ele></ele><time>2014-10-10T16:17:31Z</time></trkpt>
<trkpt lat="46.3557510375976562" lon="7.6111216545104980"><ele></ele><time>2014-10-10T16:17:34Z</time></trkpt>
<trkpt lat="46.3559570312500000" lon="7.6117062568664551"><ele></ele><time>2014-10-10T16:17:37Z</time></trkpt>
<trkpt lat="46.3563766479492188" lon="7.6114645004272461"><ele></ele><time>2014-10-10T16:17:40Z</time></trkpt>
<trkpt lat="46.3567428588867188" lon="7.6111750602722168"><ele></ele><time>2014-10-10T16:17:43Z</time></trkpt>
<trkpt lat="46.3571205139160156" lon="7.6115131378173828"><ele></ele><time>2014-10-10T16:17:46Z</time></trkpt>
<trkpt lat="46.3572349548339844" lon="7.6113958358764648"><ele></ele><time>2014-10-10T16:17:49Z</time></trkpt>
<trkpt lat="46.3575897216796875" lon="7.6118006706237793"><ele></ele><time>2014-10-10T16:17:52Z</time></trkpt>
<trkpt lat="46.3579826354980469" lon="7.6121459007263184"><ele></ele><time>2014-10-10T16:17:55Z</time></trkpt>
<trkpt lat="46.3584480285644531" lon="7.6121749877929688"><ele></ele><time>2014-10-10T16:17:58Z</time></trkpt>
<trkpt lat="46.3588752746582031" lon="7.6119670867919922"><ele></ele><time>2014-10-10T16:18:1Z</time></trkpt>
<trkpt lat="46.3593292236328125" lon="7.6120123863220215"><ele></ele><time>2014-10-10T16:18:4Z</time></trkpt>
<trkpt lat="46.3597564697265625" lon="7.6117925643920898"><ele></ele><time>2014-10-10T16:18:7Z</time></trkpt>
<trkpt lat="46.3602027893066406" lon="7.6116933822631836"><ele></ele><time>2014-10-10T16:18:10Z</time></trkpt>
<trkpt lat="46.3606376647949219" lon="7.6114268302917480"><ele></ele><time>2014-10-10T16:18:13Z</time></trkpt>
<trkpt lat="46.3610343933105469" lon="7.6110734939575195"><ele></ele><time>2014-10-10T16:18:16Z</time></trkpt>
<trkpt lat="46.3612327575683594" lon="7.6106662750244141"><ele></ele><time>2014-10-10T16:18:19Z</time></trkpt>
<trkpt lat="46.3612365722656250" lon="7.6105103492736816"><ele></ele><time>2014-10-10T16:18:22Z</time></trkpt>
<trkpt lat="46.3613510131835938" lon="7.6103544235229492"><ele></ele><time>2014-10-10T16:18:25Z</time></trkpt>
<trkpt lat="46.3614158630371094" lon="7.6103129386901855"><ele></ele><time>2014-10-10T16:18:28Z</time></trkpt>
<trkpt lat="46.3615798950195312" lon="7.6100316047668457"><ele></ele><time>2014-10-10T16:18:31Z</time></trkpt>
<trkpt lat="46.3616294860839844" lon="7.6100540161132812"><ele></ele><time>2014-10-10T16:18:34Z</time></trkpt>
<trkpt lat="46.3619232177734375" lon="7.6095585823059082"><ele></ele><time>2014-10-10T16:18:37Z</time></trkpt>
<trkpt lat="46.3620796203613281" lon="7.6094388961791992"><ele></ele><time>2014-10-10T16:18:40Z</time></trkpt>
<trkpt lat="46.3624153137207031" lon="7.6098837852478027"><ele></ele><time>2014-10-10T16:18:43Z</time></trkpt>
<trkpt lat="46.3627700805664062" lon="7.6103277206420898"><ele></ele><time>2014-10-10T16:18:46Z</time></trkpt>
<trkpt lat="46.3631782531738281" lon="7.6105494499206543"><ele></ele><time>2014-10-10T16:18:49Z</time></trkpt>
<trkpt lat="46.3632507324218750" lon="7.6104431152343750"><ele></ele><time>2014-10-10T16:18:52Z</time></trkpt>
<trkpt lat="46.3629608154296875" lon="7.6099190711975098"><ele></ele><time>2014-10-10T16:18:55Z</time></trkpt>
<trkpt lat="46.3629417419433594" lon="7.6096954345703125"><ele></ele><time>2014-10-10T16:18:58Z</time></trkpt>
<trkpt lat="46.3628883361816406" lon="7.6090602874755859"><ele></ele><time>2014-10-10T16:19:1Z</time></trkpt>
<trkpt lat="46.3633003234863281" lon="7.6093287467956543"><ele></ele><time>2014-10-10T16:19:4Z</time></trkpt>
<trkpt lat="46.3636436462402344" lon="7.6098017692565918"><ele></ele><time>2014-10-10T16:19:7Z</time></trkpt>
<trkpt lat="46.3637695312500000" lon="7.6099185943603516"><ele></ele><time>2014-10-10T16:19:10Z</time></trkpt>
<trkpt lat="46.3639221191406250" lon="7.6098456382751465"><ele></ele><time>2014-10-10T16:19:13Z</time></trkpt>
<trkpt lat="46.3639640808105469" lon="7.6098756790161133"><ele></ele><time>2014-10-10T16:19:16Z</time></trkpt>
<trkpt lat="46.3641242980957031" lon="7.6104998588562012"><ele></ele><time>2014-10-10T16:19:19Z</time></trkpt>
<trkpt lat="46.3642578125000000" lon="7.6108241081237793"><ele></ele><time>2014-10-10T16:19:22Z</time></trkpt>
<trkpt lat="46.3643379211425781" lon="7.6112136840820312"><ele></ele><time>2014-10-10T16:19:25Z</time></trkpt>
<trkpt lat="46.3644981384277344" lon="7.6114177703857422"><ele></ele><time>2014-10-10T16:19:28Z</time></trkpt>
<trkpt lat="46.3646850585937500" lon="7.6120147705078125"><ele></ele><time>2014-10-10T16:19:31Z</time></trkpt>
<trkpt lat="46.3648719787597656" lon="7.6126365661621094"><ele></ele><time>2014-10-10T16:19:34Z</time></trkpt>
<trkpt lat="46.3649787902832031" lon="7.6128630638122559"><ele></ele><time>2014-10-10T16:19:37Z</time></trkpt>
<trkpt lat="46.3652801513671875" lon="7.6129188537597656"><ele></ele><time>2014-10-10T16:19:40Z</time></trkpt>
<trkpt lat="46.3656387329101562" lon="7.6133093833923340"><ele></ele><time>2014-10-10T16:19:43Z</time></trkpt>
<trkpt lat="46.3656997680664062" lon="7.6134881973266602"><ele></ele><time>2014-10-10T16:19:46Z</time></trkpt>
<trkpt lat="46.3657608032226562" lon="7.6141023635864258"><ele></ele><time>2014-10-10T16:19:49Z</time></trkpt>
<trkpt lat="46.3658981323242188" lon="7.6142883300781250"><ele></ele><time>2014-10-10T16:19:52Z</time></trkpt>
<trkpt lat="46.3659400939941406" lon="7.6142096519470215"><ele></ele><time>2014-10-10T16:19:55Z</time></trkpt>
<trkpt lat="46.3661422729492188" lon="7.6148314476013184"><ele></ele><time>2014-10-10T16:19:58Z</time></trkpt>
<trkpt lat="46.3662300109863281" lon="7.6154274940490723"><ele></ele><time>2014-10-10T16:20:1Z</time></trkpt>
<trkpt lat="46.3665313720703125" lon="7.6160078048706055"><ele></ele><time>2014-10-10T16:20:4Z</time></trkpt>
<trkpt lat="46.3666152954101562" lon="7.6161837577819824"><ele></ele><time>2014-10-10T16:20:7Z</time></trkpt>
<trkpt lat="46.3667793273925781" lon="7.6163401603698730"><ele></ele><time>2014-10-10T16:20:10Z</time></trkpt>
<trkpt lat="46.3668861389160156" lon="7.6165475845336914"><ele></ele><time>2014-10-10T16:20:13Z</time></trkpt>
<trkpt lat="46.3673171997070312" lon="7.6169667243957520"><ele></ele><time>2014-10-10T16:20:16Z</time></trkpt>
<trkpt lat="46.3674736022949219" lon="7.6171078681945801"><ele></ele><time>2014-10-10T16:20:19Z</time></trkpt>
<trkpt lat="46.3676338195800781" lon="7.6174163818359375"><ele></ele><time>2014-10-10T16:20:22Z</time></trkpt>
<trkpt lat="46.3676719665527344" lon="7.6176295280456543"><ele></ele><time>2014-10-10T16:20:25Z</time></trkpt>
<trkpt lat="46.3679466247558594" lon="7.6181650161743164"><ele></ele><time>2014-10-10T16:20:28Z</time></trkpt>
<trkpt lat="46.3682975769042969" lon="7.6183056831359863"><ele></ele><time>2014-10-10T16:20:31Z</time></trkpt>
<trkpt lat="46.3685379028320312" lon="7.6186451911926270"><ele></ele><time>2014-10-10T16:20:34Z</time></trkpt>
<trkpt lat="46.3689689636230469" lon="7.6190328598022461"><ele></ele><time>2014-10-10T16:20:37Z</time></trkpt>
<trkpt lat="46.3692893981933594" lon="7.6193633079528809"><ele></ele><time>2014-10-10T16:20:40Z</time></trkpt>
<trkpt lat="46.3696441650390625" lon="7.6198315620422363"><ele></ele><time>2014-10-10T16:20:43Z</time></trkpt>
<trkpt lat="46.3699111938476562" lon="7.6201062202453613"><ele></ele><time>2014-10-10T16:20:46Z</time></trkpt>
<trkpt lat="46.3700828552246094" lon="7.6201996803283691"><ele></ele><time>2014-10-10T16:20:49Z</time></trkpt>
<trkpt lat="46.3705329895019531" lon="7.6202683448791504"><ele></ele><time>2014-10-10T16:20:52Z</time></trkpt>
<trkpt lat="46.3709487915039062" lon="7.6206607818603516"><ele></ele><time>2014-10-10T16:20:55Z</time></trkpt>
<trkpt lat="46.3713722229003906" lon="7.6209959983825684"><ele></ele><time>2014-10-10T16:20:58Z</time></trkpt>
<trkpt lat="46.3717651367187500" lon="7.6213278770446777"><ele></ele><time>2014-10-10T16:21:1Z</time></trkpt>
<trkpt lat="46.3721694946289062" lon="7.6217274665832520"><ele></ele><time>2014-10-10T16:21:4Z</time></trkpt>
<trkpt lat="46.3725318908691406" lon="7.6221756935119629"><ele></ele><time>2014-10-10T16:21:7Z</time></trkpt>
<trkpt lat="46.3729171752929688" lon="7.6226472854614258"><ele></ele><time>2014-10-10T16:21:10Z</time></trkpt>
<trkpt lat="46.3730926513671875" lon="7.6228132247924805"><ele></ele><time>2014-10-10T16:21:13Z</time></trkpt>
<trkpt lat="46.3731956481933594" lon="7.6228737831115723"><ele></ele><time>2014-10-10T16:21:16Z</time></trkpt>
<trkpt lat="46.3732948303222656" lon="7.6228899955749512"><ele></ele><time>2014-10-10T16:21:19Z</time></trkpt>
<trkpt lat="46.3737983703613281" lon="7.6231551170349121"><ele></ele><time>2014-10-10T16:21:22Z</time></trkpt>
<trkpt lat="46.3741455078125000" lon="7.6233677864074707"><ele></ele><time>2014-10-10T16:21:25Z</time></trkpt>
<trkpt lat="46.3744964599609375" lon="7.6239013671875000"><ele></ele><time>2014-10-10T16:21:28Z</time></trkpt>
<trkpt lat="46.3747329711914062" lon="7.6244530677795410"><ele></ele><time>2014-10-10T16:21:31Z</time></trkpt>
<trkpt lat="46.3750534057617188" lon="7.6249413490295410"><ele></ele><time>2014-10-10T16:21:34Z</time></trkpt>
<trkpt lat="46.3754577636718750" lon="7.6252951622009277"><ele></ele><time>2014-10-10T16:21:37Z</time></trkpt>
<trkpt lat="46.3754882812500000" lon="7.6252508163452148"><ele></ele><time>2014-10-10T16:21:40Z</time></trkpt>
<trkpt lat="46.3759460449218750" lon="7.6253461837768555"><ele></ele><time>2014-10-10T16:21:43Z</time></trkpt>
<trkpt lat="46.3763961791992188" lon="7.6252374649047852"><ele></ele><time>2014-10-10T16:21:46Z</time></trkpt>
<trkpt lat="46.3764228820800781" lon="7.6252608299255371"><ele></ele><time>2014-10-10T16:21:49Z</time></trkpt>
<trkpt lat="46.3763999938964844" lon="7.6252722740173340"><ele></ele><time>2014-10-10T16:21:52Z</time></trkpt>
<trkpt lat="46.3764533996582031" lon="7.6253285408020020"><ele></ele><time>2014-10-10T16:21:55Z</time></trkpt>
<trkpt lat="46.3761863708496094" lon="7.6258664131164551"><ele></ele><time>2014-10-10T16:21:58Z</time></trkpt>
<trkpt lat="46.3758544921875000" lon="7.6263489723205566"><ele></ele><time>2014-10-10T16:22:1Z</time></trkpt>
<trkpt lat="46.3755302429199219" lon="7.6268491744995117"><ele></ele><time>2014-10-10T16:22:4Z</time></trkpt>
<trkpt lat="46.3753776550292969" lon="7.6271691322326660"><ele></ele><time>2014-10-10T16:22:7Z</time></trkpt>
<trkpt lat="46.3753929138183594" lon="7.6273145675659180"><ele></ele><time>2014-10-10T16:22:10Z</time></trkpt>
<trkpt lat="46.3755302429199219" lon="7.6273975372314453"><ele></ele><time>2014-10-10T16:22:13Z</time></trkpt>
<trkpt lat="46.3759460449218750" lon="7.6270418167114258"><ele></ele><time>2014-10-10T16:22:16Z</time></trkpt>
<trkpt lat="46.3763313293457031" lon="7.6267004013061523"><ele></ele><time>2014-10-10T16:22:19Z</time></trkpt>
<trkpt lat="46.3767395019531250" lon="7.6264104843139648"><ele></ele><time>2014-10-10T16:22:22Z</time></trkpt>
<trkpt lat="46.3771781921386719" lon="7.6261043548583984"><ele></ele><time>2014-10-10T16:22:25Z</time></trkpt>
<trkpt lat="46.3775329589843750" lon="7.6258893013000488"><ele></ele><time>2014-10-10T16:22:28Z</time></trkpt>
<trkpt lat="46.3779640197753906" lon="7.6260843276977539"><ele></ele><time>2014-10-10T16:22:31Z</time></trkpt>
<trkpt lat="46.3783874511718750" lon="7.6263360977172852"><ele></ele><time>2014-10-10T16:22:34Z</time></trkpt>
<trkpt lat="46.3787918090820312" lon="7.6265907287597656"><ele></ele><time>2014-10-10T16:22:37Z</time></trkpt>
<trkpt lat="46.3788795471191406" lon="7.6267185211181641"><ele></ele><time>2014-10-10T16:22:40Z</time></trkpt>
<trkpt lat="46.3790588378906250" lon="7.6268472671508789"><ele></ele><time>2014-10-10T16:22:43Z</time></trkpt>
<trkpt lat="46.3790817260742188" lon="7.6269998550415039"><ele></ele><time>2014-10-10T16:22:46Z</time></trkpt>
<trkpt lat="46.3788604736328125" lon="7.6275091171264648"><ele></ele><time>2014-10-10T16:22:49Z</time></trkpt>
<trkpt lat="46.3787651062011719" lon="7.6275138854980469"><ele></ele><time>2014-10-10T16:22:52Z</time></trkpt>
<trkpt lat="46.3786888122558594" lon="7.6274452209472656"><ele></ele><time>2014-10-10T16:22:55Z</time></trkpt>
<trkpt lat="46.3786392211914062" lon="7.6272616386413574"><ele></ele><time>2014-10-10T16:22:58Z</time></trkpt>
<trkpt lat="46.3788337707519531" lon="7.6268043518066406"><ele></ele><time>2014-10-10T16:23:1Z</time></trkpt>
</trkseg></trk></gpx>